<?xml version="1.0" encoding="UTF-8" standalone="no" ?>
<gpx xmlns="http://www.topografix.com/GPX/1/1" xmlns:xsi="http://www.w3.org/2001/XMLSchema-instance" xsi:schemaLocation="http://www.topografix.com/GPX/1/1 http://www.topografix.com/GPX/1/1/gpx.xsd" version="1.1" creator="VisuGPX - https://www.visugpx.com">
  <metadata>
    <name>V TT Turriers/Brezier/Le Puy/Rochebrune/Montsérieux</name>
    <desc><![CDATA[Un circuit essentiellement sur pistes forestières  (avec de longues montées parfois abruptes)  et un peu de goudron. Vue toujours superbe du sommet du Montsérieux ]]></desc>
  </metadata>
  <trk>
    <name><![CDATA[Turriers/Le Puy/Rochebrune/Montserieux/Gigors]]></name>
    <trkseg>
      <trkpt lat="44.39803" lon="6.17129">
        <ele>972.991699</ele>
        <time>2011-07-05T06:51:05Z</time>
      </trkpt>
      <trkpt lat="44.398" lon="6.17125">
        <ele>976.836914</ele>
        <time>2011-07-05T06:51:28Z</time>
      </trkpt>
      <trkpt lat="44.398" lon="6.17125">
        <ele>980.201416</ele>
        <time>2011-07-05T06:51:30Z</time>
      </trkpt>
      <trkpt lat="44.398" lon="6.17125">
        <ele>984.046631</ele>
        <time>2011-07-05T06:51:32Z</time>
      </trkpt>
      <trkpt lat="44.398" lon="6.17125">
        <ele>984.527344</ele>
        <time>2011-07-05T06:51:33Z</time>
      </trkpt>
      <trkpt lat="44.398" lon="6.17125">
        <ele>987.891846</ele>
        <time>2011-07-05T06:51:35Z</time>
      </trkpt>
      <trkpt lat="44.398" lon="6.17124">
        <ele>991.737305</ele>
        <time>2011-07-05T06:51:38Z</time>
      </trkpt>
      <trkpt lat="44.398" lon="6.17124">
        <ele>995.58252</ele>
        <time>2011-07-05T06:51:41Z</time>
      </trkpt>
      <trkpt lat="44.398" lon="6.17124">
        <ele>995.58252</ele>
        <time>2011-07-05T06:51:42Z</time>
      </trkpt>
      <trkpt lat="44.398" lon="6.17124">
        <ele>998.947021</ele>
        <time>2011-07-05T06:51:45Z</time>
      </trkpt>
      <trkpt lat="44.398" lon="6.17125">
        <ele>1002.311523</ele>
        <time>2011-07-05T06:51:49Z</time>
      </trkpt>
      <trkpt lat="44.398" lon="6.17125">
        <ele>1004.715088</ele>
        <time>2011-07-05T06:51:52Z</time>
      </trkpt>
      <trkpt lat="44.398" lon="6.17125">
        <ele>1008.079834</ele>
        <time>2011-07-05T06:51:56Z</time>
      </trkpt>
      <trkpt lat="44.398" lon="6.17125">
        <ele>1008.079834</ele>
        <time>2011-07-05T06:51:57Z</time>
      </trkpt>
      <trkpt lat="44.398" lon="6.17125">
        <ele>1011.444336</ele>
        <time>2011-07-05T06:52:03Z</time>
      </trkpt>
      <trkpt lat="44.398" lon="6.17125">
        <ele>1014.808838</ele>
        <time>2011-07-05T06:52:09Z</time>
      </trkpt>
      <trkpt lat="44.398" lon="6.17125">
        <ele>1018.17334</ele>
        <time>2011-07-05T06:52:19Z</time>
      </trkpt>
      <trkpt lat="44.398" lon="6.17125">
        <ele>1020.096191</ele>
        <time>2011-07-05T06:52:25Z</time>
      </trkpt>
      <trkpt lat="44.398" lon="6.17124">
        <ele>1023.460938</ele>
        <time>2011-07-05T06:52:49Z</time>
      </trkpt>
      <trkpt lat="44.398" lon="6.17125">
        <ele>1026.825439</ele>
        <time>2011-07-05T06:59:21Z</time>
      </trkpt>
      <trkpt lat="44.398" lon="6.17125">
        <ele>1024.902832</ele>
        <time>2011-07-05T06:59:33Z</time>
      </trkpt>
      <trkpt lat="44.398" lon="6.17124">
        <ele>1024.422119</ele>
        <time>2011-07-05T06:59:36Z</time>
      </trkpt>
      <trkpt lat="44.39796" lon="6.17121">
        <ele>1024.902832</ele>
        <time>2011-07-05T06:59:40Z</time>
      </trkpt>
      <trkpt lat="44.39792" lon="6.1712">
        <ele>1023.460938</ele>
        <time>2011-07-05T06:59:44Z</time>
      </trkpt>
      <trkpt lat="44.39794" lon="6.17121">
        <ele>1024.902832</ele>
        <time>2011-07-05T06:59:54Z</time>
      </trkpt>
      <trkpt lat="44.39794" lon="6.1712">
        <ele>1023.460938</ele>
        <time>2011-07-05T07:00:18Z</time>
      </trkpt>
      <trkpt lat="44.39793" lon="6.17117">
        <ele>1023.460938</ele>
        <time>2011-07-05T07:00:24Z</time>
      </trkpt>
      <trkpt lat="44.39803" lon="6.17093">
        <ele>1026.344727</ele>
        <time>2011-07-05T07:00:34Z</time>
      </trkpt>
      <trkpt lat="44.39804" lon="6.1709">
        <ele>1026.344727</ele>
        <time>2011-07-05T07:00:35Z</time>
      </trkpt>
      <trkpt lat="44.39811" lon="6.1707">
        <ele>1026.344727</ele>
        <time>2011-07-05T07:00:41Z</time>
      </trkpt>
      <trkpt lat="44.39817" lon="6.17042">
        <ele>1027.306152</ele>
        <time>2011-07-05T07:00:51Z</time>
      </trkpt>
      <trkpt lat="44.39805" lon="6.17033">
        <ele>1028.267334</ele>
        <time>2011-07-05T07:00:56Z</time>
      </trkpt>
      <trkpt lat="44.39797" lon="6.17033">
        <ele>1026.825439</ele>
        <time>2011-07-05T07:00:58Z</time>
      </trkpt>
      <trkpt lat="44.39761" lon="6.17025">
        <ele>1024.422119</ele>
        <time>2011-07-05T07:01:05Z</time>
      </trkpt>
      <trkpt lat="44.3972" lon="6.17002">
        <ele>1023.460938</ele>
        <time>2011-07-05T07:01:11Z</time>
      </trkpt>
      <trkpt lat="44.39706" lon="6.16993">
        <ele>1022.980225</ele>
        <time>2011-07-05T07:01:13Z</time>
      </trkpt>
      <trkpt lat="44.39691" lon="6.16985">
        <ele>1023.941406</ele>
        <time>2011-07-05T07:01:17Z</time>
      </trkpt>
      <trkpt lat="44.39691" lon="6.16985">
        <ele>1019.615479</ele>
        <time>2011-07-05T07:01:19Z</time>
      </trkpt>
      <trkpt lat="44.39637" lon="6.16992">
        <ele>1018.654053</ele>
        <time>2011-07-05T07:01:21Z</time>
      </trkpt>
      <trkpt lat="44.39621" lon="6.16988">
        <ele>1020.096191</ele>
        <time>2011-07-05T07:01:23Z</time>
      </trkpt>
      <trkpt lat="44.39609" lon="6.16988">
        <ele>1018.17334</ele>
        <time>2011-07-05T07:01:25Z</time>
      </trkpt>
      <trkpt lat="44.39601" lon="6.16989">
        <ele>1015.289551</ele>
        <time>2011-07-05T07:01:27Z</time>
      </trkpt>
      <trkpt lat="44.39597" lon="6.16956">
        <ele>1013.847412</ele>
        <time>2011-07-05T07:01:31Z</time>
      </trkpt>
      <trkpt lat="44.39628" lon="6.16824">
        <ele>1010.963623</ele>
        <time>2011-07-05T07:01:46Z</time>
      </trkpt>
      <trkpt lat="44.39637" lon="6.16794">
        <ele>1009.521729</ele>
        <time>2011-07-05T07:01:50Z</time>
      </trkpt>
      <trkpt lat="44.39684" lon="6.16701">
        <ele>1006.637695</ele>
        <time>2011-07-05T07:02:01Z</time>
      </trkpt>
      <trkpt lat="44.39737" lon="6.1661">
        <ele>1002.792236</ele>
        <time>2011-07-05T07:02:10Z</time>
      </trkpt>
      <trkpt lat="44.3975" lon="6.1659">
        <ele>1001.831055</ele>
        <time>2011-07-05T07:02:12Z</time>
      </trkpt>
      <trkpt lat="44.39761" lon="6.16571">
        <ele>1000.38916</ele>
        <time>2011-07-05T07:02:14Z</time>
      </trkpt>
      <trkpt lat="44.39773" lon="6.16553">
        <ele>998.947021</ele>
        <time>2011-07-05T07:02:16Z</time>
      </trkpt>
      <trkpt lat="44.39787" lon="6.16529">
        <ele>996.543945</ele>
        <time>2011-07-05T07:02:19Z</time>
      </trkpt>
      <trkpt lat="44.39795" lon="6.16516">
        <ele>995.101807</ele>
        <time>2011-07-05T07:02:21Z</time>
      </trkpt>
      <trkpt lat="44.39798" lon="6.1651">
        <ele>994.140625</ele>
        <time>2011-07-05T07:02:22Z</time>
      </trkpt>
      <trkpt lat="44.39798" lon="6.16454">
        <ele>993.659912</ele>
        <time>2011-07-05T07:02:29Z</time>
      </trkpt>
      <trkpt lat="44.39793" lon="6.16438">
        <ele>993.179199</ele>
        <time>2011-07-05T07:02:31Z</time>
      </trkpt>
      <trkpt lat="44.39806" lon="6.16384">
        <ele>993.179199</ele>
        <time>2011-07-05T07:02:38Z</time>
      </trkpt>
      <trkpt lat="44.3984" lon="6.16357">
        <ele>992.69873</ele>
        <time>2011-07-05T07:02:45Z</time>
      </trkpt>
      <trkpt lat="44.39877" lon="6.16357">
        <ele>992.218018</ele>
        <time>2011-07-05T07:02:51Z</time>
      </trkpt>
      <trkpt lat="44.39963" lon="6.16371">
        <ele>990.775879</ele>
        <time>2011-07-05T07:03:05Z</time>
      </trkpt>
      <trkpt lat="44.40092" lon="6.16363">
        <ele>988.853516</ele>
        <time>2011-07-05T07:03:27Z</time>
      </trkpt>
      <trkpt lat="44.40115" lon="6.16367">
        <ele>988.372803</ele>
        <time>2011-07-05T07:03:31Z</time>
      </trkpt>
      <trkpt lat="44.40202" lon="6.16393">
        <ele>985.008057</ele>
        <time>2011-07-05T07:03:43Z</time>
      </trkpt>
      <trkpt lat="44.40237" lon="6.16404">
        <ele>983.085205</ele>
        <time>2011-07-05T07:03:47Z</time>
      </trkpt>
      <trkpt lat="44.4031" lon="6.16431">
        <ele>980.201416</ele>
        <time>2011-07-05T07:03:55Z</time>
      </trkpt>
      <trkpt lat="44.40335" lon="6.16447">
        <ele>978.759521</ele>
        <time>2011-07-05T07:03:58Z</time>
      </trkpt>
      <trkpt lat="44.40358" lon="6.16465">
        <ele>977.798096</ele>
        <time>2011-07-05T07:04:01Z</time>
      </trkpt>
      <trkpt lat="44.40413" lon="6.16475">
        <ele>974.914307</ele>
        <time>2011-07-05T07:04:07Z</time>
      </trkpt>
      <trkpt lat="44.40438" lon="6.16492">
        <ele>972.510986</ele>
        <time>2011-07-05T07:04:10Z</time>
      </trkpt>
      <trkpt lat="44.40446" lon="6.165">
        <ele>971.549316</ele>
        <time>2011-07-05T07:04:11Z</time>
      </trkpt>
      <trkpt lat="44.40469" lon="6.16523">
        <ele>970.588135</ele>
        <time>2011-07-05T07:04:14Z</time>
      </trkpt>
      <trkpt lat="44.40513" lon="6.16538">
        <ele>967.223633</ele>
        <time>2011-07-05T07:04:19Z</time>
      </trkpt>
      <trkpt lat="44.40564" lon="6.16558">
        <ele>964.3396</ele>
        <time>2011-07-05T07:04:24Z</time>
      </trkpt>
      <trkpt lat="44.40616" lon="6.16578">
        <ele>960.494385</ele>
        <time>2011-07-05T07:04:29Z</time>
      </trkpt>
      <trkpt lat="44.40634" lon="6.16586">
        <ele>958.571777</ele>
        <time>2011-07-05T07:04:31Z</time>
      </trkpt>
      <trkpt lat="44.40664" lon="6.16632">
        <ele>956.168457</ele>
        <time>2011-07-05T07:04:36Z</time>
      </trkpt>
      <trkpt lat="44.40696" lon="6.16714">
        <ele>952.803711</ele>
        <time>2011-07-05T07:04:43Z</time>
      </trkpt>
      <trkpt lat="44.40721" lon="6.1675">
        <ele>950.881104</ele>
        <time>2011-07-05T07:04:47Z</time>
      </trkpt>
      <trkpt lat="44.40738" lon="6.16763">
        <ele>949.439209</ele>
        <time>2011-07-05T07:04:49Z</time>
      </trkpt>
      <trkpt lat="44.4076" lon="6.16789">
        <ele>947.997314</ele>
        <time>2011-07-05T07:04:52Z</time>
      </trkpt>
      <trkpt lat="44.40779" lon="6.16799">
        <ele>946.55542</ele>
        <time>2011-07-05T07:04:54Z</time>
      </trkpt>
      <trkpt lat="44.40807" lon="6.16803">
        <ele>944.632568</ele>
        <time>2011-07-05T07:04:57Z</time>
      </trkpt>
      <trkpt lat="44.4085" lon="6.16797">
        <ele>941.748779</ele>
        <time>2011-07-05T07:05:01Z</time>
      </trkpt>
      <trkpt lat="44.40873" lon="6.16796">
        <ele>940.306885</ele>
        <time>2011-07-05T07:05:03Z</time>
      </trkpt>
      <trkpt lat="44.40915" lon="6.16796">
        <ele>937.90332</ele>
        <time>2011-07-05T07:05:07Z</time>
      </trkpt>
      <trkpt lat="44.40933" lon="6.16801">
        <ele>938.384033</ele>
        <time>2011-07-05T07:05:09Z</time>
      </trkpt>
      <trkpt lat="44.40977" lon="6.16832">
        <ele>938.384033</ele>
        <time>2011-07-05T07:05:16Z</time>
      </trkpt>
      <trkpt lat="44.41016" lon="6.16856">
        <ele>938.384033</ele>
        <time>2011-07-05T07:05:25Z</time>
      </trkpt>
      <trkpt lat="44.41059" lon="6.16884">
        <ele>936.941895</ele>
        <time>2011-07-05T07:05:33Z</time>
      </trkpt>
      <trkpt lat="44.41088" lon="6.16917">
        <ele>935.019531</ele>
        <time>2011-07-05T07:05:38Z</time>
      </trkpt>
      <trkpt lat="44.41118" lon="6.16932">
        <ele>933.577393</ele>
        <time>2011-07-05T07:05:42Z</time>
      </trkpt>
      <trkpt lat="44.41127" lon="6.16932">
        <ele>933.09668</ele>
        <time>2011-07-05T07:05:43Z</time>
      </trkpt>
      <trkpt lat="44.41182" lon="6.16927">
        <ele>930.212891</ele>
        <time>2011-07-05T07:05:49Z</time>
      </trkpt>
      <trkpt lat="44.41212" lon="6.16923">
        <ele>928.770996</ele>
        <time>2011-07-05T07:05:52Z</time>
      </trkpt>
      <trkpt lat="44.41241" lon="6.16923">
        <ele>926.848389</ele>
        <time>2011-07-05T07:05:55Z</time>
      </trkpt>
      <trkpt lat="44.4128" lon="6.16934">
        <ele>924.925781</ele>
        <time>2011-07-05T07:05:59Z</time>
      </trkpt>
      <trkpt lat="44.41316" lon="6.16961">
        <ele>923.00293</ele>
        <time>2011-07-05T07:06:03Z</time>
      </trkpt>
      <trkpt lat="44.41331" lon="6.16979">
        <ele>922.522217</ele>
        <time>2011-07-05T07:06:05Z</time>
      </trkpt>
      <trkpt lat="44.41376" lon="6.17068">
        <ele>918.196289</ele>
        <time>2011-07-05T07:06:13Z</time>
      </trkpt>
      <trkpt lat="44.41387" lon="6.17092">
        <ele>917.235107</ele>
        <time>2011-07-05T07:06:15Z</time>
      </trkpt>
      <trkpt lat="44.4142" lon="6.17179">
        <ele>913.870361</ele>
        <time>2011-07-05T07:06:22Z</time>
      </trkpt>
      <trkpt lat="44.41435" lon="6.17224">
        <ele>912.428467</ele>
        <time>2011-07-05T07:06:26Z</time>
      </trkpt>
      <trkpt lat="44.41452" lon="6.17251">
        <ele>910.986572</ele>
        <time>2011-07-05T07:06:29Z</time>
      </trkpt>
      <trkpt lat="44.41467" lon="6.17266">
        <ele>910.505859</ele>
        <time>2011-07-05T07:06:31Z</time>
      </trkpt>
      <trkpt lat="44.41515" lon="6.17359">
        <ele>908.102783</ele>
        <time>2011-07-05T07:06:40Z</time>
      </trkpt>
      <trkpt lat="44.41534" lon="6.17379">
        <ele>905.699219</ele>
        <time>2011-07-05T07:06:43Z</time>
      </trkpt>
      <trkpt lat="44.41558" lon="6.17395">
        <ele>904.257324</ele>
        <time>2011-07-05T07:06:46Z</time>
      </trkpt>
      <trkpt lat="44.41575" lon="6.174">
        <ele>903.295898</ele>
        <time>2011-07-05T07:06:48Z</time>
      </trkpt>
      <trkpt lat="44.4161" lon="6.17404">
        <ele>902.334473</ele>
        <time>2011-07-05T07:06:52Z</time>
      </trkpt>
      <trkpt lat="44.41629" lon="6.17412">
        <ele>900.892578</ele>
        <time>2011-07-05T07:06:54Z</time>
      </trkpt>
      <trkpt lat="44.41667" lon="6.17425">
        <ele>897.047363</ele>
        <time>2011-07-05T07:06:58Z</time>
      </trkpt>
      <trkpt lat="44.41677" lon="6.17429">
        <ele>897.047363</ele>
        <time>2011-07-05T07:06:59Z</time>
      </trkpt>
      <trkpt lat="44.41736" lon="6.17452">
        <ele>892.72168</ele>
        <time>2011-07-05T07:07:05Z</time>
      </trkpt>
      <trkpt lat="44.41747" lon="6.17455">
        <ele>892.72168</ele>
        <time>2011-07-05T07:07:06Z</time>
      </trkpt>
      <trkpt lat="44.41792" lon="6.17465">
        <ele>889.837402</ele>
        <time>2011-07-05T07:07:10Z</time>
      </trkpt>
      <trkpt lat="44.41814" lon="6.17469">
        <ele>886.953369</ele>
        <time>2011-07-05T07:07:12Z</time>
      </trkpt>
      <trkpt lat="44.41823" lon="6.17472">
        <ele>886.953369</ele>
        <time>2011-07-05T07:07:13Z</time>
      </trkpt>
      <trkpt lat="44.4184" lon="6.17476">
        <ele>884.06958</ele>
        <time>2011-07-05T07:07:15Z</time>
      </trkpt>
      <trkpt lat="44.41862" lon="6.17481">
        <ele>882.627686</ele>
        <time>2011-07-05T07:07:18Z</time>
      </trkpt>
      <trkpt lat="44.41871" lon="6.17477">
        <ele>880.705078</ele>
        <time>2011-07-05T07:07:24Z</time>
      </trkpt>
      <trkpt lat="44.41871" lon="6.17477">
        <ele>879.262939</ele>
        <time>2011-07-05T07:07:26Z</time>
      </trkpt>
      <trkpt lat="44.41853" lon="6.17371">
        <ele>877.821045</ele>
        <time>2011-07-05T07:07:32Z</time>
      </trkpt>
      <trkpt lat="44.41848" lon="6.17354">
        <ele>877.821045</ele>
        <time>2011-07-05T07:07:33Z</time>
      </trkpt>
      <trkpt lat="44.41837" lon="6.17314">
        <ele>876.37915</ele>
        <time>2011-07-05T07:07:36Z</time>
      </trkpt>
      <trkpt lat="44.41835" lon="6.173">
        <ele>873.495117</ele>
        <time>2011-07-05T07:07:37Z</time>
      </trkpt>
      <trkpt lat="44.41833" lon="6.17285">
        <ele>873.495117</ele>
        <time>2011-07-05T07:07:38Z</time>
      </trkpt>
      <trkpt lat="44.41827" lon="6.17257">
        <ele>873.014404</ele>
        <time>2011-07-05T07:07:40Z</time>
      </trkpt>
      <trkpt lat="44.41809" lon="6.1722">
        <ele>871.091797</ele>
        <time>2011-07-05T07:07:43Z</time>
      </trkpt>
      <trkpt lat="44.41795" lon="6.17201">
        <ele>868.688477</ele>
        <time>2011-07-05T07:07:45Z</time>
      </trkpt>
      <trkpt lat="44.41789" lon="6.17192">
        <ele>867.246582</ele>
        <time>2011-07-05T07:07:46Z</time>
      </trkpt>
      <trkpt lat="44.41779" lon="6.17137">
        <ele>865.804688</ele>
        <time>2011-07-05T07:07:50Z</time>
      </trkpt>
      <trkpt lat="44.41777" lon="6.1711">
        <ele>863.881836</ele>
        <time>2011-07-05T07:07:52Z</time>
      </trkpt>
      <trkpt lat="44.41764" lon="6.17026">
        <ele>860.036621</ele>
        <time>2011-07-05T07:07:58Z</time>
      </trkpt>
      <trkpt lat="44.41761" lon="6.17011">
        <ele>860.036621</ele>
        <time>2011-07-05T07:07:59Z</time>
      </trkpt>
      <trkpt lat="44.41756" lon="6.16983">
        <ele>858.114014</ele>
        <time>2011-07-05T07:08:01Z</time>
      </trkpt>
      <trkpt lat="44.41745" lon="6.16961">
        <ele>854.749268</ele>
        <time>2011-07-05T07:08:03Z</time>
      </trkpt>
      <trkpt lat="44.41739" lon="6.16951">
        <ele>854.749268</ele>
        <time>2011-07-05T07:08:04Z</time>
      </trkpt>
      <trkpt lat="44.41695" lon="6.16884">
        <ele>852.345947</ele>
        <time>2011-07-05T07:08:11Z</time>
      </trkpt>
      <trkpt lat="44.41687" lon="6.16869">
        <ele>849.942871</ele>
        <time>2011-07-05T07:08:13Z</time>
      </trkpt>
      <trkpt lat="44.41687" lon="6.16851">
        <ele>847.539551</ele>
        <time>2011-07-05T07:08:15Z</time>
      </trkpt>
      <trkpt lat="44.41688" lon="6.16837">
        <ele>848.981445</ele>
        <time>2011-07-05T07:08:17Z</time>
      </trkpt>
      <trkpt lat="44.41714" lon="6.1683">
        <ele>848.020264</ele>
        <time>2011-07-05T07:08:22Z</time>
      </trkpt>
      <trkpt lat="44.41727" lon="6.16835">
        <ele>846.578369</ele>
        <time>2011-07-05T07:08:24Z</time>
      </trkpt>
      <trkpt lat="44.41734" lon="6.16839">
        <ele>846.097656</ele>
        <time>2011-07-05T07:08:25Z</time>
      </trkpt>
      <trkpt lat="44.41758" lon="6.16868">
        <ele>845.13623</ele>
        <time>2011-07-05T07:08:29Z</time>
      </trkpt>
      <trkpt lat="44.41768" lon="6.16884">
        <ele>845.616943</ele>
        <time>2011-07-05T07:08:31Z</time>
      </trkpt>
      <trkpt lat="44.41788" lon="6.16903">
        <ele>843.694092</ele>
        <time>2011-07-05T07:08:34Z</time>
      </trkpt>
      <trkpt lat="44.41805" lon="6.16906">
        <ele>842.252197</ele>
        <time>2011-07-05T07:08:36Z</time>
      </trkpt>
      <trkpt lat="44.41813" lon="6.16906">
        <ele>843.213379</ele>
        <time>2011-07-05T07:08:37Z</time>
      </trkpt>
      <trkpt lat="44.41883" lon="6.16905">
        <ele>840.810059</ele>
        <time>2011-07-05T07:08:48Z</time>
      </trkpt>
      <trkpt lat="44.41888" lon="6.16905">
        <ele>841.771484</ele>
        <time>2011-07-05T07:08:49Z</time>
      </trkpt>
      <trkpt lat="44.41959" lon="6.16909">
        <ele>844.175049</ele>
        <time>2011-07-05T07:09:08Z</time>
      </trkpt>
      <trkpt lat="44.4197" lon="6.16919">
        <ele>845.616943</ele>
        <time>2011-07-05T07:09:13Z</time>
      </trkpt>
      <trkpt lat="44.41981" lon="6.16941">
        <ele>847.539551</ele>
        <time>2011-07-05T07:09:22Z</time>
      </trkpt>
      <trkpt lat="44.42012" lon="6.16994">
        <ele>848.500732</ele>
        <time>2011-07-05T07:09:45Z</time>
      </trkpt>
      <trkpt lat="44.42042" lon="6.17011">
        <ele>850.423584</ele>
        <time>2011-07-05T07:10:01Z</time>
      </trkpt>
      <trkpt lat="44.42044" lon="6.17013">
        <ele>850.423584</ele>
        <time>2011-07-05T07:10:02Z</time>
      </trkpt>
      <trkpt lat="44.42052" lon="6.17051">
        <ele>848.981445</ele>
        <time>2011-07-05T07:10:10Z</time>
      </trkpt>
      <trkpt lat="44.42045" lon="6.1709">
        <ele>848.500732</ele>
        <time>2011-07-05T07:10:15Z</time>
      </trkpt>
      <trkpt lat="44.42047" lon="6.17127">
        <ele>847.539551</ele>
        <time>2011-07-05T07:10:19Z</time>
      </trkpt>
      <trkpt lat="44.42043" lon="6.17167">
        <ele>846.097656</ele>
        <time>2011-07-05T07:10:23Z</time>
      </trkpt>
      <trkpt lat="44.4205" lon="6.17211">
        <ele>844.655518</ele>
        <time>2011-07-05T07:10:27Z</time>
      </trkpt>
      <trkpt lat="44.42075" lon="6.1726">
        <ele>842.73291</ele>
        <time>2011-07-05T07:10:32Z</time>
      </trkpt>
      <trkpt lat="44.42098" lon="6.17296">
        <ele>840.810059</ele>
        <time>2011-07-05T07:10:36Z</time>
      </trkpt>
      <trkpt lat="44.42105" lon="6.17318">
        <ele>838.406982</ele>
        <time>2011-07-05T07:10:39Z</time>
      </trkpt>
      <trkpt lat="44.42102" lon="6.17333">
        <ele>837.92627</ele>
        <time>2011-07-05T07:10:41Z</time>
      </trkpt>
      <trkpt lat="44.42098" lon="6.17349">
        <ele>837.92627</ele>
        <time>2011-07-05T07:10:43Z</time>
      </trkpt>
      <trkpt lat="44.42101" lon="6.17389">
        <ele>836.484375</ele>
        <time>2011-07-05T07:10:47Z</time>
      </trkpt>
      <trkpt lat="44.42107" lon="6.17408">
        <ele>836.003662</ele>
        <time>2011-07-05T07:10:49Z</time>
      </trkpt>
      <trkpt lat="44.42111" lon="6.17455">
        <ele>833.600342</ele>
        <time>2011-07-05T07:10:53Z</time>
      </trkpt>
      <trkpt lat="44.42113" lon="6.17468">
        <ele>832.63916</ele>
        <time>2011-07-05T07:10:54Z</time>
      </trkpt>
      <trkpt lat="44.42132" lon="6.17508">
        <ele>830.23584</ele>
        <time>2011-07-05T07:10:58Z</time>
      </trkpt>
      <trkpt lat="44.42135" lon="6.17528">
        <ele>829.274414</ele>
        <time>2011-07-05T07:11:00Z</time>
      </trkpt>
      <trkpt lat="44.42131" lon="6.17547">
        <ele>828.793945</ele>
        <time>2011-07-05T07:11:02Z</time>
      </trkpt>
      <trkpt lat="44.42126" lon="6.17567">
        <ele>827.832275</ele>
        <time>2011-07-05T07:11:04Z</time>
      </trkpt>
      <trkpt lat="44.42133" lon="6.17624">
        <ele>825.428955</ele>
        <time>2011-07-05T07:11:09Z</time>
      </trkpt>
      <trkpt lat="44.42166" lon="6.17713">
        <ele>822.545166</ele>
        <time>2011-07-05T07:11:17Z</time>
      </trkpt>
      <trkpt lat="44.42167" lon="6.1778">
        <ele>820.141846</ele>
        <time>2011-07-05T07:11:23Z</time>
      </trkpt>
      <trkpt lat="44.42162" lon="6.17868">
        <ele>817.258057</ele>
        <time>2011-07-05T07:11:30Z</time>
      </trkpt>
      <trkpt lat="44.42156" lon="6.17902">
        <ele>816.296631</ele>
        <time>2011-07-05T07:11:33Z</time>
      </trkpt>
      <trkpt lat="44.42142" lon="6.17936">
        <ele>813.412842</ele>
        <time>2011-07-05T07:11:37Z</time>
      </trkpt>
      <trkpt lat="44.42138" lon="6.17945">
        <ele>812.932129</ele>
        <time>2011-07-05T07:11:38Z</time>
      </trkpt>
      <trkpt lat="44.42139" lon="6.18003">
        <ele>812.932129</ele>
        <time>2011-07-05T07:11:44Z</time>
      </trkpt>
      <trkpt lat="44.42137" lon="6.18098">
        <ele>809.567383</ele>
        <time>2011-07-05T07:11:53Z</time>
      </trkpt>
      <trkpt lat="44.42134" lon="6.18176">
        <ele>806.202637</ele>
        <time>2011-07-05T07:11:59Z</time>
      </trkpt>
      <trkpt lat="44.42134" lon="6.18189">
        <ele>806.202637</ele>
        <time>2011-07-05T07:12:00Z</time>
      </trkpt>
      <trkpt lat="44.42133" lon="6.18218">
        <ele>804.280273</ele>
        <time>2011-07-05T07:12:02Z</time>
      </trkpt>
      <trkpt lat="44.42133" lon="6.18246">
        <ele>802.838135</ele>
        <time>2011-07-05T07:12:04Z</time>
      </trkpt>
      <trkpt lat="44.42131" lon="6.18283">
        <ele>800.915527</ele>
        <time>2011-07-05T07:12:07Z</time>
      </trkpt>
      <trkpt lat="44.42149" lon="6.18321">
        <ele>799.473633</ele>
        <time>2011-07-05T07:12:12Z</time>
      </trkpt>
      <trkpt lat="44.42202" lon="6.18374">
        <ele>799.954346</ele>
        <time>2011-07-05T07:12:24Z</time>
      </trkpt>
      <trkpt lat="44.42252" lon="6.18483">
        <ele>799.473633</ele>
        <time>2011-07-05T07:12:44Z</time>
      </trkpt>
      <trkpt lat="44.42249" lon="6.1854">
        <ele>798.99292</ele>
        <time>2011-07-05T07:12:53Z</time>
      </trkpt>
      <trkpt lat="44.42247" lon="6.18559">
        <ele>799.473633</ele>
        <time>2011-07-05T07:12:56Z</time>
      </trkpt>
      <trkpt lat="44.42247" lon="6.18572">
        <ele>799.473633</ele>
        <time>2011-07-05T07:12:58Z</time>
      </trkpt>
      <trkpt lat="44.42258" lon="6.18597">
        <ele>799.954346</ele>
        <time>2011-07-05T07:13:03Z</time>
      </trkpt>
      <trkpt lat="44.42285" lon="6.18603">
        <ele>799.954346</ele>
        <time>2011-07-05T07:13:08Z</time>
      </trkpt>
      <trkpt lat="44.42347" lon="6.18613">
        <ele>801.39624</ele>
        <time>2011-07-05T07:13:28Z</time>
      </trkpt>
      <trkpt lat="44.42354" lon="6.18623">
        <ele>801.39624</ele>
        <time>2011-07-05T07:13:34Z</time>
      </trkpt>
      <trkpt lat="44.42351" lon="6.18636">
        <ele>802.838135</ele>
        <time>2011-07-05T07:13:40Z</time>
      </trkpt>
      <trkpt lat="44.42317" lon="6.18676">
        <ele>805.722168</ele>
        <time>2011-07-05T07:14:02Z</time>
      </trkpt>
      <trkpt lat="44.42307" lon="6.18701">
        <ele>807.644775</ele>
        <time>2011-07-05T07:14:12Z</time>
      </trkpt>
      <trkpt lat="44.42289" lon="6.18757">
        <ele>809.567383</ele>
        <time>2011-07-05T07:14:33Z</time>
      </trkpt>
      <trkpt lat="44.4228" lon="6.18789">
        <ele>810.528564</ele>
        <time>2011-07-05T07:14:43Z</time>
      </trkpt>
      <trkpt lat="44.42267" lon="6.1887">
        <ele>812.932129</ele>
        <time>2011-07-05T07:15:08Z</time>
      </trkpt>
      <trkpt lat="44.42254" lon="6.1895">
        <ele>814.854736</ele>
        <time>2011-07-05T07:15:34Z</time>
      </trkpt>
      <trkpt lat="44.42253" lon="6.19008">
        <ele>818.219238</ele>
        <time>2011-07-05T07:15:54Z</time>
      </trkpt>
      <trkpt lat="44.42245" lon="6.19065">
        <ele>820.141846</ele>
        <time>2011-07-05T07:16:15Z</time>
      </trkpt>
      <trkpt lat="44.42208" lon="6.19116">
        <ele>821.58374</ele>
        <time>2011-07-05T07:16:38Z</time>
      </trkpt>
      <trkpt lat="44.42175" lon="6.19167">
        <ele>823.506592</ele>
        <time>2011-07-05T07:17:01Z</time>
      </trkpt>
      <trkpt lat="44.4216" lon="6.19236">
        <ele>825.428955</ele>
        <time>2011-07-05T07:17:24Z</time>
      </trkpt>
      <trkpt lat="44.42164" lon="6.19323">
        <ele>828.793945</ele>
        <time>2011-07-05T07:17:51Z</time>
      </trkpt>
      <trkpt lat="44.42196" lon="6.19382">
        <ele>829.274414</ele>
        <time>2011-07-05T07:18:11Z</time>
      </trkpt>
      <trkpt lat="44.42238" lon="6.19478">
        <ele>830.716553</ele>
        <time>2011-07-05T07:18:40Z</time>
      </trkpt>
      <trkpt lat="44.42271" lon="6.19555">
        <ele>832.158447</ele>
        <time>2011-07-05T07:19:04Z</time>
      </trkpt>
      <trkpt lat="44.42295" lon="6.19611">
        <ele>834.561768</ele>
        <time>2011-07-05T07:19:23Z</time>
      </trkpt>
      <trkpt lat="44.42322" lon="6.19677">
        <ele>837.445557</ele>
        <time>2011-07-05T07:19:47Z</time>
      </trkpt>
      <trkpt lat="44.42354" lon="6.19744">
        <ele>839.848877</ele>
        <time>2011-07-05T07:20:13Z</time>
      </trkpt>
      <trkpt lat="44.42395" lon="6.19798">
        <ele>840.32959</ele>
        <time>2011-07-05T07:20:33Z</time>
      </trkpt>
      <trkpt lat="44.42445" lon="6.1982">
        <ele>842.252197</ele>
        <time>2011-07-05T07:20:54Z</time>
      </trkpt>
      <trkpt lat="44.42476" lon="6.19782">
        <ele>843.213379</ele>
        <time>2011-07-05T07:21:12Z</time>
      </trkpt>
      <trkpt lat="44.4252" lon="6.19729">
        <ele>846.097656</ele>
        <time>2011-07-05T07:21:39Z</time>
      </trkpt>
      <trkpt lat="44.42569" lon="6.19695">
        <ele>848.020264</ele>
        <time>2011-07-05T07:22:04Z</time>
      </trkpt>
      <trkpt lat="44.42612" lon="6.19675">
        <ele>848.981445</ele>
        <time>2011-07-05T07:22:24Z</time>
      </trkpt>
      <trkpt lat="44.42662" lon="6.19668">
        <ele>851.384766</ele>
        <time>2011-07-05T07:22:48Z</time>
      </trkpt>
      <trkpt lat="44.42708" lon="6.19689">
        <ele>853.307373</ele>
        <time>2011-07-05T07:23:10Z</time>
      </trkpt>
      <trkpt lat="44.4274" lon="6.19716">
        <ele>856.671875</ele>
        <time>2011-07-05T07:23:30Z</time>
      </trkpt>
      <trkpt lat="44.42776" lon="6.19748">
        <ele>860.036621</ele>
        <time>2011-07-05T07:23:53Z</time>
      </trkpt>
      <trkpt lat="44.42808" lon="6.19778">
        <ele>861.47876</ele>
        <time>2011-07-05T07:24:16Z</time>
      </trkpt>
      <trkpt lat="44.42814" lon="6.19782">
        <ele>862.920654</ele>
        <time>2011-07-05T07:24:19Z</time>
      </trkpt>
      <trkpt lat="44.42839" lon="6.19812">
        <ele>862.439941</ele>
        <time>2011-07-05T07:24:30Z</time>
      </trkpt>
      <trkpt lat="44.42859" lon="6.19841">
        <ele>861.959473</ele>
        <time>2011-07-05T07:24:37Z</time>
      </trkpt>
      <trkpt lat="44.42928" lon="6.1993">
        <ele>861.47876</ele>
        <time>2011-07-05T07:24:57Z</time>
      </trkpt>
      <trkpt lat="44.4295" lon="6.19952">
        <ele>860.036621</ele>
        <time>2011-07-05T07:25:02Z</time>
      </trkpt>
      <trkpt lat="44.4303" lon="6.20012">
        <ele>857.633301</ele>
        <time>2011-07-05T07:25:18Z</time>
      </trkpt>
      <trkpt lat="44.4308" lon="6.20052">
        <ele>855.22998</ele>
        <time>2011-07-05T07:25:25Z</time>
      </trkpt>
      <trkpt lat="44.43121" lon="6.20104">
        <ele>853.307373</ele>
        <time>2011-07-05T07:25:31Z</time>
      </trkpt>
      <trkpt lat="44.43146" lon="6.20116">
        <ele>848.981445</ele>
        <time>2011-07-05T07:25:34Z</time>
      </trkpt>
      <trkpt lat="44.43154" lon="6.20119">
        <ele>848.981445</ele>
        <time>2011-07-05T07:25:35Z</time>
      </trkpt>
      <trkpt lat="44.43172" lon="6.2012">
        <ele>850.423584</ele>
        <time>2011-07-05T07:25:37Z</time>
      </trkpt>
      <trkpt lat="44.4319" lon="6.20121">
        <ele>848.020264</ele>
        <time>2011-07-05T07:25:39Z</time>
      </trkpt>
      <trkpt lat="44.43208" lon="6.20122">
        <ele>848.981445</ele>
        <time>2011-07-05T07:25:41Z</time>
      </trkpt>
      <trkpt lat="44.4329" lon="6.20126">
        <ele>846.097656</ele>
        <time>2011-07-05T07:25:50Z</time>
      </trkpt>
      <trkpt lat="44.43306" lon="6.2013">
        <ele>843.694092</ele>
        <time>2011-07-05T07:25:52Z</time>
      </trkpt>
      <trkpt lat="44.43332" lon="6.20148">
        <ele>840.810059</ele>
        <time>2011-07-05T07:25:56Z</time>
      </trkpt>
      <trkpt lat="44.43353" lon="6.20164">
        <ele>839.848877</ele>
        <time>2011-07-05T07:25:59Z</time>
      </trkpt>
      <trkpt lat="44.43425" lon="6.20216">
        <ele>836.003662</ele>
        <time>2011-07-05T07:26:08Z</time>
      </trkpt>
      <trkpt lat="44.43433" lon="6.20223">
        <ele>836.003662</ele>
        <time>2011-07-05T07:26:09Z</time>
      </trkpt>
      <trkpt lat="44.43464" lon="6.20251">
        <ele>832.158447</ele>
        <time>2011-07-05T07:26:13Z</time>
      </trkpt>
      <trkpt lat="44.4347" lon="6.20258">
        <ele>832.158447</ele>
        <time>2011-07-05T07:26:14Z</time>
      </trkpt>
      <trkpt lat="44.43483" lon="6.20262">
        <ele>830.716553</ele>
        <time>2011-07-05T07:26:16Z</time>
      </trkpt>
      <trkpt lat="44.43493" lon="6.20264">
        <ele>827.351807</ele>
        <time>2011-07-05T07:26:18Z</time>
      </trkpt>
      <trkpt lat="44.43498" lon="6.20262">
        <ele>827.351807</ele>
        <time>2011-07-05T07:26:19Z</time>
      </trkpt>
      <trkpt lat="44.43506" lon="6.20258">
        <ele>825.909668</ele>
        <time>2011-07-05T07:26:21Z</time>
      </trkpt>
      <trkpt lat="44.4352" lon="6.20235">
        <ele>823.506592</ele>
        <time>2011-07-05T07:26:26Z</time>
      </trkpt>
      <trkpt lat="44.43529" lon="6.20213">
        <ele>822.064453</ele>
        <time>2011-07-05T07:26:30Z</time>
      </trkpt>
      <trkpt lat="44.43528" lon="6.2021">
        <ele>822.064453</ele>
        <time>2011-07-05T07:26:31Z</time>
      </trkpt>
      <trkpt lat="44.43527" lon="6.20192">
        <ele>821.58374</ele>
        <time>2011-07-05T07:26:34Z</time>
      </trkpt>
      <trkpt lat="44.43538" lon="6.20183">
        <ele>822.545166</ele>
        <time>2011-07-05T07:26:41Z</time>
      </trkpt>
      <trkpt lat="44.43557" lon="6.20172">
        <ele>825.909668</ele>
        <time>2011-07-05T07:26:54Z</time>
      </trkpt>
      <trkpt lat="44.4356" lon="6.20173">
        <ele>826.390381</ele>
        <time>2011-07-05T07:26:57Z</time>
      </trkpt>
      <trkpt lat="44.43565" lon="6.20174">
        <ele>826.390381</ele>
        <time>2011-07-05T07:27:01Z</time>
      </trkpt>
      <trkpt lat="44.43574" lon="6.20185">
        <ele>829.274414</ele>
        <time>2011-07-05T07:27:15Z</time>
      </trkpt>
      <trkpt lat="44.43574" lon="6.20185">
        <ele>831.197266</ele>
        <time>2011-07-05T07:27:23Z</time>
      </trkpt>
      <trkpt lat="44.4361" lon="6.20201">
        <ele>832.63916</ele>
        <time>2011-07-05T07:27:43Z</time>
      </trkpt>
      <trkpt lat="44.43615" lon="6.20199">
        <ele>834.081055</ele>
        <time>2011-07-05T07:27:47Z</time>
      </trkpt>
      <trkpt lat="44.43616" lon="6.20198">
        <ele>832.63916</ele>
        <time>2011-07-05T07:27:49Z</time>
      </trkpt>
      <trkpt lat="44.43616" lon="6.20198">
        <ele>835.522949</ele>
        <time>2011-07-05T07:27:53Z</time>
      </trkpt>
      <trkpt lat="44.43628" lon="6.20192">
        <ele>836.964844</ele>
        <time>2011-07-05T07:28:00Z</time>
      </trkpt>
      <trkpt lat="44.43628" lon="6.20192">
        <ele>835.522949</ele>
        <time>2011-07-05T07:28:03Z</time>
      </trkpt>
      <trkpt lat="44.43628" lon="6.20192">
        <ele>836.484375</ele>
        <time>2011-07-05T07:28:05Z</time>
      </trkpt>
      <trkpt lat="44.43628" lon="6.20192">
        <ele>836.964844</ele>
        <time>2011-07-05T07:28:10Z</time>
      </trkpt>
      <trkpt lat="44.43628" lon="6.20192">
        <ele>837.92627</ele>
        <time>2011-07-05T07:28:13Z</time>
      </trkpt>
      <trkpt lat="44.43628" lon="6.20192">
        <ele>841.290771</ele>
        <time>2011-07-05T07:28:29Z</time>
      </trkpt>
      <trkpt lat="44.43628" lon="6.20192">
        <ele>842.252197</ele>
        <time>2011-07-05T07:28:34Z</time>
      </trkpt>
      <trkpt lat="44.43628" lon="6.20192">
        <ele>843.694092</ele>
        <time>2011-07-05T07:28:44Z</time>
      </trkpt>
      <trkpt lat="44.43628" lon="6.20192">
        <ele>845.13623</ele>
        <time>2011-07-05T07:28:51Z</time>
      </trkpt>
      <trkpt lat="44.43628" lon="6.20192">
        <ele>846.578369</ele>
        <time>2011-07-05T07:28:59Z</time>
      </trkpt>
      <trkpt lat="44.43628" lon="6.20192">
        <ele>849.942871</ele>
        <time>2011-07-05T07:29:17Z</time>
      </trkpt>
      <trkpt lat="44.43628" lon="6.20192">
        <ele>850.423584</ele>
        <time>2011-07-05T07:29:25Z</time>
      </trkpt>
      <trkpt lat="44.43718" lon="6.20171">
        <ele>851.384766</ele>
        <time>2011-07-05T07:29:32Z</time>
      </trkpt>
      <trkpt lat="44.43741" lon="6.2017">
        <ele>854.268799</ele>
        <time>2011-07-05T07:29:53Z</time>
      </trkpt>
      <trkpt lat="44.43767" lon="6.20159">
        <ele>854.749268</ele>
        <time>2011-07-05T07:30:10Z</time>
      </trkpt>
      <trkpt lat="44.43784" lon="6.20149">
        <ele>854.268799</ele>
        <time>2011-07-05T07:30:25Z</time>
      </trkpt>
      <trkpt lat="44.43784" lon="6.20149">
        <ele>854.749268</ele>
        <time>2011-07-05T07:30:49Z</time>
      </trkpt>
      <trkpt lat="44.43784" lon="6.20149">
        <ele>852.82666</ele>
        <time>2011-07-05T07:31:12Z</time>
      </trkpt>
      <trkpt lat="44.43784" lon="6.20149">
        <ele>853.307373</ele>
        <time>2011-07-05T07:31:23Z</time>
      </trkpt>
      <trkpt lat="44.43802" lon="6.20121">
        <ele>852.345947</ele>
        <time>2011-07-05T07:31:32Z</time>
      </trkpt>
      <trkpt lat="44.43816" lon="6.20123">
        <ele>853.788086</ele>
        <time>2011-07-05T07:31:38Z</time>
      </trkpt>
      <trkpt lat="44.43843" lon="6.20131">
        <ele>856.191162</ele>
        <time>2011-07-05T07:31:58Z</time>
      </trkpt>
      <trkpt lat="44.4386" lon="6.20119">
        <ele>858.114014</ele>
        <time>2011-07-05T07:32:11Z</time>
      </trkpt>
      <trkpt lat="44.43874" lon="6.2011">
        <ele>861.47876</ele>
        <time>2011-07-05T07:32:24Z</time>
      </trkpt>
      <trkpt lat="44.43894" lon="6.20086">
        <ele>862.920654</ele>
        <time>2011-07-05T07:32:43Z</time>
      </trkpt>
      <trkpt lat="44.43927" lon="6.20057">
        <ele>863.881836</ele>
        <time>2011-07-05T07:33:05Z</time>
      </trkpt>
      <trkpt lat="44.43968" lon="6.20034">
        <ele>865.323975</ele>
        <time>2011-07-05T07:33:27Z</time>
      </trkpt>
      <trkpt lat="44.44006" lon="6.20016">
        <ele>866.765869</ele>
        <time>2011-07-05T07:33:48Z</time>
      </trkpt>
      <trkpt lat="44.4404" lon="6.19984">
        <ele>865.804688</ele>
        <time>2011-07-05T07:34:00Z</time>
      </trkpt>
      <trkpt lat="44.44049" lon="6.19967">
        <ele>864.362549</ele>
        <time>2011-07-05T07:34:03Z</time>
      </trkpt>
      <trkpt lat="44.44055" lon="6.19945">
        <ele>863.401367</ele>
        <time>2011-07-05T07:34:06Z</time>
      </trkpt>
      <trkpt lat="44.44061" lon="6.19912">
        <ele>861.47876</ele>
        <time>2011-07-05T07:34:10Z</time>
      </trkpt>
      <trkpt lat="44.44062" lon="6.19895">
        <ele>859.555908</ele>
        <time>2011-07-05T07:34:12Z</time>
      </trkpt>
      <trkpt lat="44.44062" lon="6.19878">
        <ele>858.594482</ele>
        <time>2011-07-05T07:34:14Z</time>
      </trkpt>
      <trkpt lat="44.44058" lon="6.19846">
        <ele>855.710693</ele>
        <time>2011-07-05T07:34:18Z</time>
      </trkpt>
      <trkpt lat="44.44079" lon="6.19825">
        <ele>855.710693</ele>
        <time>2011-07-05T07:34:26Z</time>
      </trkpt>
      <trkpt lat="44.44087" lon="6.19836">
        <ele>856.191162</ele>
        <time>2011-07-05T07:34:29Z</time>
      </trkpt>
      <trkpt lat="44.44117" lon="6.19846">
        <ele>858.114014</ele>
        <time>2011-07-05T07:34:43Z</time>
      </trkpt>
      <trkpt lat="44.44151" lon="6.19838">
        <ele>858.594482</ele>
        <time>2011-07-05T07:34:59Z</time>
      </trkpt>
      <trkpt lat="44.44175" lon="6.19834">
        <ele>861.47876</ele>
        <time>2011-07-05T07:35:16Z</time>
      </trkpt>
      <trkpt lat="44.44209" lon="6.19821">
        <ele>864.362549</ele>
        <time>2011-07-05T07:35:41Z</time>
      </trkpt>
      <trkpt lat="44.44238" lon="6.19803">
        <ele>866.765869</ele>
        <time>2011-07-05T07:36:03Z</time>
      </trkpt>
      <trkpt lat="44.44259" lon="6.19775">
        <ele>870.130371</ele>
        <time>2011-07-05T07:36:26Z</time>
      </trkpt>
      <trkpt lat="44.44266" lon="6.19744">
        <ele>872.533691</ele>
        <time>2011-07-05T07:36:43Z</time>
      </trkpt>
      <trkpt lat="44.4427" lon="6.19679">
        <ele>872.533691</ele>
        <time>2011-07-05T07:37:05Z</time>
      </trkpt>
      <trkpt lat="44.44272" lon="6.19641">
        <ele>871.091797</ele>
        <time>2011-07-05T07:37:11Z</time>
      </trkpt>
      <trkpt lat="44.44272" lon="6.1962">
        <ele>870.130371</ele>
        <time>2011-07-05T07:37:14Z</time>
      </trkpt>
      <trkpt lat="44.44259" lon="6.19605">
        <ele>869.169189</ele>
        <time>2011-07-05T07:37:18Z</time>
      </trkpt>
      <trkpt lat="44.44259" lon="6.19572">
        <ele>868.688477</ele>
        <time>2011-07-05T07:37:23Z</time>
      </trkpt>
      <trkpt lat="44.44242" lon="6.19518">
        <ele>868.207764</ele>
        <time>2011-07-05T07:37:33Z</time>
      </trkpt>
      <trkpt lat="44.44258" lon="6.19508">
        <ele>868.688477</ele>
        <time>2011-07-05T07:37:40Z</time>
      </trkpt>
      <trkpt lat="44.44284" lon="6.19502">
        <ele>870.611084</ele>
        <time>2011-07-05T07:37:56Z</time>
      </trkpt>
      <trkpt lat="44.44277" lon="6.19467">
        <ele>872.052979</ele>
        <time>2011-07-05T07:38:11Z</time>
      </trkpt>
      <trkpt lat="44.44286" lon="6.19456">
        <ele>873.014404</ele>
        <time>2011-07-05T07:38:18Z</time>
      </trkpt>
      <trkpt lat="44.44319" lon="6.19451">
        <ele>876.37915</ele>
        <time>2011-07-05T07:38:38Z</time>
      </trkpt>
      <trkpt lat="44.44323" lon="6.1945">
        <ele>876.859863</ele>
        <time>2011-07-05T07:38:53Z</time>
      </trkpt>
      <trkpt lat="44.44323" lon="6.1945">
        <ele>875.41748</ele>
        <time>2011-07-05T07:39:05Z</time>
      </trkpt>
      <trkpt lat="44.44354" lon="6.1944">
        <ele>874.937012</ele>
        <time>2011-07-05T07:39:17Z</time>
      </trkpt>
      <trkpt lat="44.44375" lon="6.19408">
        <ele>873.495117</ele>
        <time>2011-07-05T07:39:27Z</time>
      </trkpt>
      <trkpt lat="44.44395" lon="6.19381">
        <ele>875.898193</ele>
        <time>2011-07-05T07:39:38Z</time>
      </trkpt>
      <trkpt lat="44.44407" lon="6.19376">
        <ele>876.37915</ele>
        <time>2011-07-05T07:39:45Z</time>
      </trkpt>
      <trkpt lat="44.44424" lon="6.19367">
        <ele>874.937012</ele>
        <time>2011-07-05T07:39:55Z</time>
      </trkpt>
      <trkpt lat="44.44432" lon="6.19361">
        <ele>877.821045</ele>
        <time>2011-07-05T07:40:00Z</time>
      </trkpt>
      <trkpt lat="44.44435" lon="6.19358">
        <ele>875.898193</ele>
        <time>2011-07-05T07:40:02Z</time>
      </trkpt>
      <trkpt lat="44.44458" lon="6.19342">
        <ele>879.262939</ele>
        <time>2011-07-05T07:40:17Z</time>
      </trkpt>
      <trkpt lat="44.44462" lon="6.19339">
        <ele>880.705078</ele>
        <time>2011-07-05T07:40:20Z</time>
      </trkpt>
      <trkpt lat="44.44494" lon="6.19335">
        <ele>884.06958</ele>
        <time>2011-07-05T07:40:40Z</time>
      </trkpt>
      <trkpt lat="44.44534" lon="6.19359">
        <ele>885.511475</ele>
        <time>2011-07-05T07:41:05Z</time>
      </trkpt>
      <trkpt lat="44.44562" lon="6.1934">
        <ele>885.511475</ele>
        <time>2011-07-05T07:41:18Z</time>
      </trkpt>
      <trkpt lat="44.44566" lon="6.19335">
        <ele>885.511475</ele>
        <time>2011-07-05T07:41:19Z</time>
      </trkpt>
      <trkpt lat="44.44591" lon="6.19314">
        <ele>884.06958</ele>
        <time>2011-07-05T07:41:25Z</time>
      </trkpt>
      <trkpt lat="44.44611" lon="6.19279">
        <ele>881.185791</ele>
        <time>2011-07-05T07:41:32Z</time>
      </trkpt>
      <trkpt lat="44.44622" lon="6.19248">
        <ele>878.782471</ele>
        <time>2011-07-05T07:41:37Z</time>
      </trkpt>
      <trkpt lat="44.44631" lon="6.19236">
        <ele>877.340576</ele>
        <time>2011-07-05T07:41:40Z</time>
      </trkpt>
      <trkpt lat="44.44647" lon="6.19242">
        <ele>876.859863</ele>
        <time>2011-07-05T07:41:47Z</time>
      </trkpt>
      <trkpt lat="44.44666" lon="6.19274">
        <ele>879.262939</ele>
        <time>2011-07-05T07:42:05Z</time>
      </trkpt>
      <trkpt lat="44.4468" lon="6.19301">
        <ele>882.627686</ele>
        <time>2011-07-05T07:42:24Z</time>
      </trkpt>
      <trkpt lat="44.44685" lon="6.19312">
        <ele>883.588867</ele>
        <time>2011-07-05T07:42:31Z</time>
      </trkpt>
      <trkpt lat="44.4469" lon="6.19315">
        <ele>884.550293</ele>
        <time>2011-07-05T07:42:35Z</time>
      </trkpt>
      <trkpt lat="44.44697" lon="6.19303">
        <ele>885.511475</ele>
        <time>2011-07-05T07:42:43Z</time>
      </trkpt>
      <trkpt lat="44.44694" lon="6.19271">
        <ele>888.876221</ele>
        <time>2011-07-05T07:43:01Z</time>
      </trkpt>
      <trkpt lat="44.44696" lon="6.19238">
        <ele>891.76001</ele>
        <time>2011-07-05T07:43:20Z</time>
      </trkpt>
      <trkpt lat="44.44696" lon="6.19234">
        <ele>892.72168</ele>
        <time>2011-07-05T07:43:23Z</time>
      </trkpt>
      <trkpt lat="44.44709" lon="6.19228">
        <ele>892.72168</ele>
        <time>2011-07-05T07:43:44Z</time>
      </trkpt>
      <trkpt lat="44.44709" lon="6.19228">
        <ele>892.240967</ele>
        <time>2011-07-05T07:44:45Z</time>
      </trkpt>
      <trkpt lat="44.44693" lon="6.19216">
        <ele>892.72168</ele>
        <time>2011-07-05T07:45:02Z</time>
      </trkpt>
      <trkpt lat="44.44685" lon="6.1919">
        <ele>893.682861</ele>
        <time>2011-07-05T07:45:30Z</time>
      </trkpt>
      <trkpt lat="44.44677" lon="6.19171">
        <ele>896.566895</ele>
        <time>2011-07-05T07:45:47Z</time>
      </trkpt>
      <trkpt lat="44.44677" lon="6.19171">
        <ele>896.566895</ele>
        <time>2011-07-05T07:45:55Z</time>
      </trkpt>
      <trkpt lat="44.44677" lon="6.19171">
        <ele>898.969971</ele>
        <time>2011-07-05T07:46:12Z</time>
      </trkpt>
      <trkpt lat="44.44677" lon="6.19171">
        <ele>898.008789</ele>
        <time>2011-07-05T07:46:23Z</time>
      </trkpt>
      <trkpt lat="44.44677" lon="6.19171">
        <ele>898.489258</ele>
        <time>2011-07-05T07:46:44Z</time>
      </trkpt>
      <trkpt lat="44.4467" lon="6.19132">
        <ele>899.931396</ele>
        <time>2011-07-05T07:46:50Z</time>
      </trkpt>
      <trkpt lat="44.44666" lon="6.19098">
        <ele>898.969971</ele>
        <time>2011-07-05T07:47:05Z</time>
      </trkpt>
      <trkpt lat="44.44653" lon="6.19067">
        <ele>902.334473</ele>
        <time>2011-07-05T07:47:23Z</time>
      </trkpt>
      <trkpt lat="44.4464" lon="6.19039">
        <ele>906.179688</ele>
        <time>2011-07-05T07:47:40Z</time>
      </trkpt>
      <trkpt lat="44.44635" lon="6.19029">
        <ele>907.141113</ele>
        <time>2011-07-05T07:47:47Z</time>
      </trkpt>
      <trkpt lat="44.44614" lon="6.18991">
        <ele>909.544678</ele>
        <time>2011-07-05T07:48:12Z</time>
      </trkpt>
      <trkpt lat="44.44591" lon="6.18953">
        <ele>911.467285</ele>
        <time>2011-07-05T07:48:35Z</time>
      </trkpt>
      <trkpt lat="44.44575" lon="6.18916">
        <ele>913.870361</ele>
        <time>2011-07-05T07:48:57Z</time>
      </trkpt>
      <trkpt lat="44.44563" lon="6.18896">
        <ele>917.235107</ele>
        <time>2011-07-05T07:49:13Z</time>
      </trkpt>
      <trkpt lat="44.44563" lon="6.18896">
        <ele>916.754395</ele>
        <time>2011-07-05T07:50:21Z</time>
      </trkpt>
      <trkpt lat="44.44563" lon="6.18896">
        <ele>916.754395</ele>
        <time>2011-07-05T07:50:55Z</time>
      </trkpt>
      <trkpt lat="44.44563" lon="6.18896">
        <ele>916.754395</ele>
        <time>2011-07-05T07:50:56Z</time>
      </trkpt>
      <trkpt lat="44.44551" lon="6.18849">
        <ele>917.715576</ele>
        <time>2011-07-05T07:51:13Z</time>
      </trkpt>
      <trkpt lat="44.44539" lon="6.18811">
        <ele>917.715576</ele>
        <time>2011-07-05T07:51:29Z</time>
      </trkpt>
      <trkpt lat="44.44534" lon="6.18796">
        <ele>918.196289</ele>
        <time>2011-07-05T07:51:51Z</time>
      </trkpt>
      <trkpt lat="44.44516" lon="6.18786">
        <ele>915.793213</ele>
        <time>2011-07-05T07:51:57Z</time>
      </trkpt>
      <trkpt lat="44.44478" lon="6.18755">
        <ele>913.870361</ele>
        <time>2011-07-05T07:52:09Z</time>
      </trkpt>
      <trkpt lat="44.44469" lon="6.18745">
        <ele>912.90918</ele>
        <time>2011-07-05T07:52:13Z</time>
      </trkpt>
      <trkpt lat="44.4447" lon="6.18738">
        <ele>911.467285</ele>
        <time>2011-07-05T07:52:16Z</time>
      </trkpt>
      <trkpt lat="44.44482" lon="6.1874">
        <ele>910.986572</ele>
        <time>2011-07-05T07:52:23Z</time>
      </trkpt>
      <trkpt lat="44.44517" lon="6.18761">
        <ele>908.583252</ele>
        <time>2011-07-05T07:52:37Z</time>
      </trkpt>
      <trkpt lat="44.44561" lon="6.1878">
        <ele>906.179688</ele>
        <time>2011-07-05T07:52:50Z</time>
      </trkpt>
      <trkpt lat="44.44573" lon="6.18777">
        <ele>905.699219</ele>
        <time>2011-07-05T07:52:54Z</time>
      </trkpt>
      <trkpt lat="44.4457" lon="6.1876">
        <ele>905.218506</ele>
        <time>2011-07-05T07:52:59Z</time>
      </trkpt>
      <trkpt lat="44.44541" lon="6.1868">
        <ele>903.776611</ele>
        <time>2011-07-05T07:53:16Z</time>
      </trkpt>
      <trkpt lat="44.44541" lon="6.18632">
        <ele>902.334473</ele>
        <time>2011-07-05T07:53:28Z</time>
      </trkpt>
      <trkpt lat="44.44528" lon="6.1858">
        <ele>902.334473</ele>
        <time>2011-07-05T07:53:40Z</time>
      </trkpt>
      <trkpt lat="44.44538" lon="6.18524">
        <ele>899.931396</ele>
        <time>2011-07-05T07:53:53Z</time>
      </trkpt>
      <trkpt lat="44.44562" lon="6.18494">
        <ele>899.450684</ele>
        <time>2011-07-05T07:54:02Z</time>
      </trkpt>
      <trkpt lat="44.4463" lon="6.18475">
        <ele>898.969971</ele>
        <time>2011-07-05T07:54:19Z</time>
      </trkpt>
      <trkpt lat="44.44659" lon="6.18485">
        <ele>897.047363</ele>
        <time>2011-07-05T07:54:26Z</time>
      </trkpt>
      <trkpt lat="44.44714" lon="6.18506">
        <ele>895.605469</ele>
        <time>2011-07-05T07:54:42Z</time>
      </trkpt>
      <trkpt lat="44.44744" lon="6.18455">
        <ele>894.644043</ele>
        <time>2011-07-05T07:54:55Z</time>
      </trkpt>
      <trkpt lat="44.44748" lon="6.18452">
        <ele>894.163574</ele>
        <time>2011-07-05T07:54:56Z</time>
      </trkpt>
      <trkpt lat="44.44755" lon="6.18445">
        <ele>893.202148</ele>
        <time>2011-07-05T07:54:58Z</time>
      </trkpt>
      <trkpt lat="44.44779" lon="6.18445">
        <ele>889.837402</ele>
        <time>2011-07-05T07:55:06Z</time>
      </trkpt>
      <trkpt lat="44.44781" lon="6.18447">
        <ele>889.837402</ele>
        <time>2011-07-05T07:55:07Z</time>
      </trkpt>
      <trkpt lat="44.44797" lon="6.18455">
        <ele>888.395508</ele>
        <time>2011-07-05T07:55:12Z</time>
      </trkpt>
      <trkpt lat="44.44807" lon="6.1844">
        <ele>887.434082</ele>
        <time>2011-07-05T07:55:18Z</time>
      </trkpt>
      <trkpt lat="44.44811" lon="6.18422">
        <ele>885.511475</ele>
        <time>2011-07-05T07:55:29Z</time>
      </trkpt>
      <trkpt lat="44.44833" lon="6.18406">
        <ele>884.550293</ele>
        <time>2011-07-05T07:55:42Z</time>
      </trkpt>
      <trkpt lat="44.44861" lon="6.18396">
        <ele>880.224365</ele>
        <time>2011-07-05T07:55:52Z</time>
      </trkpt>
      <trkpt lat="44.44864" lon="6.18395">
        <ele>880.224365</ele>
        <time>2011-07-05T07:55:53Z</time>
      </trkpt>
      <trkpt lat="44.44882" lon="6.18378">
        <ele>877.340576</ele>
        <time>2011-07-05T07:56:01Z</time>
      </trkpt>
      <trkpt lat="44.44901" lon="6.18341">
        <ele>877.340576</ele>
        <time>2011-07-05T07:56:14Z</time>
      </trkpt>
      <trkpt lat="44.44899" lon="6.18337">
        <ele>874.456299</ele>
        <time>2011-07-05T07:56:16Z</time>
      </trkpt>
      <trkpt lat="44.44895" lon="6.18336">
        <ele>874.937012</ele>
        <time>2011-07-05T07:56:18Z</time>
      </trkpt>
      <trkpt lat="44.44884" lon="6.18339">
        <ele>874.456299</ele>
        <time>2011-07-05T07:56:24Z</time>
      </trkpt>
      <trkpt lat="44.4487" lon="6.18355">
        <ele>873.495117</ele>
        <time>2011-07-05T07:56:31Z</time>
      </trkpt>
      <trkpt lat="44.44864" lon="6.18359">
        <ele>870.611084</ele>
        <time>2011-07-05T07:56:34Z</time>
      </trkpt>
      <trkpt lat="44.44861" lon="6.18359">
        <ele>870.611084</ele>
        <time>2011-07-05T07:56:35Z</time>
      </trkpt>
      <trkpt lat="44.44823" lon="6.18357">
        <ele>868.207764</ele>
        <time>2011-07-05T07:56:47Z</time>
      </trkpt>
      <trkpt lat="44.44818" lon="6.18359">
        <ele>867.246582</ele>
        <time>2011-07-05T07:56:49Z</time>
      </trkpt>
      <trkpt lat="44.44808" lon="6.18342">
        <ele>866.285156</ele>
        <time>2011-07-05T07:56:56Z</time>
      </trkpt>
      <trkpt lat="44.44793" lon="6.18291">
        <ele>861.959473</ele>
        <time>2011-07-05T07:57:09Z</time>
      </trkpt>
      <trkpt lat="44.44791" lon="6.18287">
        <ele>861.959473</ele>
        <time>2011-07-05T07:57:10Z</time>
      </trkpt>
      <trkpt lat="44.44776" lon="6.1825">
        <ele>858.594482</ele>
        <time>2011-07-05T07:57:22Z</time>
      </trkpt>
      <trkpt lat="44.44757" lon="6.18217">
        <ele>855.22998</ele>
        <time>2011-07-05T07:57:33Z</time>
      </trkpt>
      <trkpt lat="44.44754" lon="6.18214">
        <ele>855.22998</ele>
        <time>2011-07-05T07:57:34Z</time>
      </trkpt>
      <trkpt lat="44.44736" lon="6.18161">
        <ele>852.345947</ele>
        <time>2011-07-05T07:57:47Z</time>
      </trkpt>
      <trkpt lat="44.44734" lon="6.18147">
        <ele>850.904053</ele>
        <time>2011-07-05T07:57:50Z</time>
      </trkpt>
      <trkpt lat="44.44718" lon="6.18085">
        <ele>847.058838</ele>
        <time>2011-07-05T07:58:03Z</time>
      </trkpt>
      <trkpt lat="44.44715" lon="6.18074">
        <ele>846.578369</ele>
        <time>2011-07-05T07:58:05Z</time>
      </trkpt>
      <trkpt lat="44.44705" lon="6.18037">
        <ele>842.73291</ele>
        <time>2011-07-05T07:58:13Z</time>
      </trkpt>
      <trkpt lat="44.44687" lon="6.18039">
        <ele>841.771484</ele>
        <time>2011-07-05T07:58:23Z</time>
      </trkpt>
      <trkpt lat="44.44684" lon="6.18075">
        <ele>840.810059</ele>
        <time>2011-07-05T07:58:32Z</time>
      </trkpt>
      <trkpt lat="44.44662" lon="6.18078">
        <ele>838.406982</ele>
        <time>2011-07-05T07:58:42Z</time>
      </trkpt>
      <trkpt lat="44.44647" lon="6.18036">
        <ele>835.04248</ele>
        <time>2011-07-05T07:58:55Z</time>
      </trkpt>
      <trkpt lat="44.44637" lon="6.18009">
        <ele>833.600342</ele>
        <time>2011-07-05T07:59:03Z</time>
      </trkpt>
      <trkpt lat="44.44635" lon="6.17996">
        <ele>832.63916</ele>
        <time>2011-07-05T07:59:07Z</time>
      </trkpt>
      <trkpt lat="44.44633" lon="6.17951">
        <ele>829.274414</ele>
        <time>2011-07-05T07:59:18Z</time>
      </trkpt>
      <trkpt lat="44.44623" lon="6.17916">
        <ele>825.428955</ele>
        <time>2011-07-05T07:59:30Z</time>
      </trkpt>
      <trkpt lat="44.44626" lon="6.17913">
        <ele>825.428955</ele>
        <time>2011-07-05T07:59:42Z</time>
      </trkpt>
      <trkpt lat="44.44626" lon="6.17913">
        <ele>824.467773</ele>
        <time>2011-07-05T07:59:46Z</time>
      </trkpt>
      <trkpt lat="44.44626" lon="6.17913">
        <ele>824.467773</ele>
        <time>2011-07-05T07:59:52Z</time>
      </trkpt>
      <trkpt lat="44.44626" lon="6.17913">
        <ele>824.948486</ele>
        <time>2011-07-05T08:00:16Z</time>
      </trkpt>
      <trkpt lat="44.44626" lon="6.17913">
        <ele>825.909668</ele>
        <time>2011-07-05T08:00:19Z</time>
      </trkpt>
      <trkpt lat="44.44647" lon="6.1794">
        <ele>823.025879</ele>
        <time>2011-07-05T08:00:30Z</time>
      </trkpt>
      <trkpt lat="44.44657" lon="6.17962">
        <ele>820.141846</ele>
        <time>2011-07-05T08:00:36Z</time>
      </trkpt>
      <trkpt lat="44.44667" lon="6.17955">
        <ele>820.141846</ele>
        <time>2011-07-05T08:00:41Z</time>
      </trkpt>
      <trkpt lat="44.44672" lon="6.17943">
        <ele>819.661377</ele>
        <time>2011-07-05T08:00:45Z</time>
      </trkpt>
      <trkpt lat="44.44678" lon="6.17916">
        <ele>818.219238</ele>
        <time>2011-07-05T08:00:51Z</time>
      </trkpt>
      <trkpt lat="44.44698" lon="6.17896">
        <ele>814.854736</ele>
        <time>2011-07-05T08:01:01Z</time>
      </trkpt>
      <trkpt lat="44.44701" lon="6.17895">
        <ele>814.854736</ele>
        <time>2011-07-05T08:01:02Z</time>
      </trkpt>
      <trkpt lat="44.44722" lon="6.17898">
        <ele>812.932129</ele>
        <time>2011-07-05T08:01:08Z</time>
      </trkpt>
      <trkpt lat="44.4475" lon="6.17899">
        <ele>810.047852</ele>
        <time>2011-07-05T08:01:16Z</time>
      </trkpt>
      <trkpt lat="44.44781" lon="6.17898">
        <ele>806.68335</ele>
        <time>2011-07-05T08:01:25Z</time>
      </trkpt>
      <trkpt lat="44.44792" lon="6.17894">
        <ele>806.202637</ele>
        <time>2011-07-05T08:01:29Z</time>
      </trkpt>
      <trkpt lat="44.44784" lon="6.17876">
        <ele>803.799561</ele>
        <time>2011-07-05T08:01:38Z</time>
      </trkpt>
      <trkpt lat="44.44749" lon="6.17866">
        <ele>799.954346</ele>
        <time>2011-07-05T08:01:49Z</time>
      </trkpt>
      <trkpt lat="44.44745" lon="6.17863">
        <ele>799.954346</ele>
        <time>2011-07-05T08:01:50Z</time>
      </trkpt>
      <trkpt lat="44.44738" lon="6.17858">
        <ele>798.512207</ele>
        <time>2011-07-05T08:01:52Z</time>
      </trkpt>
      <trkpt lat="44.44717" lon="6.17841">
        <ele>797.551025</ele>
        <time>2011-07-05T08:01:59Z</time>
      </trkpt>
      <trkpt lat="44.44694" lon="6.1784">
        <ele>795.147461</ele>
        <time>2011-07-05T08:02:06Z</time>
      </trkpt>
      <trkpt lat="44.44678" lon="6.17843">
        <ele>793.705566</ele>
        <time>2011-07-05T08:02:11Z</time>
      </trkpt>
      <trkpt lat="44.44662" lon="6.17809">
        <ele>791.782959</ele>
        <time>2011-07-05T08:02:20Z</time>
      </trkpt>
      <trkpt lat="44.44626" lon="6.17792">
        <ele>788.418457</ele>
        <time>2011-07-05T08:02:30Z</time>
      </trkpt>
      <trkpt lat="44.44622" lon="6.17791">
        <ele>788.418457</ele>
        <time>2011-07-05T08:02:31Z</time>
      </trkpt>
      <trkpt lat="44.44588" lon="6.17806">
        <ele>786.015137</ele>
        <time>2011-07-05T08:02:42Z</time>
      </trkpt>
      <trkpt lat="44.44568" lon="6.17828">
        <ele>783.611816</ele>
        <time>2011-07-05T08:02:50Z</time>
      </trkpt>
      <trkpt lat="44.4455" lon="6.17841">
        <ele>781.689209</ele>
        <time>2011-07-05T08:02:57Z</time>
      </trkpt>
      <trkpt lat="44.44545" lon="6.17827">
        <ele>780.728027</ele>
        <time>2011-07-05T08:03:02Z</time>
      </trkpt>
      <trkpt lat="44.44549" lon="6.17765">
        <ele>781.689209</ele>
        <time>2011-07-05T08:03:16Z</time>
      </trkpt>
      <trkpt lat="44.44553" lon="6.17717">
        <ele>783.611816</ele>
        <time>2011-07-05T08:03:32Z</time>
      </trkpt>
      <trkpt lat="44.44532" lon="6.17677">
        <ele>782.169922</ele>
        <time>2011-07-05T08:03:45Z</time>
      </trkpt>
      <trkpt lat="44.445" lon="6.17671">
        <ele>778.805176</ele>
        <time>2011-07-05T08:03:54Z</time>
      </trkpt>
      <trkpt lat="44.4447" lon="6.1766">
        <ele>776.401855</ele>
        <time>2011-07-05T08:04:02Z</time>
      </trkpt>
      <trkpt lat="44.44426" lon="6.17647">
        <ele>772.556641</ele>
        <time>2011-07-05T08:04:14Z</time>
      </trkpt>
      <trkpt lat="44.44402" lon="6.1766">
        <ele>769.672852</ele>
        <time>2011-07-05T08:04:23Z</time>
      </trkpt>
      <trkpt lat="44.4437" lon="6.1768">
        <ele>765.827637</ele>
        <time>2011-07-05T08:04:33Z</time>
      </trkpt>
      <trkpt lat="44.44345" lon="6.17691">
        <ele>762.462646</ele>
        <time>2011-07-05T08:04:42Z</time>
      </trkpt>
      <trkpt lat="44.44336" lon="6.17688">
        <ele>761.982178</ele>
        <time>2011-07-05T08:04:46Z</time>
      </trkpt>
      <trkpt lat="44.44322" lon="6.1769">
        <ele>761.020752</ele>
        <time>2011-07-05T08:04:51Z</time>
      </trkpt>
      <trkpt lat="44.44308" lon="6.1769">
        <ele>758.617432</ele>
        <time>2011-07-05T08:05:00Z</time>
      </trkpt>
      <trkpt lat="44.44273" lon="6.17656">
        <ele>754.772217</ele>
        <time>2011-07-05T08:05:14Z</time>
      </trkpt>
      <trkpt lat="44.44249" lon="6.17649">
        <ele>751.888428</ele>
        <time>2011-07-05T08:05:22Z</time>
      </trkpt>
      <trkpt lat="44.44245" lon="6.17647">
        <ele>751.888428</ele>
        <time>2011-07-05T08:05:23Z</time>
      </trkpt>
      <trkpt lat="44.44224" lon="6.17633">
        <ele>749.485107</ele>
        <time>2011-07-05T08:05:30Z</time>
      </trkpt>
      <trkpt lat="44.44196" lon="6.17603">
        <ele>746.120361</ele>
        <time>2011-07-05T08:05:40Z</time>
      </trkpt>
      <trkpt lat="44.44184" lon="6.17572">
        <ele>743.717041</ele>
        <time>2011-07-05T08:05:49Z</time>
      </trkpt>
      <trkpt lat="44.44184" lon="6.17567">
        <ele>742.275146</ele>
        <time>2011-07-05T08:06:02Z</time>
      </trkpt>
      <trkpt lat="44.44184" lon="6.17567">
        <ele>742.755859</ele>
        <time>2011-07-05T08:06:14Z</time>
      </trkpt>
      <trkpt lat="44.44185" lon="6.17561">
        <ele>742.755859</ele>
        <time>2011-07-05T08:06:18Z</time>
      </trkpt>
      <trkpt lat="44.44189" lon="6.17559">
        <ele>742.275146</ele>
        <time>2011-07-05T08:06:20Z</time>
      </trkpt>
      <trkpt lat="44.44202" lon="6.17567">
        <ele>741.313721</ele>
        <time>2011-07-05T08:06:25Z</time>
      </trkpt>
      <trkpt lat="44.44236" lon="6.17598">
        <ele>736.987793</ele>
        <time>2011-07-05T08:06:36Z</time>
      </trkpt>
      <trkpt lat="44.44272" lon="6.17605">
        <ele>734.104004</ele>
        <time>2011-07-05T08:06:45Z</time>
      </trkpt>
      <trkpt lat="44.4428" lon="6.17606">
        <ele>733.142578</ele>
        <time>2011-07-05T08:06:47Z</time>
      </trkpt>
      <trkpt lat="44.44301" lon="6.1762">
        <ele>730.258545</ele>
        <time>2011-07-05T08:06:53Z</time>
      </trkpt>
      <trkpt lat="44.44304" lon="6.17622">
        <ele>730.258545</ele>
        <time>2011-07-05T08:06:54Z</time>
      </trkpt>
      <trkpt lat="44.44307" lon="6.17623">
        <ele>729.777832</ele>
        <time>2011-07-05T08:06:55Z</time>
      </trkpt>
      <trkpt lat="44.44311" lon="6.17607">
        <ele>727.374756</ele>
        <time>2011-07-05T08:07:03Z</time>
      </trkpt>
      <trkpt lat="44.44309" lon="6.17606">
        <ele>727.374756</ele>
        <time>2011-07-05T08:07:04Z</time>
      </trkpt>
      <trkpt lat="44.44283" lon="6.17586">
        <ele>724.01001</ele>
        <time>2011-07-05T08:07:13Z</time>
      </trkpt>
      <trkpt lat="44.44265" lon="6.17572">
        <ele>722.087402</ele>
        <time>2011-07-05T08:07:19Z</time>
      </trkpt>
      <trkpt lat="44.44273" lon="6.17558">
        <ele>719.684326</ele>
        <time>2011-07-05T08:07:29Z</time>
      </trkpt>
      <trkpt lat="44.44275" lon="6.17559">
        <ele>719.203613</ele>
        <time>2011-07-05T08:07:30Z</time>
      </trkpt>
      <trkpt lat="44.44297" lon="6.17572">
        <ele>716.31958</ele>
        <time>2011-07-05T08:07:37Z</time>
      </trkpt>
      <trkpt lat="44.443" lon="6.17574">
        <ele>716.31958</ele>
        <time>2011-07-05T08:07:38Z</time>
      </trkpt>
      <trkpt lat="44.44324" lon="6.17583">
        <ele>713.435547</ele>
        <time>2011-07-05T08:07:45Z</time>
      </trkpt>
      <trkpt lat="44.44332" lon="6.17587">
        <ele>712.474121</ele>
        <time>2011-07-05T08:07:48Z</time>
      </trkpt>
      <trkpt lat="44.44333" lon="6.17574">
        <ele>710.551514</ele>
        <time>2011-07-05T08:07:55Z</time>
      </trkpt>
      <trkpt lat="44.44296" lon="6.17538">
        <ele>707.187012</ele>
        <time>2011-07-05T08:08:09Z</time>
      </trkpt>
      <trkpt lat="44.44271" lon="6.17519">
        <ele>704.303223</ele>
        <time>2011-07-05T08:08:19Z</time>
      </trkpt>
      <trkpt lat="44.4424" lon="6.17504">
        <ele>701.419189</ele>
        <time>2011-07-05T08:08:29Z</time>
      </trkpt>
      <trkpt lat="44.4422" lon="6.17483">
        <ele>699.496338</ele>
        <time>2011-07-05T08:08:36Z</time>
      </trkpt>
      <trkpt lat="44.44215" lon="6.17476">
        <ele>698.534912</ele>
        <time>2011-07-05T08:08:39Z</time>
      </trkpt>
      <trkpt lat="44.44219" lon="6.1746">
        <ele>697.093018</ele>
        <time>2011-07-05T08:08:46Z</time>
      </trkpt>
      <trkpt lat="44.44232" lon="6.17455">
        <ele>696.131836</ele>
        <time>2011-07-05T08:08:51Z</time>
      </trkpt>
      <trkpt lat="44.44267" lon="6.17463">
        <ele>694.209229</ele>
        <time>2011-07-05T08:09:01Z</time>
      </trkpt>
      <trkpt lat="44.44276" lon="6.17456">
        <ele>693.247803</ele>
        <time>2011-07-05T08:09:12Z</time>
      </trkpt>
      <trkpt lat="44.44281" lon="6.17451">
        <ele>694.689697</ele>
        <time>2011-07-05T08:09:16Z</time>
      </trkpt>
      <trkpt lat="44.44295" lon="6.17448">
        <ele>692.286621</ele>
        <time>2011-07-05T08:09:20Z</time>
      </trkpt>
      <trkpt lat="44.44338" lon="6.17447">
        <ele>693.728516</ele>
        <time>2011-07-05T08:09:37Z</time>
      </trkpt>
      <trkpt lat="44.44345" lon="6.17444">
        <ele>691.805908</ele>
        <time>2011-07-05T08:09:41Z</time>
      </trkpt>
      <trkpt lat="44.44354" lon="6.17441">
        <ele>693.728516</ele>
        <time>2011-07-05T08:09:45Z</time>
      </trkpt>
      <trkpt lat="44.44395" lon="6.17427">
        <ele>691.805908</ele>
        <time>2011-07-05T08:10:00Z</time>
      </trkpt>
      <trkpt lat="44.44396" lon="6.17428">
        <ele>692.286621</ele>
        <time>2011-07-05T08:10:13Z</time>
      </trkpt>
      <trkpt lat="44.44396" lon="6.17428">
        <ele>693.247803</ele>
        <time>2011-07-05T08:10:32Z</time>
      </trkpt>
      <trkpt lat="44.44396" lon="6.17428">
        <ele>691.325195</ele>
        <time>2011-07-05T08:10:34Z</time>
      </trkpt>
      <trkpt lat="44.44396" lon="6.17428">
        <ele>689.883301</ele>
        <time>2011-07-05T08:10:44Z</time>
      </trkpt>
      <trkpt lat="44.44396" lon="6.17428">
        <ele>691.805908</ele>
        <time>2011-07-05T08:10:46Z</time>
      </trkpt>
      <trkpt lat="44.44396" lon="6.17428">
        <ele>691.805908</ele>
        <time>2011-07-05T08:11:17Z</time>
      </trkpt>
      <trkpt lat="44.44396" lon="6.17428">
        <ele>691.325195</ele>
        <time>2011-07-05T08:11:35Z</time>
      </trkpt>
      <trkpt lat="44.44396" lon="6.17428">
        <ele>691.325195</ele>
        <time>2011-07-05T08:11:50Z</time>
      </trkpt>
      <trkpt lat="44.44396" lon="6.17428">
        <ele>690.364014</ele>
        <time>2011-07-05T08:12:15Z</time>
      </trkpt>
      <trkpt lat="44.44396" lon="6.17428">
        <ele>690.844482</ele>
        <time>2011-07-05T08:12:25Z</time>
      </trkpt>
      <trkpt lat="44.44396" lon="6.17428">
        <ele>690.364014</ele>
        <time>2011-07-05T08:12:42Z</time>
      </trkpt>
      <trkpt lat="44.44396" lon="6.17428">
        <ele>692.286621</ele>
        <time>2011-07-05T08:13:10Z</time>
      </trkpt>
      <trkpt lat="44.44396" lon="6.17428">
        <ele>690.364014</ele>
        <time>2011-07-05T08:13:25Z</time>
      </trkpt>
      <trkpt lat="44.44396" lon="6.17428">
        <ele>689.402588</ele>
        <time>2011-07-05T08:13:56Z</time>
      </trkpt>
      <trkpt lat="44.44396" lon="6.17428">
        <ele>689.883301</ele>
        <time>2011-07-05T08:14:11Z</time>
      </trkpt>
      <trkpt lat="44.44396" lon="6.17428">
        <ele>690.364014</ele>
        <time>2011-07-05T08:15:30Z</time>
      </trkpt>
      <trkpt lat="44.44389" lon="6.17422">
        <ele>690.844482</ele>
        <time>2011-07-05T08:15:35Z</time>
      </trkpt>
      <trkpt lat="44.44386" lon="6.1742">
        <ele>691.325195</ele>
        <time>2011-07-05T08:15:38Z</time>
      </trkpt>
      <trkpt lat="44.44379" lon="6.17419">
        <ele>692.767334</ele>
        <time>2011-07-05T08:15:43Z</time>
      </trkpt>
      <trkpt lat="44.44357" lon="6.17419">
        <ele>693.247803</ele>
        <time>2011-07-05T08:15:59Z</time>
      </trkpt>
      <trkpt lat="44.44353" lon="6.17415">
        <ele>694.689697</ele>
        <time>2011-07-05T08:16:02Z</time>
      </trkpt>
      <trkpt lat="44.44351" lon="6.17401">
        <ele>694.689697</ele>
        <time>2011-07-05T08:16:09Z</time>
      </trkpt>
      <trkpt lat="44.44355" lon="6.17389">
        <ele>694.209229</ele>
        <time>2011-07-05T08:16:15Z</time>
      </trkpt>
      <trkpt lat="44.44385" lon="6.17373">
        <ele>696.612549</ele>
        <time>2011-07-05T08:16:35Z</time>
      </trkpt>
      <trkpt lat="44.44389" lon="6.1737">
        <ele>698.054443</ele>
        <time>2011-07-05T08:16:38Z</time>
      </trkpt>
      <trkpt lat="44.44391" lon="6.17368">
        <ele>696.612549</ele>
        <time>2011-07-05T08:16:40Z</time>
      </trkpt>
      <trkpt lat="44.44403" lon="6.17358">
        <ele>700.458008</ele>
        <time>2011-07-05T08:16:58Z</time>
      </trkpt>
      <trkpt lat="44.44419" lon="6.17348">
        <ele>702.861084</ele>
        <time>2011-07-05T08:17:20Z</time>
      </trkpt>
      <trkpt lat="44.44419" lon="6.17348">
        <ele>703.82251</ele>
        <time>2011-07-05T08:17:25Z</time>
      </trkpt>
      <trkpt lat="44.44448" lon="6.17332">
        <ele>705.745117</ele>
        <time>2011-07-05T08:17:36Z</time>
      </trkpt>
      <trkpt lat="44.44448" lon="6.17329">
        <ele>706.706299</ele>
        <time>2011-07-05T08:17:44Z</time>
      </trkpt>
      <trkpt lat="44.4445" lon="6.17282">
        <ele>710.070801</ele>
        <time>2011-07-05T08:18:07Z</time>
      </trkpt>
      <trkpt lat="44.44455" lon="6.17277">
        <ele>711.512939</ele>
        <time>2011-07-05T08:18:14Z</time>
      </trkpt>
      <trkpt lat="44.4446" lon="6.17279">
        <ele>713.435547</ele>
        <time>2011-07-05T08:18:27Z</time>
      </trkpt>
      <trkpt lat="44.4446" lon="6.17279">
        <ele>716.800293</ele>
        <time>2011-07-05T08:18:46Z</time>
      </trkpt>
      <trkpt lat="44.4446" lon="6.17279">
        <ele>719.684326</ele>
        <time>2011-07-05T08:19:04Z</time>
      </trkpt>
      <trkpt lat="44.4446" lon="6.17279">
        <ele>722.087402</ele>
        <time>2011-07-05T08:19:22Z</time>
      </trkpt>
      <trkpt lat="44.4446" lon="6.17279">
        <ele>723.048828</ele>
        <time>2011-07-05T08:19:37Z</time>
      </trkpt>
      <trkpt lat="44.4446" lon="6.17279">
        <ele>724.971436</ele>
        <time>2011-07-05T08:19:52Z</time>
      </trkpt>
      <trkpt lat="44.4446" lon="6.17279">
        <ele>724.490723</ele>
        <time>2011-07-05T08:20:08Z</time>
      </trkpt>
      <trkpt lat="44.4446" lon="6.17279">
        <ele>725.451904</ele>
        <time>2011-07-05T08:20:12Z</time>
      </trkpt>
      <trkpt lat="44.44509" lon="6.17239">
        <ele>725.932617</ele>
        <time>2011-07-05T08:20:15Z</time>
      </trkpt>
      <trkpt lat="44.44524" lon="6.17224">
        <ele>727.855225</ele>
        <time>2011-07-05T08:20:31Z</time>
      </trkpt>
      <trkpt lat="44.44526" lon="6.17224">
        <ele>728.81665</ele>
        <time>2011-07-05T08:20:35Z</time>
      </trkpt>
      <trkpt lat="44.44555" lon="6.17241">
        <ele>732.181396</ele>
        <time>2011-07-05T08:21:01Z</time>
      </trkpt>
      <trkpt lat="44.44564" lon="6.17263">
        <ele>734.104004</ele>
        <time>2011-07-05T08:21:15Z</time>
      </trkpt>
      <trkpt lat="44.44572" lon="6.17269">
        <ele>736.026611</ele>
        <time>2011-07-05T08:21:33Z</time>
      </trkpt>
      <trkpt lat="44.44587" lon="6.17232">
        <ele>738.910645</ele>
        <time>2011-07-05T08:21:54Z</time>
      </trkpt>
      <trkpt lat="44.44589" lon="6.17193">
        <ele>741.794434</ele>
        <time>2011-07-05T08:22:16Z</time>
      </trkpt>
      <trkpt lat="44.44611" lon="6.17186">
        <ele>744.678223</ele>
        <time>2011-07-05T08:22:35Z</time>
      </trkpt>
      <trkpt lat="44.44631" lon="6.17169">
        <ele>747.562256</ele>
        <time>2011-07-05T08:22:59Z</time>
      </trkpt>
      <trkpt lat="44.44633" lon="6.17157">
        <ele>748.523682</ele>
        <time>2011-07-05T08:23:06Z</time>
      </trkpt>
      <trkpt lat="44.44633" lon="6.17157">
        <ele>749.004395</ele>
        <time>2011-07-05T08:23:10Z</time>
      </trkpt>
      <trkpt lat="44.44603" lon="6.17175">
        <ele>751.407715</ele>
        <time>2011-07-05T08:23:32Z</time>
      </trkpt>
      <trkpt lat="44.44576" lon="6.17166">
        <ele>753.811035</ele>
        <time>2011-07-05T08:23:55Z</time>
      </trkpt>
      <trkpt lat="44.44569" lon="6.1717">
        <ele>757.175537</ele>
        <time>2011-07-05T08:24:15Z</time>
      </trkpt>
      <trkpt lat="44.44569" lon="6.1717">
        <ele>757.175537</ele>
        <time>2011-07-05T08:24:18Z</time>
      </trkpt>
      <trkpt lat="44.44526" lon="6.17154">
        <ele>760.540039</ele>
        <time>2011-07-05T08:24:42Z</time>
      </trkpt>
      <trkpt lat="44.44493" lon="6.17143">
        <ele>762.462646</ele>
        <time>2011-07-05T08:25:06Z</time>
      </trkpt>
      <trkpt lat="44.44467" lon="6.17143">
        <ele>765.346924</ele>
        <time>2011-07-05T08:25:28Z</time>
      </trkpt>
      <trkpt lat="44.44459" lon="6.17146">
        <ele>766.308105</ele>
        <time>2011-07-05T08:25:34Z</time>
      </trkpt>
      <trkpt lat="44.44428" lon="6.17138">
        <ele>766.308105</ele>
        <time>2011-07-05T08:25:55Z</time>
      </trkpt>
      <trkpt lat="44.44404" lon="6.17156">
        <ele>768.230713</ele>
        <time>2011-07-05T08:26:13Z</time>
      </trkpt>
      <trkpt lat="44.44396" lon="6.17159">
        <ele>769.192139</ele>
        <time>2011-07-05T08:26:21Z</time>
      </trkpt>
      <trkpt lat="44.44393" lon="6.1716">
        <ele>768.711426</ele>
        <time>2011-07-05T08:26:24Z</time>
      </trkpt>
      <trkpt lat="44.44375" lon="6.17178">
        <ele>771.595215</ele>
        <time>2011-07-05T08:26:42Z</time>
      </trkpt>
      <trkpt lat="44.44372" lon="6.17198">
        <ele>772.556641</ele>
        <time>2011-07-05T08:26:53Z</time>
      </trkpt>
      <trkpt lat="44.44365" lon="6.17204">
        <ele>774.959961</ele>
        <time>2011-07-05T08:27:01Z</time>
      </trkpt>
      <trkpt lat="44.44361" lon="6.17203">
        <ele>775.44043</ele>
        <time>2011-07-05T08:27:05Z</time>
      </trkpt>
      <trkpt lat="44.44361" lon="6.17203">
        <ele>776.401855</ele>
        <time>2011-07-05T08:27:10Z</time>
      </trkpt>
      <trkpt lat="44.44354" lon="6.17194">
        <ele>777.363281</ele>
        <time>2011-07-05T08:27:19Z</time>
      </trkpt>
      <trkpt lat="44.44354" lon="6.17194">
        <ele>779.285645</ele>
        <time>2011-07-05T08:27:29Z</time>
      </trkpt>
      <trkpt lat="44.44344" lon="6.1716">
        <ele>782.650635</ele>
        <time>2011-07-05T08:27:52Z</time>
      </trkpt>
      <trkpt lat="44.44344" lon="6.1716">
        <ele>783.611816</ele>
        <time>2011-07-05T08:27:59Z</time>
      </trkpt>
      <trkpt lat="44.44319" lon="6.17142">
        <ele>786.49585</ele>
        <time>2011-07-05T08:28:21Z</time>
      </trkpt>
      <trkpt lat="44.44319" lon="6.17142">
        <ele>786.976318</ele>
        <time>2011-07-05T08:28:25Z</time>
      </trkpt>
      <trkpt lat="44.44319" lon="6.17142">
        <ele>788.418457</ele>
        <time>2011-07-05T08:28:32Z</time>
      </trkpt>
      <trkpt lat="44.44319" lon="6.17142">
        <ele>789.860352</ele>
        <time>2011-07-05T08:28:41Z</time>
      </trkpt>
      <trkpt lat="44.44285" lon="6.17116">
        <ele>790.341064</ele>
        <time>2011-07-05T08:28:48Z</time>
      </trkpt>
      <trkpt lat="44.44283" lon="6.17116">
        <ele>791.782959</ele>
        <time>2011-07-05T08:28:53Z</time>
      </trkpt>
      <trkpt lat="44.4426" lon="6.17127">
        <ele>794.666748</ele>
        <time>2011-07-05T08:29:12Z</time>
      </trkpt>
      <trkpt lat="44.4426" lon="6.17127">
        <ele>797.070313</ele>
        <time>2011-07-05T08:29:29Z</time>
      </trkpt>
      <trkpt lat="44.4426" lon="6.17127">
        <ele>800.435059</ele>
        <time>2011-07-05T08:29:49Z</time>
      </trkpt>
      <trkpt lat="44.4426" lon="6.17127">
        <ele>801.876953</ele>
        <time>2011-07-05T08:29:54Z</time>
      </trkpt>
      <trkpt lat="44.4426" lon="6.17127">
        <ele>802.357422</ele>
        <time>2011-07-05T08:30:03Z</time>
      </trkpt>
      <trkpt lat="44.4426" lon="6.17127">
        <ele>803.318848</ele>
        <time>2011-07-05T08:30:09Z</time>
      </trkpt>
      <trkpt lat="44.44204" lon="6.17096">
        <ele>805.241455</ele>
        <time>2011-07-05T08:30:25Z</time>
      </trkpt>
      <trkpt lat="44.44192" lon="6.17101">
        <ele>808.125488</ele>
        <time>2011-07-05T08:30:44Z</time>
      </trkpt>
      <trkpt lat="44.44192" lon="6.17101">
        <ele>808.605957</ele>
        <time>2011-07-05T08:30:49Z</time>
      </trkpt>
      <trkpt lat="44.44165" lon="6.17098">
        <ele>811.970703</ele>
        <time>2011-07-05T08:31:10Z</time>
      </trkpt>
      <trkpt lat="44.44165" lon="6.17098">
        <ele>812.932129</ele>
        <time>2011-07-05T08:31:16Z</time>
      </trkpt>
      <trkpt lat="44.44145" lon="6.17107">
        <ele>815.816162</ele>
        <time>2011-07-05T08:31:39Z</time>
      </trkpt>
      <trkpt lat="44.44145" lon="6.17107">
        <ele>816.777344</ele>
        <time>2011-07-05T08:31:44Z</time>
      </trkpt>
      <trkpt lat="44.44145" lon="6.17107">
        <ele>818.219238</ele>
        <time>2011-07-05T08:31:55Z</time>
      </trkpt>
      <trkpt lat="44.44145" lon="6.17107">
        <ele>818.699951</ele>
        <time>2011-07-05T08:31:58Z</time>
      </trkpt>
      <trkpt lat="44.44103" lon="6.17084">
        <ele>819.180664</ele>
        <time>2011-07-05T08:32:04Z</time>
      </trkpt>
      <trkpt lat="44.44097" lon="6.17084">
        <ele>820.622559</ele>
        <time>2011-07-05T08:32:17Z</time>
      </trkpt>
      <trkpt lat="44.44079" lon="6.17109">
        <ele>822.545166</ele>
        <time>2011-07-05T08:32:29Z</time>
      </trkpt>
      <trkpt lat="44.44055" lon="6.17116">
        <ele>824.948486</ele>
        <time>2011-07-05T08:32:52Z</time>
      </trkpt>
      <trkpt lat="44.44055" lon="6.17116">
        <ele>824.948486</ele>
        <time>2011-07-05T08:32:53Z</time>
      </trkpt>
      <trkpt lat="44.44025" lon="6.17125">
        <ele>826.871094</ele>
        <time>2011-07-05T08:33:18Z</time>
      </trkpt>
      <trkpt lat="44.44015" lon="6.17112">
        <ele>829.274414</ele>
        <time>2011-07-05T08:33:38Z</time>
      </trkpt>
      <trkpt lat="44.44015" lon="6.17112">
        <ele>830.23584</ele>
        <time>2011-07-05T08:34:22Z</time>
      </trkpt>
      <trkpt lat="44.44015" lon="6.17112">
        <ele>828.313232</ele>
        <time>2011-07-05T08:34:24Z</time>
      </trkpt>
      <trkpt lat="44.44015" lon="6.17112">
        <ele>827.832275</ele>
        <time>2011-07-05T08:34:31Z</time>
      </trkpt>
      <trkpt lat="44.44015" lon="6.17112">
        <ele>830.716553</ele>
        <time>2011-07-05T08:34:33Z</time>
      </trkpt>
      <trkpt lat="44.44015" lon="6.17112">
        <ele>829.274414</ele>
        <time>2011-07-05T08:35:07Z</time>
      </trkpt>
      <trkpt lat="44.44015" lon="6.17112">
        <ele>829.274414</ele>
        <time>2011-07-05T08:35:13Z</time>
      </trkpt>
      <trkpt lat="44.44015" lon="6.17112">
        <ele>829.274414</ele>
        <time>2011-07-05T08:35:21Z</time>
      </trkpt>
      <trkpt lat="44.44015" lon="6.17112">
        <ele>830.716553</ele>
        <time>2011-07-05T08:35:23Z</time>
      </trkpt>
      <trkpt lat="44.44015" lon="6.17112">
        <ele>830.23584</ele>
        <time>2011-07-05T08:36:05Z</time>
      </trkpt>
      <trkpt lat="44.44015" lon="6.17112">
        <ele>829.755127</ele>
        <time>2011-07-05T08:36:10Z</time>
      </trkpt>
      <trkpt lat="44.44015" lon="6.17112">
        <ele>830.716553</ele>
        <time>2011-07-05T08:36:16Z</time>
      </trkpt>
      <trkpt lat="44.44015" lon="6.17112">
        <ele>830.23584</ele>
        <time>2011-07-05T08:36:25Z</time>
      </trkpt>
      <trkpt lat="44.44015" lon="6.17112">
        <ele>828.793945</ele>
        <time>2011-07-05T08:36:50Z</time>
      </trkpt>
      <trkpt lat="44.44015" lon="6.17112">
        <ele>828.793945</ele>
        <time>2011-07-05T08:37:02Z</time>
      </trkpt>
      <trkpt lat="44.44022" lon="6.17104">
        <ele>828.793945</ele>
        <time>2011-07-05T08:37:10Z</time>
      </trkpt>
      <trkpt lat="44.44039" lon="6.17097">
        <ele>832.158447</ele>
        <time>2011-07-05T08:37:33Z</time>
      </trkpt>
      <trkpt lat="44.44065" lon="6.17077">
        <ele>835.04248</ele>
        <time>2011-07-05T08:37:54Z</time>
      </trkpt>
      <trkpt lat="44.44075" lon="6.1706">
        <ele>836.964844</ele>
        <time>2011-07-05T08:38:07Z</time>
      </trkpt>
      <trkpt lat="44.44095" lon="6.17041">
        <ele>838.887695</ele>
        <time>2011-07-05T08:38:26Z</time>
      </trkpt>
      <trkpt lat="44.44119" lon="6.17048">
        <ele>840.32959</ele>
        <time>2011-07-05T08:38:45Z</time>
      </trkpt>
      <trkpt lat="44.4412" lon="6.17048">
        <ele>840.32959</ele>
        <time>2011-07-05T08:38:46Z</time>
      </trkpt>
      <trkpt lat="44.44125" lon="6.17047">
        <ele>840.810059</ele>
        <time>2011-07-05T08:38:50Z</time>
      </trkpt>
      <trkpt lat="44.44127" lon="6.17046">
        <ele>842.252197</ele>
        <time>2011-07-05T08:39:04Z</time>
      </trkpt>
      <trkpt lat="44.44171" lon="6.17033">
        <ele>845.616943</ele>
        <time>2011-07-05T08:39:33Z</time>
      </trkpt>
      <trkpt lat="44.44171" lon="6.17033">
        <ele>848.981445</ele>
        <time>2011-07-05T08:39:50Z</time>
      </trkpt>
      <trkpt lat="44.44171" lon="6.17033">
        <ele>849.462158</ele>
        <time>2011-07-05T08:39:57Z</time>
      </trkpt>
      <trkpt lat="44.44193" lon="6.17007">
        <ele>850.423584</ele>
        <time>2011-07-05T08:40:01Z</time>
      </trkpt>
      <trkpt lat="44.44193" lon="6.16999">
        <ele>850.904053</ele>
        <time>2011-07-05T08:40:06Z</time>
      </trkpt>
      <trkpt lat="44.44193" lon="6.16996">
        <ele>852.345947</ele>
        <time>2011-07-05T08:40:18Z</time>
      </trkpt>
      <trkpt lat="44.44205" lon="6.16972">
        <ele>853.788086</ele>
        <time>2011-07-05T08:40:32Z</time>
      </trkpt>
      <trkpt lat="44.44219" lon="6.16976">
        <ele>856.671875</ele>
        <time>2011-07-05T08:40:54Z</time>
      </trkpt>
      <trkpt lat="44.44254" lon="6.16982">
        <ele>859.075195</ele>
        <time>2011-07-05T08:41:15Z</time>
      </trkpt>
      <trkpt lat="44.44274" lon="6.16971">
        <ele>861.47876</ele>
        <time>2011-07-05T08:41:35Z</time>
      </trkpt>
      <trkpt lat="44.44273" lon="6.16962">
        <ele>861.959473</ele>
        <time>2011-07-05T08:41:39Z</time>
      </trkpt>
      <trkpt lat="44.44258" lon="6.16962">
        <ele>863.401367</ele>
        <time>2011-07-05T08:41:52Z</time>
      </trkpt>
      <trkpt lat="44.44242" lon="6.16967">
        <ele>863.881836</ele>
        <time>2011-07-05T08:42:03Z</time>
      </trkpt>
      <trkpt lat="44.4422" lon="6.16955">
        <ele>865.804688</ele>
        <time>2011-07-05T08:42:20Z</time>
      </trkpt>
      <trkpt lat="44.442" lon="6.1694">
        <ele>867.727051</ele>
        <time>2011-07-05T08:42:38Z</time>
      </trkpt>
      <trkpt lat="44.4418" lon="6.16938">
        <ele>869.649902</ele>
        <time>2011-07-05T08:42:55Z</time>
      </trkpt>
      <trkpt lat="44.44164" lon="6.16971">
        <ele>872.052979</ele>
        <time>2011-07-05T08:43:18Z</time>
      </trkpt>
      <trkpt lat="44.44152" lon="6.16977">
        <ele>874.456299</ele>
        <time>2011-07-05T08:43:38Z</time>
      </trkpt>
      <trkpt lat="44.44152" lon="6.16977">
        <ele>874.456299</ele>
        <time>2011-07-05T08:43:40Z</time>
      </trkpt>
      <trkpt lat="44.44152" lon="6.16977">
        <ele>874.937012</ele>
        <time>2011-07-05T08:43:44Z</time>
      </trkpt>
      <trkpt lat="44.44152" lon="6.16977">
        <ele>875.41748</ele>
        <time>2011-07-05T08:43:49Z</time>
      </trkpt>
      <trkpt lat="44.44152" lon="6.16977">
        <ele>877.821045</ele>
        <time>2011-07-05T08:44:06Z</time>
      </trkpt>
      <trkpt lat="44.44152" lon="6.16977">
        <ele>878.301758</ele>
        <time>2011-07-05T08:44:08Z</time>
      </trkpt>
      <trkpt lat="44.44152" lon="6.16977">
        <ele>879.262939</ele>
        <time>2011-07-05T08:44:14Z</time>
      </trkpt>
      <trkpt lat="44.44152" lon="6.16977">
        <ele>880.705078</ele>
        <time>2011-07-05T08:44:29Z</time>
      </trkpt>
      <trkpt lat="44.44152" lon="6.16977">
        <ele>881.66626</ele>
        <time>2011-07-05T08:44:36Z</time>
      </trkpt>
      <trkpt lat="44.44075" lon="6.16945">
        <ele>883.108154</ele>
        <time>2011-07-05T08:44:49Z</time>
      </trkpt>
      <trkpt lat="44.44075" lon="6.16945">
        <ele>885.511475</ele>
        <time>2011-07-05T08:45:06Z</time>
      </trkpt>
      <trkpt lat="44.44075" lon="6.16945">
        <ele>885.992188</ele>
        <time>2011-07-05T08:45:09Z</time>
      </trkpt>
      <trkpt lat="44.44075" lon="6.16945">
        <ele>887.914795</ele>
        <time>2011-07-05T08:45:21Z</time>
      </trkpt>
      <trkpt lat="44.44075" lon="6.16945">
        <ele>890.798584</ele>
        <time>2011-07-05T08:45:43Z</time>
      </trkpt>
      <trkpt lat="44.44026" lon="6.1693">
        <ele>891.76001</ele>
        <time>2011-07-05T08:45:53Z</time>
      </trkpt>
      <trkpt lat="44.44026" lon="6.1693">
        <ele>892.72168</ele>
        <time>2011-07-05T08:45:58Z</time>
      </trkpt>
      <trkpt lat="44.44026" lon="6.1693">
        <ele>895.605469</ele>
        <time>2011-07-05T08:46:20Z</time>
      </trkpt>
      <trkpt lat="44.44026" lon="6.1693">
        <ele>897.047363</ele>
        <time>2011-07-05T08:46:35Z</time>
      </trkpt>
      <trkpt lat="44.44026" lon="6.1693">
        <ele>899.450684</ele>
        <time>2011-07-05T08:46:55Z</time>
      </trkpt>
      <trkpt lat="44.44016" lon="6.16829">
        <ele>901.854004</ele>
        <time>2011-07-05T08:47:18Z</time>
      </trkpt>
      <trkpt lat="44.44016" lon="6.16829">
        <ele>904.257324</ele>
        <time>2011-07-05T08:47:38Z</time>
      </trkpt>
      <trkpt lat="44.44016" lon="6.16829">
        <ele>907.141113</ele>
        <time>2011-07-05T08:47:56Z</time>
      </trkpt>
      <trkpt lat="44.44016" lon="6.16829">
        <ele>909.063965</ele>
        <time>2011-07-05T08:48:07Z</time>
      </trkpt>
      <trkpt lat="44.43947" lon="6.16755">
        <ele>912.428467</ele>
        <time>2011-07-05T08:48:33Z</time>
      </trkpt>
      <trkpt lat="44.43947" lon="6.16755">
        <ele>914.831787</ele>
        <time>2011-07-05T08:48:59Z</time>
      </trkpt>
      <trkpt lat="44.43913" lon="6.16707">
        <ele>916.754395</ele>
        <time>2011-07-05T08:49:20Z</time>
      </trkpt>
      <trkpt lat="44.43913" lon="6.16707">
        <ele>918.677002</ele>
        <time>2011-07-05T08:49:35Z</time>
      </trkpt>
      <trkpt lat="44.43891" lon="6.16711">
        <ele>919.157715</ele>
        <time>2011-07-05T08:49:39Z</time>
      </trkpt>
      <trkpt lat="44.43891" lon="6.16711">
        <ele>921.560791</ele>
        <time>2011-07-05T08:49:51Z</time>
      </trkpt>
      <trkpt lat="44.43874" lon="6.16689">
        <ele>923.964111</ele>
        <time>2011-07-05T08:50:10Z</time>
      </trkpt>
      <trkpt lat="44.43874" lon="6.16689">
        <ele>924.445068</ele>
        <time>2011-07-05T08:50:12Z</time>
      </trkpt>
      <trkpt lat="44.43874" lon="6.16689">
        <ele>925.40625</ele>
        <time>2011-07-05T08:50:18Z</time>
      </trkpt>
      <trkpt lat="44.43856" lon="6.16666">
        <ele>928.290283</ele>
        <time>2011-07-05T08:50:43Z</time>
      </trkpt>
      <trkpt lat="44.43856" lon="6.16666">
        <ele>930.212891</ele>
        <time>2011-07-05T08:51:03Z</time>
      </trkpt>
      <trkpt lat="44.43856" lon="6.16666">
        <ele>931.654785</ele>
        <time>2011-07-05T08:51:09Z</time>
      </trkpt>
      <trkpt lat="44.43831" lon="6.16597">
        <ele>931.654785</ele>
        <time>2011-07-05T08:51:13Z</time>
      </trkpt>
      <trkpt lat="44.43828" lon="6.16597">
        <ele>934.058105</ele>
        <time>2011-07-05T08:51:29Z</time>
      </trkpt>
      <trkpt lat="44.43828" lon="6.16597">
        <ele>935.980713</ele>
        <time>2011-07-05T08:51:46Z</time>
      </trkpt>
      <trkpt lat="44.43771" lon="6.16596">
        <ele>939.345215</ele>
        <time>2011-07-05T08:52:12Z</time>
      </trkpt>
      <trkpt lat="44.43766" lon="6.16594">
        <ele>941.748779</ele>
        <time>2011-07-05T08:52:34Z</time>
      </trkpt>
      <trkpt lat="44.43766" lon="6.16594">
        <ele>942.229492</ele>
        <time>2011-07-05T08:52:40Z</time>
      </trkpt>
      <trkpt lat="44.43766" lon="6.16594">
        <ele>944.632568</ele>
        <time>2011-07-05T08:52:59Z</time>
      </trkpt>
      <trkpt lat="44.43766" lon="6.16594">
        <ele>946.074707</ele>
        <time>2011-07-05T08:53:13Z</time>
      </trkpt>
      <trkpt lat="44.43766" lon="6.16594">
        <ele>947.516602</ele>
        <time>2011-07-05T08:53:20Z</time>
      </trkpt>
      <trkpt lat="44.43723" lon="6.16539">
        <ele>948.958496</ele>
        <time>2011-07-05T08:53:41Z</time>
      </trkpt>
      <trkpt lat="44.43755" lon="6.16541">
        <ele>950.881104</ele>
        <time>2011-07-05T08:54:01Z</time>
      </trkpt>
      <trkpt lat="44.43755" lon="6.16541">
        <ele>951.361816</ele>
        <time>2011-07-05T08:54:03Z</time>
      </trkpt>
      <trkpt lat="44.43763" lon="6.16541">
        <ele>953.765137</ele>
        <time>2011-07-05T08:54:26Z</time>
      </trkpt>
      <trkpt lat="44.43763" lon="6.16541">
        <ele>954.726318</ele>
        <time>2011-07-05T08:54:34Z</time>
      </trkpt>
      <trkpt lat="44.43763" lon="6.16541">
        <ele>956.64917</ele>
        <time>2011-07-05T08:54:43Z</time>
      </trkpt>
      <trkpt lat="44.438" lon="6.16531">
        <ele>956.64917</ele>
        <time>2011-07-05T08:54:45Z</time>
      </trkpt>
      <trkpt lat="44.438" lon="6.16531">
        <ele>959.533203</ele>
        <time>2011-07-05T08:55:07Z</time>
      </trkpt>
      <trkpt lat="44.43778" lon="6.16512">
        <ele>960.494385</ele>
        <time>2011-07-05T08:55:20Z</time>
      </trkpt>
      <trkpt lat="44.43778" lon="6.16512">
        <ele>960.975098</ele>
        <time>2011-07-05T08:55:23Z</time>
      </trkpt>
      <trkpt lat="44.43778" lon="6.16512">
        <ele>963.378418</ele>
        <time>2011-07-05T08:55:45Z</time>
      </trkpt>
      <trkpt lat="44.43778" lon="6.16512">
        <ele>964.3396</ele>
        <time>2011-07-05T08:55:53Z</time>
      </trkpt>
      <trkpt lat="44.43778" lon="6.16512">
        <ele>965.301025</ele>
        <time>2011-07-05T08:56:04Z</time>
      </trkpt>
      <trkpt lat="44.43778" lon="6.16512">
        <ele>967.704102</ele>
        <time>2011-07-05T08:56:25Z</time>
      </trkpt>
      <trkpt lat="44.43712" lon="6.16421">
        <ele>971.068848</ele>
        <time>2011-07-05T08:56:50Z</time>
      </trkpt>
      <trkpt lat="44.43712" lon="6.16421">
        <ele>972.510986</ele>
        <time>2011-07-05T08:57:01Z</time>
      </trkpt>
      <trkpt lat="44.43699" lon="6.16387">
        <ele>972.991699</ele>
        <time>2011-07-05T08:57:05Z</time>
      </trkpt>
      <trkpt lat="44.43699" lon="6.16387">
        <ele>973.952881</ele>
        <time>2011-07-05T08:57:14Z</time>
      </trkpt>
      <trkpt lat="44.43699" lon="6.16387">
        <ele>976.836914</ele>
        <time>2011-07-05T08:57:35Z</time>
      </trkpt>
      <trkpt lat="44.43699" lon="6.16387">
        <ele>977.317627</ele>
        <time>2011-07-05T08:57:38Z</time>
      </trkpt>
      <trkpt lat="44.43695" lon="6.16335">
        <ele>979.720703</ele>
        <time>2011-07-05T08:57:56Z</time>
      </trkpt>
      <trkpt lat="44.43695" lon="6.16335">
        <ele>980.201416</ele>
        <time>2011-07-05T08:58:07Z</time>
      </trkpt>
      <trkpt lat="44.43695" lon="6.16335">
        <ele>981.643311</ele>
        <time>2011-07-05T08:58:13Z</time>
      </trkpt>
      <trkpt lat="44.43695" lon="6.16335">
        <ele>983.085205</ele>
        <time>2011-07-05T08:58:31Z</time>
      </trkpt>
      <trkpt lat="44.43695" lon="6.16335">
        <ele>983.085205</ele>
        <time>2011-07-05T08:58:32Z</time>
      </trkpt>
      <trkpt lat="44.43674" lon="6.1625">
        <ele>984.527344</ele>
        <time>2011-07-05T08:58:44Z</time>
      </trkpt>
      <trkpt lat="44.43674" lon="6.1625">
        <ele>985.488525</ele>
        <time>2011-07-05T08:59:04Z</time>
      </trkpt>
      <trkpt lat="44.43674" lon="6.1625">
        <ele>985.488525</ele>
        <time>2011-07-05T09:00:42Z</time>
      </trkpt>
      <trkpt lat="44.43674" lon="6.1625">
        <ele>986.449951</ele>
        <time>2011-07-05T09:00:47Z</time>
      </trkpt>
      <trkpt lat="44.43674" lon="6.1625">
        <ele>986.449951</ele>
        <time>2011-07-05T09:01:31Z</time>
      </trkpt>
      <trkpt lat="44.43674" lon="6.1625">
        <ele>985.008057</ele>
        <time>2011-07-05T09:01:52Z</time>
      </trkpt>
      <trkpt lat="44.43674" lon="6.1625">
        <ele>986.449951</ele>
        <time>2011-07-05T09:01:54Z</time>
      </trkpt>
      <trkpt lat="44.43674" lon="6.1625">
        <ele>988.372803</ele>
        <time>2011-07-05T09:02:03Z</time>
      </trkpt>
      <trkpt lat="44.43674" lon="6.1625">
        <ele>987.891846</ele>
        <time>2011-07-05T09:03:34Z</time>
      </trkpt>
      <trkpt lat="44.43669" lon="6.16229">
        <ele>987.411133</ele>
        <time>2011-07-05T09:03:37Z</time>
      </trkpt>
      <trkpt lat="44.43662" lon="6.16197">
        <ele>989.814697</ele>
        <time>2011-07-05T09:03:59Z</time>
      </trkpt>
      <trkpt lat="44.43648" lon="6.16166">
        <ele>992.218018</ele>
        <time>2011-07-05T09:04:21Z</time>
      </trkpt>
      <trkpt lat="44.43635" lon="6.16146">
        <ele>993.179199</ele>
        <time>2011-07-05T09:04:41Z</time>
      </trkpt>
      <trkpt lat="44.4364" lon="6.16136">
        <ele>993.659912</ele>
        <time>2011-07-05T09:04:45Z</time>
      </trkpt>
      <trkpt lat="44.43656" lon="6.16156">
        <ele>995.101807</ele>
        <time>2011-07-05T09:05:03Z</time>
      </trkpt>
      <trkpt lat="44.43673" lon="6.16182">
        <ele>997.98584</ele>
        <time>2011-07-05T09:05:30Z</time>
      </trkpt>
      <trkpt lat="44.43673" lon="6.16182">
        <ele>1000.869629</ele>
        <time>2011-07-05T09:05:54Z</time>
      </trkpt>
      <trkpt lat="44.43703" lon="6.16212">
        <ele>1002.792236</ele>
        <time>2011-07-05T09:06:13Z</time>
      </trkpt>
      <trkpt lat="44.43703" lon="6.16212">
        <ele>1003.272949</ele>
        <time>2011-07-05T09:06:15Z</time>
      </trkpt>
      <trkpt lat="44.43703" lon="6.16212">
        <ele>1006.156982</ele>
        <time>2011-07-05T09:06:36Z</time>
      </trkpt>
      <trkpt lat="44.43737" lon="6.16258">
        <ele>1006.637695</ele>
        <time>2011-07-05T09:06:43Z</time>
      </trkpt>
      <trkpt lat="44.43737" lon="6.16258">
        <ele>1009.041016</ele>
        <time>2011-07-05T09:07:09Z</time>
      </trkpt>
      <trkpt lat="44.43737" lon="6.16258">
        <ele>1011.925049</ele>
        <time>2011-07-05T09:07:32Z</time>
      </trkpt>
      <trkpt lat="44.43737" lon="6.16258">
        <ele>1014.328125</ele>
        <time>2011-07-05T09:07:51Z</time>
      </trkpt>
      <trkpt lat="44.43737" lon="6.16258">
        <ele>1015.770264</ele>
        <time>2011-07-05T09:08:02Z</time>
      </trkpt>
      <trkpt lat="44.43822" lon="6.16353">
        <ele>1019.134766</ele>
        <time>2011-07-05T09:08:25Z</time>
      </trkpt>
      <trkpt lat="44.43822" lon="6.16353">
        <ele>1021.538086</ele>
        <time>2011-07-05T09:08:45Z</time>
      </trkpt>
      <trkpt lat="44.43854" lon="6.1637">
        <ele>1023.460938</ele>
        <time>2011-07-05T09:09:04Z</time>
      </trkpt>
      <trkpt lat="44.43854" lon="6.1637">
        <ele>1024.422119</ele>
        <time>2011-07-05T09:09:07Z</time>
      </trkpt>
      <trkpt lat="44.43862" lon="6.1638">
        <ele>1024.902832</ele>
        <time>2011-07-05T09:09:18Z</time>
      </trkpt>
      <trkpt lat="44.43862" lon="6.1638">
        <ele>1025.864014</ele>
        <time>2011-07-05T09:09:22Z</time>
      </trkpt>
      <trkpt lat="44.43862" lon="6.1638">
        <ele>1026.825439</ele>
        <time>2011-07-05T09:09:32Z</time>
      </trkpt>
      <trkpt lat="44.43862" lon="6.1638">
        <ele>1028.267334</ele>
        <time>2011-07-05T09:09:40Z</time>
      </trkpt>
      <trkpt lat="44.43901" lon="6.16382">
        <ele>1029.709229</ele>
        <time>2011-07-05T09:10:01Z</time>
      </trkpt>
      <trkpt lat="44.43924" lon="6.16431">
        <ele>1032.112549</ele>
        <time>2011-07-05T09:10:24Z</time>
      </trkpt>
      <trkpt lat="44.43926" lon="6.16433">
        <ele>1032.593262</ele>
        <time>2011-07-05T09:10:31Z</time>
      </trkpt>
      <trkpt lat="44.43938" lon="6.16434">
        <ele>1033.07373</ele>
        <time>2011-07-05T09:10:35Z</time>
      </trkpt>
      <trkpt lat="44.43945" lon="6.16431">
        <ele>1035.957764</ele>
        <time>2011-07-05T09:10:58Z</time>
      </trkpt>
      <trkpt lat="44.43945" lon="6.16431">
        <ele>1037.399902</ele>
        <time>2011-07-05T09:11:11Z</time>
      </trkpt>
      <trkpt lat="44.43945" lon="6.16431">
        <ele>1038.361328</ele>
        <time>2011-07-05T09:11:14Z</time>
      </trkpt>
      <trkpt lat="44.43978" lon="6.16442">
        <ele>1040.283936</ele>
        <time>2011-07-05T09:11:39Z</time>
      </trkpt>
      <trkpt lat="44.44012" lon="6.16457">
        <ele>1043.167725</ele>
        <time>2011-07-05T09:11:59Z</time>
      </trkpt>
      <trkpt lat="44.4403" lon="6.16475">
        <ele>1043.648438</ele>
        <time>2011-07-05T09:12:11Z</time>
      </trkpt>
      <trkpt lat="44.4403" lon="6.16475">
        <ele>1046.532471</ele>
        <time>2011-07-05T09:12:39Z</time>
      </trkpt>
      <trkpt lat="44.4403" lon="6.16475">
        <ele>1049.41626</ele>
        <time>2011-07-05T09:13:05Z</time>
      </trkpt>
      <trkpt lat="44.4403" lon="6.16475">
        <ele>1049.896973</ele>
        <time>2011-07-05T09:13:09Z</time>
      </trkpt>
      <trkpt lat="44.4403" lon="6.16475">
        <ele>1051.338867</ele>
        <time>2011-07-05T09:13:25Z</time>
      </trkpt>
      <trkpt lat="44.4412" lon="6.16498">
        <ele>1052.300293</ele>
        <time>2011-07-05T09:13:35Z</time>
      </trkpt>
      <trkpt lat="44.44144" lon="6.16503">
        <ele>1053.742432</ele>
        <time>2011-07-05T09:13:58Z</time>
      </trkpt>
      <trkpt lat="44.44144" lon="6.16503">
        <ele>1056.145508</ele>
        <time>2011-07-05T09:14:23Z</time>
      </trkpt>
      <trkpt lat="44.44177" lon="6.16517">
        <ele>1058.068359</ele>
        <time>2011-07-05T09:14:40Z</time>
      </trkpt>
      <trkpt lat="44.44177" lon="6.16517">
        <ele>1058.068359</ele>
        <time>2011-07-05T09:14:46Z</time>
      </trkpt>
      <trkpt lat="44.44177" lon="6.16517">
        <ele>1059.029541</ele>
        <time>2011-07-05T09:14:49Z</time>
      </trkpt>
      <trkpt lat="44.44199" lon="6.16508">
        <ele>1059.510254</ele>
        <time>2011-07-05T09:14:55Z</time>
      </trkpt>
      <trkpt lat="44.44194" lon="6.16499">
        <ele>1059.990723</ele>
        <time>2011-07-05T09:15:03Z</time>
      </trkpt>
      <trkpt lat="44.44194" lon="6.16499">
        <ele>1062.874756</ele>
        <time>2011-07-05T09:15:29Z</time>
      </trkpt>
      <trkpt lat="44.44194" lon="6.16499">
        <ele>1064.797363</ele>
        <time>2011-07-05T09:15:48Z</time>
      </trkpt>
      <trkpt lat="44.44194" lon="6.16499">
        <ele>1065.278076</ele>
        <time>2011-07-05T09:16:06Z</time>
      </trkpt>
      <trkpt lat="44.44194" lon="6.16499">
        <ele>1067.200684</ele>
        <time>2011-07-05T09:16:25Z</time>
      </trkpt>
      <trkpt lat="44.44194" lon="6.16499">
        <ele>1067.681152</ele>
        <time>2011-07-05T09:16:48Z</time>
      </trkpt>
      <trkpt lat="44.44194" lon="6.16499">
        <ele>1068.642822</ele>
        <time>2011-07-05T09:17:11Z</time>
      </trkpt>
      <trkpt lat="44.44194" lon="6.16499">
        <ele>1068.642822</ele>
        <time>2011-07-05T09:17:17Z</time>
      </trkpt>
      <trkpt lat="44.44194" lon="6.16499">
        <ele>1067.200684</ele>
        <time>2011-07-05T09:17:32Z</time>
      </trkpt>
      <trkpt lat="44.44194" lon="6.16499">
        <ele>1067.681152</ele>
        <time>2011-07-05T09:17:46Z</time>
      </trkpt>
      <trkpt lat="44.44101" lon="6.16458">
        <ele>1070.084717</ele>
        <time>2011-07-05T09:18:07Z</time>
      </trkpt>
      <trkpt lat="44.44078" lon="6.16441">
        <ele>1072.96875</ele>
        <time>2011-07-05T09:18:28Z</time>
      </trkpt>
      <trkpt lat="44.44078" lon="6.16441">
        <ele>1073.449463</ele>
        <time>2011-07-05T09:18:35Z</time>
      </trkpt>
      <trkpt lat="44.44068" lon="6.1643">
        <ele>1075.371826</ele>
        <time>2011-07-05T09:18:54Z</time>
      </trkpt>
      <trkpt lat="44.44053" lon="6.16412">
        <ele>1076.813965</ele>
        <time>2011-07-05T09:19:02Z</time>
      </trkpt>
      <trkpt lat="44.44053" lon="6.16412">
        <ele>1077.294678</ele>
        <time>2011-07-05T09:19:04Z</time>
      </trkpt>
      <trkpt lat="44.44046" lon="6.16398">
        <ele>1078.255859</ele>
        <time>2011-07-05T09:19:08Z</time>
      </trkpt>
      <trkpt lat="44.44045" lon="6.16393">
        <ele>1077.775146</ele>
        <time>2011-07-05T09:19:14Z</time>
      </trkpt>
      <trkpt lat="44.44045" lon="6.16393">
        <ele>1081.139893</ele>
        <time>2011-07-05T09:19:25Z</time>
      </trkpt>
      <trkpt lat="44.44045" lon="6.16393">
        <ele>1081.139893</ele>
        <time>2011-07-05T09:19:26Z</time>
      </trkpt>
      <trkpt lat="44.44045" lon="6.16393">
        <ele>1079.697754</ele>
        <time>2011-07-05T09:19:28Z</time>
      </trkpt>
      <trkpt lat="44.44027" lon="6.16374">
        <ele>1079.697754</ele>
        <time>2011-07-05T09:19:38Z</time>
      </trkpt>
      <trkpt lat="44.44027" lon="6.16374">
        <ele>1081.139893</ele>
        <time>2011-07-05T09:19:40Z</time>
      </trkpt>
      <trkpt lat="44.44027" lon="6.16374">
        <ele>1083.542969</ele>
        <time>2011-07-05T09:19:53Z</time>
      </trkpt>
      <trkpt lat="44.44027" lon="6.16374">
        <ele>1083.542969</ele>
        <time>2011-07-05T09:19:57Z</time>
      </trkpt>
      <trkpt lat="44.43986" lon="6.16329">
        <ele>1085.946533</ele>
        <time>2011-07-05T09:20:23Z</time>
      </trkpt>
      <trkpt lat="44.43975" lon="6.16304">
        <ele>1088.349854</ele>
        <time>2011-07-05T09:20:49Z</time>
      </trkpt>
      <trkpt lat="44.4395" lon="6.16267">
        <ele>1090.75293</ele>
        <time>2011-07-05T09:21:08Z</time>
      </trkpt>
      <trkpt lat="44.43939" lon="6.16246">
        <ele>1092.675781</ele>
        <time>2011-07-05T09:21:26Z</time>
      </trkpt>
      <trkpt lat="44.4392" lon="6.16216">
        <ele>1096.040283</ele>
        <time>2011-07-05T09:21:52Z</time>
      </trkpt>
      <trkpt lat="44.43914" lon="6.16204">
        <ele>1097.962891</ele>
        <time>2011-07-05T09:22:13Z</time>
      </trkpt>
      <trkpt lat="44.43897" lon="6.16173">
        <ele>1098.924072</ele>
        <time>2011-07-05T09:22:25Z</time>
      </trkpt>
      <trkpt lat="44.4388" lon="6.16145">
        <ele>1101.80835</ele>
        <time>2011-07-05T09:22:47Z</time>
      </trkpt>
      <trkpt lat="44.4387" lon="6.16125">
        <ele>1102.769531</ele>
        <time>2011-07-05T09:23:03Z</time>
      </trkpt>
      <trkpt lat="44.43867" lon="6.16114">
        <ele>1103.730957</ele>
        <time>2011-07-05T09:23:10Z</time>
      </trkpt>
      <trkpt lat="44.43856" lon="6.16079">
        <ele>1107.095459</ele>
        <time>2011-07-05T09:23:31Z</time>
      </trkpt>
      <trkpt lat="44.43848" lon="6.16045">
        <ele>1109.018066</ele>
        <time>2011-07-05T09:23:54Z</time>
      </trkpt>
      <trkpt lat="44.43845" lon="6.16031">
        <ele>1109.498779</ele>
        <time>2011-07-05T09:24:02Z</time>
      </trkpt>
      <trkpt lat="44.43845" lon="6.16029">
        <ele>1110.459961</ele>
        <time>2011-07-05T09:24:07Z</time>
      </trkpt>
      <trkpt lat="44.43845" lon="6.16029">
        <ele>1110.940674</ele>
        <time>2011-07-05T09:24:11Z</time>
      </trkpt>
      <trkpt lat="44.43854" lon="6.16021">
        <ele>1111.421387</ele>
        <time>2011-07-05T09:24:14Z</time>
      </trkpt>
      <trkpt lat="44.43855" lon="6.16021">
        <ele>1111.421387</ele>
        <time>2011-07-05T09:24:16Z</time>
      </trkpt>
      <trkpt lat="44.43858" lon="6.16028">
        <ele>1111.9021</ele>
        <time>2011-07-05T09:24:20Z</time>
      </trkpt>
      <trkpt lat="44.4386" lon="6.1605">
        <ele>1113.824463</ele>
        <time>2011-07-05T09:24:40Z</time>
      </trkpt>
      <trkpt lat="44.43868" lon="6.16076">
        <ele>1116.70874</ele>
        <time>2011-07-05T09:25:03Z</time>
      </trkpt>
      <trkpt lat="44.43887" lon="6.16109">
        <ele>1119.592773</ele>
        <time>2011-07-05T09:25:21Z</time>
      </trkpt>
      <trkpt lat="44.43887" lon="6.16109">
        <ele>1120.553955</ele>
        <time>2011-07-05T09:25:30Z</time>
      </trkpt>
      <trkpt lat="44.43915" lon="6.16146">
        <ele>1122.476563</ele>
        <time>2011-07-05T09:25:53Z</time>
      </trkpt>
      <trkpt lat="44.43916" lon="6.16148">
        <ele>1122.957275</ele>
        <time>2011-07-05T09:25:58Z</time>
      </trkpt>
      <trkpt lat="44.43943" lon="6.16178">
        <ele>1126.321777</ele>
        <time>2011-07-05T09:26:26Z</time>
      </trkpt>
      <trkpt lat="44.43961" lon="6.16197">
        <ele>1126.80249</ele>
        <time>2011-07-05T09:26:39Z</time>
      </trkpt>
      <trkpt lat="44.43986" lon="6.16224">
        <ele>1128.725098</ele>
        <time>2011-07-05T09:27:05Z</time>
      </trkpt>
      <trkpt lat="44.43995" lon="6.16233">
        <ele>1130.166992</ele>
        <time>2011-07-05T09:27:14Z</time>
      </trkpt>
      <trkpt lat="44.44017" lon="6.16243">
        <ele>1131.128418</ele>
        <time>2011-07-05T09:27:34Z</time>
      </trkpt>
      <trkpt lat="44.44031" lon="6.16246">
        <ele>1132.089844</ele>
        <time>2011-07-05T09:27:45Z</time>
      </trkpt>
      <trkpt lat="44.44058" lon="6.16262">
        <ele>1135.454346</ele>
        <time>2011-07-05T09:28:10Z</time>
      </trkpt>
      <trkpt lat="44.44094" lon="6.16279">
        <ele>1136.89624</ele>
        <time>2011-07-05T09:28:38Z</time>
      </trkpt>
      <trkpt lat="44.44125" lon="6.16301">
        <ele>1139.299561</ele>
        <time>2011-07-05T09:29:04Z</time>
      </trkpt>
      <trkpt lat="44.44152" lon="6.16311">
        <ele>1141.222168</ele>
        <time>2011-07-05T09:29:26Z</time>
      </trkpt>
      <trkpt lat="44.44179" lon="6.16314">
        <ele>1143.625488</ele>
        <time>2011-07-05T09:29:47Z</time>
      </trkpt>
      <trkpt lat="44.4419" lon="6.1632">
        <ele>1144.106201</ele>
        <time>2011-07-05T09:29:56Z</time>
      </trkpt>
      <trkpt lat="44.44214" lon="6.16311">
        <ele>1145.548096</ele>
        <time>2011-07-05T09:30:15Z</time>
      </trkpt>
      <trkpt lat="44.44238" lon="6.16281">
        <ele>1147.470703</ele>
        <time>2011-07-05T09:30:38Z</time>
      </trkpt>
      <trkpt lat="44.44268" lon="6.16277">
        <ele>1148.432129</ele>
        <time>2011-07-05T09:30:57Z</time>
      </trkpt>
      <trkpt lat="44.44299" lon="6.16293">
        <ele>1148.912842</ele>
        <time>2011-07-05T09:31:15Z</time>
      </trkpt>
      <trkpt lat="44.44325" lon="6.16316">
        <ele>1148.432129</ele>
        <time>2011-07-05T09:31:31Z</time>
      </trkpt>
      <trkpt lat="44.44357" lon="6.16316">
        <ele>1151.796875</ele>
        <time>2011-07-05T09:31:56Z</time>
      </trkpt>
      <trkpt lat="44.4439" lon="6.16304">
        <ele>1154.200195</ele>
        <time>2011-07-05T09:32:24Z</time>
      </trkpt>
      <trkpt lat="44.44415" lon="6.16289">
        <ele>1157.564697</ele>
        <time>2011-07-05T09:32:49Z</time>
      </trkpt>
      <trkpt lat="44.44415" lon="6.16289">
        <ele>1159.006592</ele>
        <time>2011-07-05T09:33:00Z</time>
      </trkpt>
      <trkpt lat="44.44441" lon="6.16257">
        <ele>1161.409912</ele>
        <time>2011-07-05T09:33:24Z</time>
      </trkpt>
      <trkpt lat="44.44441" lon="6.16257">
        <ele>1164.293945</ele>
        <time>2011-07-05T09:33:47Z</time>
      </trkpt>
      <trkpt lat="44.44441" lon="6.16257">
        <ele>1167.658447</ele>
        <time>2011-07-05T09:34:09Z</time>
      </trkpt>
      <trkpt lat="44.44441" lon="6.16257">
        <ele>1167.177979</ele>
        <time>2011-07-05T09:34:11Z</time>
      </trkpt>
      <trkpt lat="44.44441" lon="6.16257">
        <ele>1170.54248</ele>
        <time>2011-07-05T09:34:30Z</time>
      </trkpt>
      <trkpt lat="44.44441" lon="6.16257">
        <ele>1170.54248</ele>
        <time>2011-07-05T09:34:33Z</time>
      </trkpt>
      <trkpt lat="44.44506" lon="6.16169">
        <ele>1172.945801</ele>
        <time>2011-07-05T09:34:48Z</time>
      </trkpt>
      <trkpt lat="44.44506" lon="6.16169">
        <ele>1172.465088</ele>
        <time>2011-07-05T09:34:50Z</time>
      </trkpt>
      <trkpt lat="44.44506" lon="6.16169">
        <ele>1172.945801</ele>
        <time>2011-07-05T09:34:53Z</time>
      </trkpt>
      <trkpt lat="44.44506" lon="6.1616">
        <ele>1173.426514</ele>
        <time>2011-07-05T09:34:55Z</time>
      </trkpt>
      <trkpt lat="44.44506" lon="6.1616">
        <ele>1174.387695</ele>
        <time>2011-07-05T09:35:13Z</time>
      </trkpt>
      <trkpt lat="44.44506" lon="6.1616">
        <ele>1175.82959</ele>
        <time>2011-07-05T09:35:55Z</time>
      </trkpt>
      <trkpt lat="44.44506" lon="6.1616">
        <ele>1174.387695</ele>
        <time>2011-07-05T09:35:57Z</time>
      </trkpt>
      <trkpt lat="44.44506" lon="6.1616">
        <ele>1175.348877</ele>
        <time>2011-07-05T09:36:01Z</time>
      </trkpt>
      <trkpt lat="44.44507" lon="6.16144">
        <ele>1173.906982</ele>
        <time>2011-07-05T09:36:04Z</time>
      </trkpt>
      <trkpt lat="44.44508" lon="6.16138">
        <ele>1174.868408</ele>
        <time>2011-07-05T09:36:07Z</time>
      </trkpt>
      <trkpt lat="44.44511" lon="6.16125">
        <ele>1174.868408</ele>
        <time>2011-07-05T09:36:12Z</time>
      </trkpt>
      <trkpt lat="44.44514" lon="6.1612">
        <ele>1173.426514</ele>
        <time>2011-07-05T09:36:14Z</time>
      </trkpt>
      <trkpt lat="44.4452" lon="6.16115">
        <ele>1175.82959</ele>
        <time>2011-07-05T09:36:18Z</time>
      </trkpt>
      <trkpt lat="44.44541" lon="6.1611">
        <ele>1176.791016</ele>
        <time>2011-07-05T09:36:35Z</time>
      </trkpt>
      <trkpt lat="44.44542" lon="6.16109">
        <ele>1177.271729</ele>
        <time>2011-07-05T09:36:36Z</time>
      </trkpt>
      <trkpt lat="44.44548" lon="6.16102">
        <ele>1178.23291</ele>
        <time>2011-07-05T09:36:44Z</time>
      </trkpt>
      <trkpt lat="44.44554" lon="6.16095">
        <ele>1177.752197</ele>
        <time>2011-07-05T09:36:50Z</time>
      </trkpt>
      <trkpt lat="44.44565" lon="6.16084">
        <ele>1179.194092</ele>
        <time>2011-07-05T09:37:04Z</time>
      </trkpt>
      <trkpt lat="44.44586" lon="6.161">
        <ele>1182.078369</ele>
        <time>2011-07-05T09:37:24Z</time>
      </trkpt>
      <trkpt lat="44.44612" lon="6.16092">
        <ele>1183.520264</ele>
        <time>2011-07-05T09:37:44Z</time>
      </trkpt>
      <trkpt lat="44.44612" lon="6.16092">
        <ele>1184.481689</ele>
        <time>2011-07-05T09:37:52Z</time>
      </trkpt>
      <trkpt lat="44.44622" lon="6.16077">
        <ele>1184.962402</ele>
        <time>2011-07-05T09:37:56Z</time>
      </trkpt>
      <trkpt lat="44.44627" lon="6.16071">
        <ele>1185.442871</ele>
        <time>2011-07-05T09:38:05Z</time>
      </trkpt>
      <trkpt lat="44.44643" lon="6.1607">
        <ele>1185.923584</ele>
        <time>2011-07-05T09:38:16Z</time>
      </trkpt>
      <trkpt lat="44.44665" lon="6.16074">
        <ele>1187.846191</ele>
        <time>2011-07-05T09:38:34Z</time>
      </trkpt>
      <trkpt lat="44.44677" lon="6.16076">
        <ele>1189.768799</ele>
        <time>2011-07-05T09:38:47Z</time>
      </trkpt>
      <trkpt lat="44.44695" lon="6.16077">
        <ele>1192.172119</ele>
        <time>2011-07-05T09:39:10Z</time>
      </trkpt>
      <trkpt lat="44.44695" lon="6.16077">
        <ele>1193.133301</ele>
        <time>2011-07-05T09:39:17Z</time>
      </trkpt>
      <trkpt lat="44.44725" lon="6.16058">
        <ele>1194.575195</ele>
        <time>2011-07-05T09:39:27Z</time>
      </trkpt>
      <trkpt lat="44.44728" lon="6.16054">
        <ele>1195.536621</ele>
        <time>2011-07-05T09:39:31Z</time>
      </trkpt>
      <trkpt lat="44.4473" lon="6.16047">
        <ele>1193.614014</ele>
        <time>2011-07-05T09:39:34Z</time>
      </trkpt>
      <trkpt lat="44.44731" lon="6.16035">
        <ele>1195.055908</ele>
        <time>2011-07-05T09:39:50Z</time>
      </trkpt>
      <trkpt lat="44.44731" lon="6.16035">
        <ele>1195.536621</ele>
        <time>2011-07-05T09:39:55Z</time>
      </trkpt>
      <trkpt lat="44.44731" lon="6.16035">
        <ele>1196.017578</ele>
        <time>2011-07-05T09:40:33Z</time>
      </trkpt>
      <trkpt lat="44.44731" lon="6.16035">
        <ele>1196.017578</ele>
        <time>2011-07-05T09:40:54Z</time>
      </trkpt>
      <trkpt lat="44.44731" lon="6.16035">
        <ele>1196.017578</ele>
        <time>2011-07-05T09:41:01Z</time>
      </trkpt>
      <trkpt lat="44.44731" lon="6.16035">
        <ele>1196.017578</ele>
        <time>2011-07-05T09:41:17Z</time>
      </trkpt>
      <trkpt lat="44.44731" lon="6.16035">
        <ele>1195.536621</ele>
        <time>2011-07-05T09:41:41Z</time>
      </trkpt>
      <trkpt lat="44.44731" lon="6.16027">
        <ele>1196.017578</ele>
        <time>2011-07-05T09:41:58Z</time>
      </trkpt>
      <trkpt lat="44.44731" lon="6.15996">
        <ele>1199.38208</ele>
        <time>2011-07-05T09:42:15Z</time>
      </trkpt>
      <trkpt lat="44.44731" lon="6.15996">
        <ele>1199.38208</ele>
        <time>2011-07-05T09:42:16Z</time>
      </trkpt>
      <trkpt lat="44.44731" lon="6.15996">
        <ele>1197.940186</ele>
        <time>2011-07-05T09:42:18Z</time>
      </trkpt>
      <trkpt lat="44.44729" lon="6.15971">
        <ele>1199.862793</ele>
        <time>2011-07-05T09:42:35Z</time>
      </trkpt>
      <trkpt lat="44.44729" lon="6.15971">
        <ele>1201.304688</ele>
        <time>2011-07-05T09:42:37Z</time>
      </trkpt>
      <trkpt lat="44.44729" lon="6.15971">
        <ele>1201.7854</ele>
        <time>2011-07-05T09:42:42Z</time>
      </trkpt>
      <trkpt lat="44.44729" lon="6.15971">
        <ele>1201.304688</ele>
        <time>2011-07-05T09:42:48Z</time>
      </trkpt>
      <trkpt lat="44.44719" lon="6.15915">
        <ele>1205.149902</ele>
        <time>2011-07-05T09:43:12Z</time>
      </trkpt>
      <trkpt lat="44.44714" lon="6.15887">
        <ele>1206.591797</ele>
        <time>2011-07-05T09:43:26Z</time>
      </trkpt>
      <trkpt lat="44.44712" lon="6.1588">
        <ele>1208.995117</ele>
        <time>2011-07-05T09:43:41Z</time>
      </trkpt>
      <trkpt lat="44.44712" lon="6.1588">
        <ele>1209.956299</ele>
        <time>2011-07-05T09:43:48Z</time>
      </trkpt>
      <trkpt lat="44.44712" lon="6.1588">
        <ele>1209.47583</ele>
        <time>2011-07-05T09:43:50Z</time>
      </trkpt>
      <trkpt lat="44.44695" lon="6.15833">
        <ele>1212.840576</ele>
        <time>2011-07-05T09:44:13Z</time>
      </trkpt>
      <trkpt lat="44.44675" lon="6.15791">
        <ele>1215.243896</ele>
        <time>2011-07-05T09:44:40Z</time>
      </trkpt>
      <trkpt lat="44.44675" lon="6.15791">
        <ele>1218.608398</ele>
        <time>2011-07-05T09:45:04Z</time>
      </trkpt>
      <trkpt lat="44.44675" lon="6.15791">
        <ele>1219.089111</ele>
        <time>2011-07-05T09:45:11Z</time>
      </trkpt>
      <trkpt lat="44.44675" lon="6.15791">
        <ele>1220.531006</ele>
        <time>2011-07-05T09:45:27Z</time>
      </trkpt>
      <trkpt lat="44.44613" lon="6.15719">
        <ele>1223.415039</ele>
        <time>2011-07-05T09:45:49Z</time>
      </trkpt>
      <trkpt lat="44.44612" lon="6.15718">
        <ele>1224.376221</ele>
        <time>2011-07-05T09:45:55Z</time>
      </trkpt>
      <trkpt lat="44.44606" lon="6.15712">
        <ele>1224.856934</ele>
        <time>2011-07-05T09:45:57Z</time>
      </trkpt>
      <trkpt lat="44.44606" lon="6.15712">
        <ele>1224.856934</ele>
        <time>2011-07-05T09:46:01Z</time>
      </trkpt>
      <trkpt lat="44.44589" lon="6.15692">
        <ele>1227.260254</ele>
        <time>2011-07-05T09:46:22Z</time>
      </trkpt>
      <trkpt lat="44.44574" lon="6.15675">
        <ele>1228.702393</ele>
        <time>2011-07-05T09:46:31Z</time>
      </trkpt>
      <trkpt lat="44.4456" lon="6.15659">
        <ele>1229.182861</ele>
        <time>2011-07-05T09:46:43Z</time>
      </trkpt>
      <trkpt lat="44.44556" lon="6.15643">
        <ele>1229.663574</ele>
        <time>2011-07-05T09:46:54Z</time>
      </trkpt>
      <trkpt lat="44.44554" lon="6.15636">
        <ele>1230.625</ele>
        <time>2011-07-05T09:46:58Z</time>
      </trkpt>
      <trkpt lat="44.44537" lon="6.15602">
        <ele>1233.028076</ele>
        <time>2011-07-05T09:47:22Z</time>
      </trkpt>
      <trkpt lat="44.44519" lon="6.15568">
        <ele>1235.431396</ele>
        <time>2011-07-05T09:47:44Z</time>
      </trkpt>
      <trkpt lat="44.44503" lon="6.15541">
        <ele>1236.392822</ele>
        <time>2011-07-05T09:48:03Z</time>
      </trkpt>
      <trkpt lat="44.44499" lon="6.15535">
        <ele>1237.834717</ele>
        <time>2011-07-05T09:48:07Z</time>
      </trkpt>
      <trkpt lat="44.44497" lon="6.15532">
        <ele>1237.834717</ele>
        <time>2011-07-05T09:48:10Z</time>
      </trkpt>
      <trkpt lat="44.44473" lon="6.15501">
        <ele>1241.679932</ele>
        <time>2011-07-05T09:48:35Z</time>
      </trkpt>
      <trkpt lat="44.44473" lon="6.15501">
        <ele>1241.679932</ele>
        <time>2011-07-05T09:48:36Z</time>
      </trkpt>
      <trkpt lat="44.44451" lon="6.15475">
        <ele>1242.160645</ele>
        <time>2011-07-05T09:48:58Z</time>
      </trkpt>
      <trkpt lat="44.44439" lon="6.15466">
        <ele>1242.160645</ele>
        <time>2011-07-05T09:49:07Z</time>
      </trkpt>
      <trkpt lat="44.44433" lon="6.1546">
        <ele>1242.641357</ele>
        <time>2011-07-05T09:49:18Z</time>
      </trkpt>
      <trkpt lat="44.44433" lon="6.1546">
        <ele>1240.718506</ele>
        <time>2011-07-05T09:49:20Z</time>
      </trkpt>
      <trkpt lat="44.44433" lon="6.1546">
        <ele>1242.160645</ele>
        <time>2011-07-05T09:49:22Z</time>
      </trkpt>
      <trkpt lat="44.44433" lon="6.1546">
        <ele>1242.641357</ele>
        <time>2011-07-05T09:49:34Z</time>
      </trkpt>
      <trkpt lat="44.44433" lon="6.1546">
        <ele>1242.160645</ele>
        <time>2011-07-05T09:49:44Z</time>
      </trkpt>
      <trkpt lat="44.44434" lon="6.15446">
        <ele>1240.718506</ele>
        <time>2011-07-05T09:49:49Z</time>
      </trkpt>
      <trkpt lat="44.4445" lon="6.15409">
        <ele>1239.276611</ele>
        <time>2011-07-05T09:50:01Z</time>
      </trkpt>
      <trkpt lat="44.44456" lon="6.15391">
        <ele>1236.392822</ele>
        <time>2011-07-05T09:50:06Z</time>
      </trkpt>
      <trkpt lat="44.44458" lon="6.15346">
        <ele>1233.508789</ele>
        <time>2011-07-05T09:50:20Z</time>
      </trkpt>
      <trkpt lat="44.44457" lon="6.15317">
        <ele>1231.586182</ele>
        <time>2011-07-05T09:50:29Z</time>
      </trkpt>
      <trkpt lat="44.44464" lon="6.15295">
        <ele>1230.144287</ele>
        <time>2011-07-05T09:50:35Z</time>
      </trkpt>
      <trkpt lat="44.44466" lon="6.15283">
        <ele>1227.260254</ele>
        <time>2011-07-05T09:50:48Z</time>
      </trkpt>
      <trkpt lat="44.44466" lon="6.15283">
        <ele>1229.663574</ele>
        <time>2011-07-05T09:50:50Z</time>
      </trkpt>
      <trkpt lat="44.44466" lon="6.15283">
        <ele>1227.260254</ele>
        <time>2011-07-05T09:51:04Z</time>
      </trkpt>
      <trkpt lat="44.4447" lon="6.15257">
        <ele>1226.779541</ele>
        <time>2011-07-05T09:51:13Z</time>
      </trkpt>
      <trkpt lat="44.44474" lon="6.15224">
        <ele>1223.895508</ele>
        <time>2011-07-05T09:51:21Z</time>
      </trkpt>
      <trkpt lat="44.44479" lon="6.15191">
        <ele>1222.934326</ele>
        <time>2011-07-05T09:51:30Z</time>
      </trkpt>
      <trkpt lat="44.44474" lon="6.15186">
        <ele>1221.492188</ele>
        <time>2011-07-05T09:51:36Z</time>
      </trkpt>
      <trkpt lat="44.44464" lon="6.15182">
        <ele>1221.492188</ele>
        <time>2011-07-05T09:51:53Z</time>
      </trkpt>
      <trkpt lat="44.44464" lon="6.15182">
        <ele>1224.856934</ele>
        <time>2011-07-05T09:53:04Z</time>
      </trkpt>
      <trkpt lat="44.44464" lon="6.15182">
        <ele>1224.856934</ele>
        <time>2011-07-05T09:53:05Z</time>
      </trkpt>
      <trkpt lat="44.44464" lon="6.15182">
        <ele>1224.376221</ele>
        <time>2011-07-05T09:53:59Z</time>
      </trkpt>
      <trkpt lat="44.44464" lon="6.15182">
        <ele>1222.934326</ele>
        <time>2011-07-05T09:54:19Z</time>
      </trkpt>
      <trkpt lat="44.44464" lon="6.15182">
        <ele>1224.856934</ele>
        <time>2011-07-05T09:54:27Z</time>
      </trkpt>
      <trkpt lat="44.44464" lon="6.15182">
        <ele>1222.453613</ele>
        <time>2011-07-05T09:54:29Z</time>
      </trkpt>
      <trkpt lat="44.44464" lon="6.15182">
        <ele>1224.376221</ele>
        <time>2011-07-05T09:54:31Z</time>
      </trkpt>
      <trkpt lat="44.44464" lon="6.15182">
        <ele>1223.415039</ele>
        <time>2011-07-05T09:54:35Z</time>
      </trkpt>
      <trkpt lat="44.44464" lon="6.15182">
        <ele>1223.415039</ele>
        <time>2011-07-05T09:54:48Z</time>
      </trkpt>
      <trkpt lat="44.44464" lon="6.15182">
        <ele>1223.415039</ele>
        <time>2011-07-05T09:54:56Z</time>
      </trkpt>
      <trkpt lat="44.44464" lon="6.15182">
        <ele>1223.415039</ele>
        <time>2011-07-05T09:54:57Z</time>
      </trkpt>
      <trkpt lat="44.4447" lon="6.15187">
        <ele>1224.856934</ele>
        <time>2011-07-05T09:55:03Z</time>
      </trkpt>
      <trkpt lat="44.44473" lon="6.15187">
        <ele>1222.453613</ele>
        <time>2011-07-05T09:55:11Z</time>
      </trkpt>
      <trkpt lat="44.44475" lon="6.15185">
        <ele>1223.895508</ele>
        <time>2011-07-05T09:55:13Z</time>
      </trkpt>
      <trkpt lat="44.44478" lon="6.15181">
        <ele>1223.415039</ele>
        <time>2011-07-05T09:55:31Z</time>
      </trkpt>
      <trkpt lat="44.44478" lon="6.15181">
        <ele>1221.9729</ele>
        <time>2011-07-05T09:55:44Z</time>
      </trkpt>
      <trkpt lat="44.44478" lon="6.15181">
        <ele>1223.415039</ele>
        <time>2011-07-05T09:56:02Z</time>
      </trkpt>
      <trkpt lat="44.44478" lon="6.15181">
        <ele>1223.415039</ele>
        <time>2011-07-05T09:56:20Z</time>
      </trkpt>
      <trkpt lat="44.44478" lon="6.15181">
        <ele>1223.895508</ele>
        <time>2011-07-05T09:56:41Z</time>
      </trkpt>
      <trkpt lat="44.44478" lon="6.15181">
        <ele>1223.895508</ele>
        <time>2011-07-05T09:57:00Z</time>
      </trkpt>
      <trkpt lat="44.44478" lon="6.15181">
        <ele>1223.895508</ele>
        <time>2011-07-05T09:57:18Z</time>
      </trkpt>
      <trkpt lat="44.44478" lon="6.15181">
        <ele>1223.895508</ele>
        <time>2011-07-05T09:57:36Z</time>
      </trkpt>
      <trkpt lat="44.44476" lon="6.15185">
        <ele>1224.376221</ele>
        <time>2011-07-05T09:57:48Z</time>
      </trkpt>
      <trkpt lat="44.44475" lon="6.15186">
        <ele>1223.895508</ele>
        <time>2011-07-05T09:58:04Z</time>
      </trkpt>
      <trkpt lat="44.44478" lon="6.15181">
        <ele>1223.895508</ele>
        <time>2011-07-05T09:58:25Z</time>
      </trkpt>
      <trkpt lat="44.44478" lon="6.15181">
        <ele>1224.376221</ele>
        <time>2011-07-05T09:58:43Z</time>
      </trkpt>
      <trkpt lat="44.44478" lon="6.15181">
        <ele>1224.376221</ele>
        <time>2011-07-05T09:58:58Z</time>
      </trkpt>
      <trkpt lat="44.44478" lon="6.15181">
        <ele>1224.856934</ele>
        <time>2011-07-05T09:59:17Z</time>
      </trkpt>
      <trkpt lat="44.44477" lon="6.15184">
        <ele>1224.376221</ele>
        <time>2011-07-05T09:59:34Z</time>
      </trkpt>
      <trkpt lat="44.44478" lon="6.15181">
        <ele>1224.376221</ele>
        <time>2011-07-05T09:59:50Z</time>
      </trkpt>
      <trkpt lat="44.44474" lon="6.15186">
        <ele>1224.376221</ele>
        <time>2011-07-05T10:00:07Z</time>
      </trkpt>
      <trkpt lat="44.44474" lon="6.15186">
        <ele>1224.856934</ele>
        <time>2011-07-05T10:00:27Z</time>
      </trkpt>
      <trkpt lat="44.44474" lon="6.15186">
        <ele>1225.337402</ele>
        <time>2011-07-05T10:01:38Z</time>
      </trkpt>
      <trkpt lat="44.44474" lon="6.15186">
        <ele>1226.779541</ele>
        <time>2011-07-05T10:02:09Z</time>
      </trkpt>
      <trkpt lat="44.44474" lon="6.15186">
        <ele>1226.779541</ele>
        <time>2011-07-05T10:02:21Z</time>
      </trkpt>
      <trkpt lat="44.44463" lon="6.15143">
        <ele>1228.22168</ele>
        <time>2011-07-05T10:02:40Z</time>
      </trkpt>
      <trkpt lat="44.44463" lon="6.15135">
        <ele>1229.663574</ele>
        <time>2011-07-05T10:02:47Z</time>
      </trkpt>
      <trkpt lat="44.44453" lon="6.15106">
        <ele>1231.586182</ele>
        <time>2011-07-05T10:03:06Z</time>
      </trkpt>
      <trkpt lat="44.44453" lon="6.15106">
        <ele>1232.547607</ele>
        <time>2011-07-05T10:03:13Z</time>
      </trkpt>
      <trkpt lat="44.44444" lon="6.15067">
        <ele>1235.912109</ele>
        <time>2011-07-05T10:03:37Z</time>
      </trkpt>
      <trkpt lat="44.44452" lon="6.15054">
        <ele>1236.873291</ele>
        <time>2011-07-05T10:03:47Z</time>
      </trkpt>
      <trkpt lat="44.44455" lon="6.15043">
        <ele>1238.796143</ele>
        <time>2011-07-05T10:04:05Z</time>
      </trkpt>
      <trkpt lat="44.44455" lon="6.15043">
        <ele>1239.757324</ele>
        <time>2011-07-05T10:04:09Z</time>
      </trkpt>
      <trkpt lat="44.4444" lon="6.15004">
        <ele>1241.679932</ele>
        <time>2011-07-05T10:04:26Z</time>
      </trkpt>
      <trkpt lat="44.44439" lon="6.15003">
        <ele>1243.602539</ele>
        <time>2011-07-05T10:04:46Z</time>
      </trkpt>
      <trkpt lat="44.44421" lon="6.14967">
        <ele>1246.006104</ele>
        <time>2011-07-05T10:05:02Z</time>
      </trkpt>
      <trkpt lat="44.4442" lon="6.14955">
        <ele>1246.006104</ele>
        <time>2011-07-05T10:05:06Z</time>
      </trkpt>
      <trkpt lat="44.4442" lon="6.14955">
        <ele>1246.967285</ele>
        <time>2011-07-05T10:05:12Z</time>
      </trkpt>
      <trkpt lat="44.4442" lon="6.14955">
        <ele>1248.40918</ele>
        <time>2011-07-05T10:05:20Z</time>
      </trkpt>
      <trkpt lat="44.4442" lon="6.14955">
        <ele>1250.332031</ele>
        <time>2011-07-05T10:05:38Z</time>
      </trkpt>
      <trkpt lat="44.4442" lon="6.14955">
        <ele>1250.8125</ele>
        <time>2011-07-05T10:05:44Z</time>
      </trkpt>
      <trkpt lat="44.44415" lon="6.14907">
        <ele>1250.8125</ele>
        <time>2011-07-05T10:05:46Z</time>
      </trkpt>
      <trkpt lat="44.44414" lon="6.14904">
        <ele>1253.21582</ele>
        <time>2011-07-05T10:06:04Z</time>
      </trkpt>
      <trkpt lat="44.44414" lon="6.14904">
        <ele>1253.696533</ele>
        <time>2011-07-05T10:06:18Z</time>
      </trkpt>
      <trkpt lat="44.44414" lon="6.14904">
        <ele>1255.138428</ele>
        <time>2011-07-05T10:06:40Z</time>
      </trkpt>
      <trkpt lat="44.44414" lon="6.14904">
        <ele>1255.619141</ele>
        <time>2011-07-05T10:06:59Z</time>
      </trkpt>
      <trkpt lat="44.44414" lon="6.14904">
        <ele>1255.619141</ele>
        <time>2011-07-05T10:07:04Z</time>
      </trkpt>
      <trkpt lat="44.44424" lon="6.14819">
        <ele>1258.022461</ele>
        <time>2011-07-05T10:07:23Z</time>
      </trkpt>
      <trkpt lat="44.44431" lon="6.14799">
        <ele>1259.464355</ele>
        <time>2011-07-05T10:07:36Z</time>
      </trkpt>
      <trkpt lat="44.44435" lon="6.14788">
        <ele>1260.906494</ele>
        <time>2011-07-05T10:07:43Z</time>
      </trkpt>
      <trkpt lat="44.4444" lon="6.14774">
        <ele>1262.348389</ele>
        <time>2011-07-05T10:07:51Z</time>
      </trkpt>
      <trkpt lat="44.44441" lon="6.14773">
        <ele>1262.829102</ele>
        <time>2011-07-05T10:07:57Z</time>
      </trkpt>
      <trkpt lat="44.44446" lon="6.14765">
        <ele>1263.309814</ele>
        <time>2011-07-05T10:08:01Z</time>
      </trkpt>
      <trkpt lat="44.44446" lon="6.14765">
        <ele>1264.270996</ele>
        <time>2011-07-05T10:08:10Z</time>
      </trkpt>
      <trkpt lat="44.44446" lon="6.14765">
        <ele>1264.751709</ele>
        <time>2011-07-05T10:08:13Z</time>
      </trkpt>
      <trkpt lat="44.44446" lon="6.14765">
        <ele>1266.193604</ele>
        <time>2011-07-05T10:08:21Z</time>
      </trkpt>
      <trkpt lat="44.44465" lon="6.14768">
        <ele>1266.193604</ele>
        <time>2011-07-05T10:08:24Z</time>
      </trkpt>
      <trkpt lat="44.44472" lon="6.14786">
        <ele>1267.635498</ele>
        <time>2011-07-05T10:08:35Z</time>
      </trkpt>
      <trkpt lat="44.44489" lon="6.14803">
        <ele>1269.077637</ele>
        <time>2011-07-05T10:08:56Z</time>
      </trkpt>
      <trkpt lat="44.44489" lon="6.14803">
        <ele>1270.519531</ele>
        <time>2011-07-05T10:09:05Z</time>
      </trkpt>
      <trkpt lat="44.44489" lon="6.14803">
        <ele>1271.000244</ele>
        <time>2011-07-05T10:09:09Z</time>
      </trkpt>
      <trkpt lat="44.44505" lon="6.14788">
        <ele>1271.480713</ele>
        <time>2011-07-05T10:09:13Z</time>
      </trkpt>
      <trkpt lat="44.44512" lon="6.14792">
        <ele>1274.364746</ele>
        <time>2011-07-05T10:09:35Z</time>
      </trkpt>
      <trkpt lat="44.44512" lon="6.14792">
        <ele>1274.845459</ele>
        <time>2011-07-05T10:09:37Z</time>
      </trkpt>
      <trkpt lat="44.44512" lon="6.14792">
        <ele>1277.249023</ele>
        <time>2011-07-05T10:09:59Z</time>
      </trkpt>
      <trkpt lat="44.44512" lon="6.14792">
        <ele>1280.613525</ele>
        <time>2011-07-05T10:10:22Z</time>
      </trkpt>
      <trkpt lat="44.44574" lon="6.14826">
        <ele>1281.574707</ele>
        <time>2011-07-05T10:10:27Z</time>
      </trkpt>
      <trkpt lat="44.44574" lon="6.14826">
        <ele>1281.574707</ele>
        <time>2011-07-05T10:10:30Z</time>
      </trkpt>
      <trkpt lat="44.44574" lon="6.14826">
        <ele>1282.536133</ele>
        <time>2011-07-05T10:10:39Z</time>
      </trkpt>
      <trkpt lat="44.44603" lon="6.14829">
        <ele>1284.45874</ele>
        <time>2011-07-05T10:10:55Z</time>
      </trkpt>
      <trkpt lat="44.44603" lon="6.14829">
        <ele>1285.900635</ele>
        <time>2011-07-05T10:11:09Z</time>
      </trkpt>
      <trkpt lat="44.44603" lon="6.14829">
        <ele>1286.381348</ele>
        <time>2011-07-05T10:11:12Z</time>
      </trkpt>
      <trkpt lat="44.44603" lon="6.14829">
        <ele>1285.900635</ele>
        <time>2011-07-05T10:11:14Z</time>
      </trkpt>
      <trkpt lat="44.44603" lon="6.14829">
        <ele>1288.303955</ele>
        <time>2011-07-05T10:11:31Z</time>
      </trkpt>
      <trkpt lat="44.44603" lon="6.14829">
        <ele>1289.265137</ele>
        <time>2011-07-05T10:11:40Z</time>
      </trkpt>
      <trkpt lat="44.44679" lon="6.14859">
        <ele>1291.668457</ele>
        <time>2011-07-05T10:12:07Z</time>
      </trkpt>
      <trkpt lat="44.44692" lon="6.14869">
        <ele>1293.591309</ele>
        <time>2011-07-05T10:12:28Z</time>
      </trkpt>
      <trkpt lat="44.44692" lon="6.14869">
        <ele>1296.955811</ele>
        <time>2011-07-05T10:12:53Z</time>
      </trkpt>
      <trkpt lat="44.44692" lon="6.14869">
        <ele>1297.436523</ele>
        <time>2011-07-05T10:13:01Z</time>
      </trkpt>
      <trkpt lat="44.44692" lon="6.14869">
        <ele>1299.839844</ele>
        <time>2011-07-05T10:13:24Z</time>
      </trkpt>
      <trkpt lat="44.44692" lon="6.14869">
        <ele>1301.762451</ele>
        <time>2011-07-05T10:13:43Z</time>
      </trkpt>
      <trkpt lat="44.44767" lon="6.14941">
        <ele>1303.685059</ele>
        <time>2011-07-05T10:13:59Z</time>
      </trkpt>
      <trkpt lat="44.44767" lon="6.14941">
        <ele>1305.607666</ele>
        <time>2011-07-05T10:14:13Z</time>
      </trkpt>
      <trkpt lat="44.44767" lon="6.14941">
        <ele>1306.088135</ele>
        <time>2011-07-05T10:14:22Z</time>
      </trkpt>
      <trkpt lat="44.44767" lon="6.14941">
        <ele>1306.568848</ele>
        <time>2011-07-05T10:14:33Z</time>
      </trkpt>
      <trkpt lat="44.448" lon="6.14911">
        <ele>1309.933594</ele>
        <time>2011-07-05T10:15:01Z</time>
      </trkpt>
      <trkpt lat="44.44785" lon="6.14856">
        <ele>1311.856445</ele>
        <time>2011-07-05T10:15:19Z</time>
      </trkpt>
      <trkpt lat="44.44785" lon="6.14856">
        <ele>1311.375732</ele>
        <time>2011-07-05T10:15:21Z</time>
      </trkpt>
      <trkpt lat="44.44781" lon="6.14846">
        <ele>1312.817627</ele>
        <time>2011-07-05T10:15:24Z</time>
      </trkpt>
      <trkpt lat="44.44781" lon="6.14846">
        <ele>1312.817627</ele>
        <time>2011-07-05T10:15:28Z</time>
      </trkpt>
      <trkpt lat="44.44781" lon="6.14846">
        <ele>1314.740234</ele>
        <time>2011-07-05T10:15:47Z</time>
      </trkpt>
      <trkpt lat="44.44768" lon="6.14811">
        <ele>1316.182129</ele>
        <time>2011-07-05T10:16:00Z</time>
      </trkpt>
      <trkpt lat="44.44768" lon="6.14811">
        <ele>1317.624023</ele>
        <time>2011-07-05T10:16:04Z</time>
      </trkpt>
      <trkpt lat="44.44768" lon="6.14811">
        <ele>1319.066162</ele>
        <time>2011-07-05T10:16:20Z</time>
      </trkpt>
      <trkpt lat="44.44768" lon="6.14811">
        <ele>1319.066162</ele>
        <time>2011-07-05T10:16:24Z</time>
      </trkpt>
      <trkpt lat="44.4473" lon="6.14783">
        <ele>1320.508057</ele>
        <time>2011-07-05T10:16:41Z</time>
      </trkpt>
      <trkpt lat="44.44711" lon="6.14778">
        <ele>1323.39209</ele>
        <time>2011-07-05T10:17:01Z</time>
      </trkpt>
      <trkpt lat="44.44711" lon="6.14778">
        <ele>1323.39209</ele>
        <time>2011-07-05T10:17:02Z</time>
      </trkpt>
      <trkpt lat="44.44687" lon="6.14779">
        <ele>1325.314697</ele>
        <time>2011-07-05T10:17:16Z</time>
      </trkpt>
      <trkpt lat="44.44687" lon="6.14779">
        <ele>1326.756836</ele>
        <time>2011-07-05T10:17:29Z</time>
      </trkpt>
      <trkpt lat="44.44687" lon="6.14779">
        <ele>1329.640625</ele>
        <time>2011-07-05T10:17:50Z</time>
      </trkpt>
      <trkpt lat="44.44687" lon="6.14779">
        <ele>1332.043945</ele>
        <time>2011-07-05T10:18:13Z</time>
      </trkpt>
      <trkpt lat="44.44687" lon="6.14779">
        <ele>1332.043945</ele>
        <time>2011-07-05T10:18:16Z</time>
      </trkpt>
      <trkpt lat="44.44687" lon="6.14779">
        <ele>1333.966553</ele>
        <time>2011-07-05T10:18:38Z</time>
      </trkpt>
      <trkpt lat="44.44603" lon="6.14734">
        <ele>1335.88916</ele>
        <time>2011-07-05T10:18:48Z</time>
      </trkpt>
      <trkpt lat="44.44603" lon="6.14734">
        <ele>1337.331055</ele>
        <time>2011-07-05T10:19:03Z</time>
      </trkpt>
      <trkpt lat="44.44603" lon="6.14734">
        <ele>1339.253662</ele>
        <time>2011-07-05T10:19:25Z</time>
      </trkpt>
      <trkpt lat="44.44603" lon="6.14734">
        <ele>1340.695801</ele>
        <time>2011-07-05T10:19:43Z</time>
      </trkpt>
      <trkpt lat="44.44603" lon="6.14734">
        <ele>1342.618652</ele>
        <time>2011-07-05T10:19:54Z</time>
      </trkpt>
      <trkpt lat="44.4454" lon="6.14624">
        <ele>1345.502441</ele>
        <time>2011-07-05T10:20:19Z</time>
      </trkpt>
      <trkpt lat="44.4454" lon="6.14622">
        <ele>1345.502441</ele>
        <time>2011-07-05T10:20:20Z</time>
      </trkpt>
      <trkpt lat="44.44538" lon="6.14617">
        <ele>1345.983154</ele>
        <time>2011-07-05T10:20:24Z</time>
      </trkpt>
      <trkpt lat="44.44537" lon="6.14614">
        <ele>1345.983154</ele>
        <time>2011-07-05T10:20:26Z</time>
      </trkpt>
      <trkpt lat="44.44526" lon="6.1459">
        <ele>1347.905762</ele>
        <time>2011-07-05T10:20:46Z</time>
      </trkpt>
      <trkpt lat="44.44516" lon="6.14562">
        <ele>1349.828369</ele>
        <time>2011-07-05T10:21:07Z</time>
      </trkpt>
      <trkpt lat="44.445" lon="6.14532">
        <ele>1352.712158</ele>
        <time>2011-07-05T10:21:31Z</time>
      </trkpt>
      <trkpt lat="44.44493" lon="6.14526">
        <ele>1353.673584</ele>
        <time>2011-07-05T10:21:39Z</time>
      </trkpt>
      <trkpt lat="44.44485" lon="6.14515">
        <ele>1354.634766</ele>
        <time>2011-07-05T10:21:49Z</time>
      </trkpt>
      <trkpt lat="44.44468" lon="6.14509">
        <ele>1355.596191</ele>
        <time>2011-07-05T10:22:05Z</time>
      </trkpt>
      <trkpt lat="44.44455" lon="6.14536">
        <ele>1356.557617</ele>
        <time>2011-07-05T10:22:20Z</time>
      </trkpt>
      <trkpt lat="44.44454" lon="6.14539">
        <ele>1356.076904</ele>
        <time>2011-07-05T10:22:21Z</time>
      </trkpt>
      <trkpt lat="44.44422" lon="6.1458">
        <ele>1356.076904</ele>
        <time>2011-07-05T10:22:44Z</time>
      </trkpt>
      <trkpt lat="44.44395" lon="6.14602">
        <ele>1357.03833</ele>
        <time>2011-07-05T10:23:01Z</time>
      </trkpt>
      <trkpt lat="44.44354" lon="6.14639">
        <ele>1357.03833</ele>
        <time>2011-07-05T10:23:23Z</time>
      </trkpt>
      <trkpt lat="44.44327" lon="6.14676">
        <ele>1357.519043</ele>
        <time>2011-07-05T10:23:40Z</time>
      </trkpt>
      <trkpt lat="44.443" lon="6.14698">
        <ele>1357.519043</ele>
        <time>2011-07-05T10:23:53Z</time>
      </trkpt>
      <trkpt lat="44.44285" lon="6.1472">
        <ele>1357.519043</ele>
        <time>2011-07-05T10:24:01Z</time>
      </trkpt>
      <trkpt lat="44.44258" lon="6.14772">
        <ele>1358.480225</ele>
        <time>2011-07-05T10:24:21Z</time>
      </trkpt>
      <trkpt lat="44.44246" lon="6.14824">
        <ele>1358.960938</ele>
        <time>2011-07-05T10:24:37Z</time>
      </trkpt>
      <trkpt lat="44.44235" lon="6.14854">
        <ele>1358.480225</ele>
        <time>2011-07-05T10:24:48Z</time>
      </trkpt>
      <trkpt lat="44.44231" lon="6.14845">
        <ele>1356.557617</ele>
        <time>2011-07-05T10:24:56Z</time>
      </trkpt>
      <trkpt lat="44.4423" lon="6.14845">
        <ele>1356.557617</ele>
        <time>2011-07-05T10:25:11Z</time>
      </trkpt>
      <trkpt lat="44.44228" lon="6.14844">
        <ele>1356.076904</ele>
        <time>2011-07-05T10:25:38Z</time>
      </trkpt>
      <trkpt lat="44.44225" lon="6.14839">
        <ele>1356.557617</ele>
        <time>2011-07-05T10:25:55Z</time>
      </trkpt>
      <trkpt lat="44.44211" lon="6.14809">
        <ele>1354.154297</ele>
        <time>2011-07-05T10:26:03Z</time>
      </trkpt>
      <trkpt lat="44.4419" lon="6.14782">
        <ele>1350.789551</ele>
        <time>2011-07-05T10:26:11Z</time>
      </trkpt>
      <trkpt lat="44.44169" lon="6.14752">
        <ele>1347.425049</ele>
        <time>2011-07-05T10:26:21Z</time>
      </trkpt>
      <trkpt lat="44.44168" lon="6.1475">
        <ele>1347.425049</ele>
        <time>2011-07-05T10:26:22Z</time>
      </trkpt>
      <trkpt lat="44.44161" lon="6.14736">
        <ele>1346.944336</ele>
        <time>2011-07-05T10:26:27Z</time>
      </trkpt>
      <trkpt lat="44.44151" lon="6.14701">
        <ele>1345.021729</ele>
        <time>2011-07-05T10:26:36Z</time>
      </trkpt>
      <trkpt lat="44.44151" lon="6.14682">
        <ele>1345.021729</ele>
        <time>2011-07-05T10:26:40Z</time>
      </trkpt>
      <trkpt lat="44.44152" lon="6.14664">
        <ele>1343.579834</ele>
        <time>2011-07-05T10:26:43Z</time>
      </trkpt>
      <trkpt lat="44.44157" lon="6.14644">
        <ele>1345.983154</ele>
        <time>2011-07-05T10:26:47Z</time>
      </trkpt>
      <trkpt lat="44.44159" lon="6.1464">
        <ele>1342.618652</ele>
        <time>2011-07-05T10:26:48Z</time>
      </trkpt>
      <trkpt lat="44.4416" lon="6.14636">
        <ele>1343.579834</ele>
        <time>2011-07-05T10:26:49Z</time>
      </trkpt>
      <trkpt lat="44.44152" lon="6.14609">
        <ele>1339.734375</ele>
        <time>2011-07-05T10:26:56Z</time>
      </trkpt>
      <trkpt lat="44.4415" lon="6.14605">
        <ele>1339.734375</ele>
        <time>2011-07-05T10:26:57Z</time>
      </trkpt>
      <trkpt lat="44.4415" lon="6.14598">
        <ele>1342.137939</ele>
        <time>2011-07-05T10:26:59Z</time>
      </trkpt>
      <trkpt lat="44.44152" lon="6.14569">
        <ele>1338.773193</ele>
        <time>2011-07-05T10:27:07Z</time>
      </trkpt>
      <trkpt lat="44.44151" lon="6.14568">
        <ele>1338.773193</ele>
        <time>2011-07-05T10:27:08Z</time>
      </trkpt>
      <trkpt lat="44.44143" lon="6.14563">
        <ele>1339.253662</ele>
        <time>2011-07-05T10:27:12Z</time>
      </trkpt>
      <trkpt lat="44.44136" lon="6.14561">
        <ele>1337.811768</ele>
        <time>2011-07-05T10:27:15Z</time>
      </trkpt>
      <trkpt lat="44.44134" lon="6.14561">
        <ele>1337.331055</ele>
        <time>2011-07-05T10:27:16Z</time>
      </trkpt>
      <trkpt lat="44.44124" lon="6.14556">
        <ele>1337.331055</ele>
        <time>2011-07-05T10:27:20Z</time>
      </trkpt>
      <trkpt lat="44.44102" lon="6.14551">
        <ele>1335.88916</ele>
        <time>2011-07-05T10:27:30Z</time>
      </trkpt>
      <trkpt lat="44.44084" lon="6.14518">
        <ele>1333.005127</ele>
        <time>2011-07-05T10:27:42Z</time>
      </trkpt>
      <trkpt lat="44.44079" lon="6.14518">
        <ele>1332.043945</ele>
        <time>2011-07-05T10:27:44Z</time>
      </trkpt>
      <trkpt lat="44.44055" lon="6.14546">
        <ele>1329.640625</ele>
        <time>2011-07-05T10:27:58Z</time>
      </trkpt>
      <trkpt lat="44.4402" lon="6.14562">
        <ele>1326.756836</ele>
        <time>2011-07-05T10:28:13Z</time>
      </trkpt>
      <trkpt lat="44.43993" lon="6.14573">
        <ele>1324.834229</ele>
        <time>2011-07-05T10:28:23Z</time>
      </trkpt>
      <trkpt lat="44.43982" lon="6.14567">
        <ele>1324.353516</ele>
        <time>2011-07-05T10:28:28Z</time>
      </trkpt>
      <trkpt lat="44.43967" lon="6.14527">
        <ele>1320.98877</ele>
        <time>2011-07-05T10:28:41Z</time>
      </trkpt>
      <trkpt lat="44.4395" lon="6.14482">
        <ele>1319.066162</ele>
        <time>2011-07-05T10:28:54Z</time>
      </trkpt>
      <trkpt lat="44.43953" lon="6.14468">
        <ele>1318.104736</ele>
        <time>2011-07-05T10:28:58Z</time>
      </trkpt>
      <trkpt lat="44.43942" lon="6.14454">
        <ele>1316.662842</ele>
        <time>2011-07-05T10:29:05Z</time>
      </trkpt>
      <trkpt lat="44.43906" lon="6.14473">
        <ele>1315.70166</ele>
        <time>2011-07-05T10:29:19Z</time>
      </trkpt>
      <trkpt lat="44.43892" lon="6.14481">
        <ele>1314.259521</ele>
        <time>2011-07-05T10:29:24Z</time>
      </trkpt>
      <trkpt lat="44.43869" lon="6.14479">
        <ele>1312.336914</ele>
        <time>2011-07-05T10:29:30Z</time>
      </trkpt>
      <trkpt lat="44.4386" lon="6.14481">
        <ele>1310.89502</ele>
        <time>2011-07-05T10:29:32Z</time>
      </trkpt>
      <trkpt lat="44.43839" lon="6.14486">
        <ele>1311.856445</ele>
        <time>2011-07-05T10:29:37Z</time>
      </trkpt>
      <trkpt lat="44.43829" lon="6.14488">
        <ele>1309.453125</ele>
        <time>2011-07-05T10:29:40Z</time>
      </trkpt>
      <trkpt lat="44.43794" lon="6.14478">
        <ele>1308.491699</ele>
        <time>2011-07-05T10:29:52Z</time>
      </trkpt>
      <trkpt lat="44.43792" lon="6.14475">
        <ele>1308.491699</ele>
        <time>2011-07-05T10:30:06Z</time>
      </trkpt>
      <trkpt lat="44.43792" lon="6.14475">
        <ele>1308.972412</ele>
        <time>2011-07-05T10:30:21Z</time>
      </trkpt>
      <trkpt lat="44.43792" lon="6.14475">
        <ele>1307.049561</ele>
        <time>2011-07-05T10:30:48Z</time>
      </trkpt>
      <trkpt lat="44.43787" lon="6.14448">
        <ele>1308.01123</ele>
        <time>2011-07-05T10:31:37Z</time>
      </trkpt>
      <trkpt lat="44.43802" lon="6.14395">
        <ele>1308.972412</ele>
        <time>2011-07-05T10:31:50Z</time>
      </trkpt>
      <trkpt lat="44.43811" lon="6.14364">
        <ele>1310.414307</ele>
        <time>2011-07-05T10:32:00Z</time>
      </trkpt>
      <trkpt lat="44.43809" lon="6.14353">
        <ele>1309.933594</ele>
        <time>2011-07-05T10:32:05Z</time>
      </trkpt>
      <trkpt lat="44.43775" lon="6.14335">
        <ele>1311.856445</ele>
        <time>2011-07-05T10:32:20Z</time>
      </trkpt>
      <trkpt lat="44.4376" lon="6.14326">
        <ele>1310.89502</ele>
        <time>2011-07-05T10:32:26Z</time>
      </trkpt>
      <trkpt lat="44.43742" lon="6.14286">
        <ele>1312.817627</ele>
        <time>2011-07-05T10:32:42Z</time>
      </trkpt>
      <trkpt lat="44.43744" lon="6.14229">
        <ele>1315.220947</ele>
        <time>2011-07-05T10:33:06Z</time>
      </trkpt>
      <trkpt lat="44.43745" lon="6.14218">
        <ele>1315.70166</ele>
        <time>2011-07-05T10:33:11Z</time>
      </trkpt>
      <trkpt lat="44.43751" lon="6.14195">
        <ele>1317.143555</ele>
        <time>2011-07-05T10:33:29Z</time>
      </trkpt>
      <trkpt lat="44.43762" lon="6.14161">
        <ele>1319.546875</ele>
        <time>2011-07-05T10:33:48Z</time>
      </trkpt>
      <trkpt lat="44.43775" lon="6.14122">
        <ele>1322.430664</ele>
        <time>2011-07-05T10:34:14Z</time>
      </trkpt>
      <trkpt lat="44.43778" lon="6.14106">
        <ele>1322.911377</ele>
        <time>2011-07-05T10:34:23Z</time>
      </trkpt>
      <trkpt lat="44.43778" lon="6.14106">
        <ele>1323.39209</ele>
        <time>2011-07-05T10:34:26Z</time>
      </trkpt>
      <trkpt lat="44.43784" lon="6.14077">
        <ele>1325.79541</ele>
        <time>2011-07-05T10:34:46Z</time>
      </trkpt>
      <trkpt lat="44.43788" lon="6.14073">
        <ele>1326.276123</ele>
        <time>2011-07-05T10:34:50Z</time>
      </trkpt>
      <trkpt lat="44.43791" lon="6.14071">
        <ele>1326.756836</ele>
        <time>2011-07-05T10:34:52Z</time>
      </trkpt>
      <trkpt lat="44.43798" lon="6.14066">
        <ele>1327.237549</ele>
        <time>2011-07-05T10:34:58Z</time>
      </trkpt>
      <trkpt lat="44.43816" lon="6.14053">
        <ele>1329.159912</ele>
        <time>2011-07-05T10:35:16Z</time>
      </trkpt>
      <trkpt lat="44.43823" lon="6.14048">
        <ele>1329.159912</ele>
        <time>2011-07-05T10:35:22Z</time>
      </trkpt>
      <trkpt lat="44.43831" lon="6.1404">
        <ele>1330.121338</ele>
        <time>2011-07-05T10:35:29Z</time>
      </trkpt>
      <trkpt lat="44.43832" lon="6.14039">
        <ele>1330.121338</ele>
        <time>2011-07-05T10:35:31Z</time>
      </trkpt>
      <trkpt lat="44.43839" lon="6.14033">
        <ele>1330.602051</ele>
        <time>2011-07-05T10:35:37Z</time>
      </trkpt>
      <trkpt lat="44.43848" lon="6.1402">
        <ele>1332.043945</ele>
        <time>2011-07-05T10:35:54Z</time>
      </trkpt>
      <trkpt lat="44.43848" lon="6.1402">
        <ele>1332.043945</ele>
        <time>2011-07-05T10:35:55Z</time>
      </trkpt>
      <trkpt lat="44.43854" lon="6.14006">
        <ele>1333.005127</ele>
        <time>2011-07-05T10:35:59Z</time>
      </trkpt>
      <trkpt lat="44.43851" lon="6.13998">
        <ele>1333.005127</ele>
        <time>2011-07-05T10:36:03Z</time>
      </trkpt>
      <trkpt lat="44.43851" lon="6.13998">
        <ele>1336.369873</ele>
        <time>2011-07-05T10:36:24Z</time>
      </trkpt>
      <trkpt lat="44.43851" lon="6.13998">
        <ele>1337.331055</ele>
        <time>2011-07-05T10:36:34Z</time>
      </trkpt>
      <trkpt lat="44.43851" lon="6.13998">
        <ele>1337.811768</ele>
        <time>2011-07-05T10:36:38Z</time>
      </trkpt>
      <trkpt lat="44.43851" lon="6.13998">
        <ele>1339.253662</ele>
        <time>2011-07-05T10:36:59Z</time>
      </trkpt>
      <trkpt lat="44.43851" lon="6.13998">
        <ele>1340.695801</ele>
        <time>2011-07-05T10:37:02Z</time>
      </trkpt>
      <trkpt lat="44.43851" lon="6.13998">
        <ele>1341.176514</ele>
        <time>2011-07-05T10:37:09Z</time>
      </trkpt>
      <trkpt lat="44.43851" lon="6.13998">
        <ele>1341.657227</ele>
        <time>2011-07-05T10:37:13Z</time>
      </trkpt>
      <trkpt lat="44.43761" lon="6.13976">
        <ele>1344.541016</ele>
        <time>2011-07-05T10:37:35Z</time>
      </trkpt>
      <trkpt lat="44.43761" lon="6.13976">
        <ele>1345.502441</ele>
        <time>2011-07-05T10:38:39Z</time>
      </trkpt>
      <trkpt lat="44.43761" lon="6.13976">
        <ele>1346.463867</ele>
        <time>2011-07-05T10:38:49Z</time>
      </trkpt>
      <trkpt lat="44.43761" lon="6.13976">
        <ele>1344.541016</ele>
        <time>2011-07-05T10:39:58Z</time>
      </trkpt>
      <trkpt lat="44.43761" lon="6.13976">
        <ele>1345.502441</ele>
        <time>2011-07-05T10:40:13Z</time>
      </trkpt>
      <trkpt lat="44.43761" lon="6.13976">
        <ele>1345.983154</ele>
        <time>2011-07-05T10:40:28Z</time>
      </trkpt>
      <trkpt lat="44.43761" lon="6.13976">
        <ele>1346.463867</ele>
        <time>2011-07-05T10:40:34Z</time>
      </trkpt>
      <trkpt lat="44.43761" lon="6.13976">
        <ele>1348.38623</ele>
        <time>2011-07-05T10:40:57Z</time>
      </trkpt>
      <trkpt lat="44.43761" lon="6.13976">
        <ele>1350.789551</ele>
        <time>2011-07-05T10:41:17Z</time>
      </trkpt>
      <trkpt lat="44.43761" lon="6.13976">
        <ele>1350.309082</ele>
        <time>2011-07-05T10:41:19Z</time>
      </trkpt>
      <trkpt lat="44.43761" lon="6.13976">
        <ele>1349.828369</ele>
        <time>2011-07-05T10:41:21Z</time>
      </trkpt>
      <trkpt lat="44.43741" lon="6.13904">
        <ele>1352.231445</ele>
        <time>2011-07-05T10:41:40Z</time>
      </trkpt>
      <trkpt lat="44.43722" lon="6.13898">
        <ele>1353.673584</ele>
        <time>2011-07-05T10:41:57Z</time>
      </trkpt>
      <trkpt lat="44.437" lon="6.13887">
        <ele>1355.115479</ele>
        <time>2011-07-05T10:42:18Z</time>
      </trkpt>
      <trkpt lat="44.437" lon="6.13887">
        <ele>1355.115479</ele>
        <time>2011-07-05T10:42:19Z</time>
      </trkpt>
      <trkpt lat="44.43689" lon="6.13878">
        <ele>1357.03833</ele>
        <time>2011-07-05T10:42:28Z</time>
      </trkpt>
      <trkpt lat="44.4368" lon="6.13843">
        <ele>1357.999756</ele>
        <time>2011-07-05T10:42:49Z</time>
      </trkpt>
      <trkpt lat="44.4368" lon="6.13841">
        <ele>1357.999756</ele>
        <time>2011-07-05T10:42:50Z</time>
      </trkpt>
      <trkpt lat="44.43681" lon="6.13792">
        <ele>1358.960938</ele>
        <time>2011-07-05T10:43:12Z</time>
      </trkpt>
      <trkpt lat="44.43686" lon="6.1374">
        <ele>1360.883545</ele>
        <time>2011-07-05T10:43:36Z</time>
      </trkpt>
      <trkpt lat="44.43679" lon="6.13686">
        <ele>1358.480225</ele>
        <time>2011-07-05T10:43:46Z</time>
      </trkpt>
      <trkpt lat="44.43694" lon="6.13675">
        <ele>1359.922119</ele>
        <time>2011-07-05T10:43:58Z</time>
      </trkpt>
      <trkpt lat="44.43728" lon="6.13664">
        <ele>1362.325439</ele>
        <time>2011-07-05T10:44:25Z</time>
      </trkpt>
      <trkpt lat="44.43741" lon="6.13661">
        <ele>1362.325439</ele>
        <time>2011-07-05T10:44:36Z</time>
      </trkpt>
      <trkpt lat="44.43745" lon="6.13661">
        <ele>1363.286865</ele>
        <time>2011-07-05T10:44:53Z</time>
      </trkpt>
      <trkpt lat="44.43745" lon="6.13661">
        <ele>1364.248047</ele>
        <time>2011-07-05T10:44:57Z</time>
      </trkpt>
      <trkpt lat="44.43745" lon="6.13661">
        <ele>1364.248047</ele>
        <time>2011-07-05T10:45:00Z</time>
      </trkpt>
      <trkpt lat="44.43745" lon="6.13661">
        <ele>1366.170654</ele>
        <time>2011-07-05T10:45:07Z</time>
      </trkpt>
      <trkpt lat="44.43745" lon="6.13661">
        <ele>1366.651367</ele>
        <time>2011-07-05T10:45:09Z</time>
      </trkpt>
      <trkpt lat="44.43788" lon="6.13662">
        <ele>1368.093262</ele>
        <time>2011-07-05T10:45:24Z</time>
      </trkpt>
      <trkpt lat="44.43799" lon="6.13649">
        <ele>1368.093262</ele>
        <time>2011-07-05T10:45:32Z</time>
      </trkpt>
      <trkpt lat="44.43814" lon="6.13609">
        <ele>1367.13208</ele>
        <time>2011-07-05T10:45:45Z</time>
      </trkpt>
      <trkpt lat="44.43824" lon="6.13585">
        <ele>1367.13208</ele>
        <time>2011-07-05T10:45:50Z</time>
      </trkpt>
      <trkpt lat="44.43818" lon="6.13573">
        <ele>1366.651367</ele>
        <time>2011-07-05T10:45:54Z</time>
      </trkpt>
      <trkpt lat="44.43815" lon="6.13557">
        <ele>1367.13208</ele>
        <time>2011-07-05T10:46:00Z</time>
      </trkpt>
      <trkpt lat="44.438" lon="6.13526">
        <ele>1367.612549</ele>
        <time>2011-07-05T10:46:16Z</time>
      </trkpt>
      <trkpt lat="44.43776" lon="6.13508">
        <ele>1368.093262</ele>
        <time>2011-07-05T10:46:29Z</time>
      </trkpt>
      <trkpt lat="44.43774" lon="6.13483">
        <ele>1370.015869</ele>
        <time>2011-07-05T10:46:44Z</time>
      </trkpt>
      <trkpt lat="44.4375" lon="6.13463">
        <ele>1370.977295</ele>
        <time>2011-07-05T10:47:03Z</time>
      </trkpt>
      <trkpt lat="44.43721" lon="6.13427">
        <ele>1371.457764</ele>
        <time>2011-07-05T10:47:22Z</time>
      </trkpt>
      <trkpt lat="44.43726" lon="6.13383">
        <ele>1372.900146</ele>
        <time>2011-07-05T10:47:42Z</time>
      </trkpt>
      <trkpt lat="44.43748" lon="6.13341">
        <ele>1374.822754</ele>
        <time>2011-07-05T10:48:07Z</time>
      </trkpt>
      <trkpt lat="44.43754" lon="6.13334">
        <ele>1375.303223</ele>
        <time>2011-07-05T10:48:12Z</time>
      </trkpt>
      <trkpt lat="44.4378" lon="6.133">
        <ele>1375.303223</ele>
        <time>2011-07-05T10:48:30Z</time>
      </trkpt>
      <trkpt lat="44.43781" lon="6.13297">
        <ele>1375.303223</ele>
        <time>2011-07-05T10:48:31Z</time>
      </trkpt>
      <trkpt lat="44.43789" lon="6.13225">
        <ele>1374.342041</ele>
        <time>2011-07-05T10:48:48Z</time>
      </trkpt>
      <trkpt lat="44.43784" lon="6.13149">
        <ele>1374.342041</ele>
        <time>2011-07-05T10:49:05Z</time>
      </trkpt>
      <trkpt lat="44.43778" lon="6.13097">
        <ele>1374.822754</ele>
        <time>2011-07-05T10:49:20Z</time>
      </trkpt>
      <trkpt lat="44.43766" lon="6.1305">
        <ele>1375.783936</ele>
        <time>2011-07-05T10:49:37Z</time>
      </trkpt>
      <trkpt lat="44.43759" lon="6.13034">
        <ele>1375.783936</ele>
        <time>2011-07-05T10:49:51Z</time>
      </trkpt>
      <trkpt lat="44.43759" lon="6.13034">
        <ele>1376.264648</ele>
        <time>2011-07-05T10:50:06Z</time>
      </trkpt>
      <trkpt lat="44.43759" lon="6.13034">
        <ele>1375.783936</ele>
        <time>2011-07-05T10:50:30Z</time>
      </trkpt>
      <trkpt lat="44.43759" lon="6.13034">
        <ele>1375.303223</ele>
        <time>2011-07-05T10:50:34Z</time>
      </trkpt>
      <trkpt lat="44.43759" lon="6.13034">
        <ele>1375.303223</ele>
        <time>2011-07-05T10:51:02Z</time>
      </trkpt>
      <trkpt lat="44.43759" lon="6.13034">
        <ele>1376.264648</ele>
        <time>2011-07-05T10:51:22Z</time>
      </trkpt>
      <trkpt lat="44.43759" lon="6.13034">
        <ele>1375.303223</ele>
        <time>2011-07-05T10:51:34Z</time>
      </trkpt>
      <trkpt lat="44.43759" lon="6.13034">
        <ele>1374.342041</ele>
        <time>2011-07-05T10:51:48Z</time>
      </trkpt>
      <trkpt lat="44.43759" lon="6.13034">
        <ele>1375.783936</ele>
        <time>2011-07-05T10:51:50Z</time>
      </trkpt>
      <trkpt lat="44.43759" lon="6.13034">
        <ele>1374.342041</ele>
        <time>2011-07-05T10:51:52Z</time>
      </trkpt>
      <trkpt lat="44.43759" lon="6.13034">
        <ele>1373.861328</ele>
        <time>2011-07-05T10:52:09Z</time>
      </trkpt>
      <trkpt lat="44.43759" lon="6.13034">
        <ele>1373.861328</ele>
        <time>2011-07-05T10:52:26Z</time>
      </trkpt>
      <trkpt lat="44.43765" lon="6.1302">
        <ele>1375.303223</ele>
        <time>2011-07-05T10:52:28Z</time>
      </trkpt>
      <trkpt lat="44.43781" lon="6.13017">
        <ele>1376.264648</ele>
        <time>2011-07-05T10:52:42Z</time>
      </trkpt>
      <trkpt lat="44.43784" lon="6.13018">
        <ele>1375.303223</ele>
        <time>2011-07-05T10:52:56Z</time>
      </trkpt>
      <trkpt lat="44.43774" lon="6.13023">
        <ele>1376.264648</ele>
        <time>2011-07-05T10:53:26Z</time>
      </trkpt>
      <trkpt lat="44.43774" lon="6.13023">
        <ele>1376.745361</ele>
        <time>2011-07-05T10:53:42Z</time>
      </trkpt>
      <trkpt lat="44.43775" lon="6.13027">
        <ele>1376.264648</ele>
        <time>2011-07-05T10:54:00Z</time>
      </trkpt>
      <trkpt lat="44.43766" lon="6.13018">
        <ele>1377.226074</ele>
        <time>2011-07-05T10:54:56Z</time>
      </trkpt>
      <trkpt lat="44.43766" lon="6.13018">
        <ele>1378.187256</ele>
        <time>2011-07-05T10:55:02Z</time>
      </trkpt>
      <trkpt lat="44.43767" lon="6.13019">
        <ele>1377.226074</ele>
        <time>2011-07-05T10:55:19Z</time>
      </trkpt>
      <trkpt lat="44.43769" lon="6.13017">
        <ele>1380.590576</ele>
        <time>2011-07-05T10:56:44Z</time>
      </trkpt>
      <trkpt lat="44.43771" lon="6.13018">
        <ele>1381.071289</ele>
        <time>2011-07-05T10:58:07Z</time>
      </trkpt>
      <trkpt lat="44.4377" lon="6.13018">
        <ele>1382.032471</ele>
        <time>2011-07-05T10:58:09Z</time>
      </trkpt>
      <trkpt lat="44.4377" lon="6.13018">
        <ele>1381.551758</ele>
        <time>2011-07-05T10:58:14Z</time>
      </trkpt>
      <trkpt lat="44.4377" lon="6.13017">
        <ele>1382.513184</ele>
        <time>2011-07-05T10:58:24Z</time>
      </trkpt>
      <trkpt lat="44.43769" lon="6.13017">
        <ele>1382.513184</ele>
        <time>2011-07-05T10:58:28Z</time>
      </trkpt>
      <trkpt lat="44.43769" lon="6.13017">
        <ele>1382.993652</ele>
        <time>2011-07-05T10:58:47Z</time>
      </trkpt>
      <trkpt lat="44.43769" lon="6.13017">
        <ele>1381.551758</ele>
        <time>2011-07-05T10:58:49Z</time>
      </trkpt>
      <trkpt lat="44.43756" lon="6.13028">
        <ele>1383.474365</ele>
        <time>2011-07-05T10:59:04Z</time>
      </trkpt>
      <trkpt lat="44.43757" lon="6.1303">
        <ele>1384.435791</ele>
        <time>2011-07-05T10:59:08Z</time>
      </trkpt>
      <trkpt lat="44.43756" lon="6.13031">
        <ele>1382.993652</ele>
        <time>2011-07-05T10:59:10Z</time>
      </trkpt>
      <trkpt lat="44.43756" lon="6.1303">
        <ele>1384.435791</ele>
        <time>2011-07-05T10:59:13Z</time>
      </trkpt>
      <trkpt lat="44.43756" lon="6.13032">
        <ele>1383.955078</ele>
        <time>2011-07-05T10:59:29Z</time>
      </trkpt>
      <trkpt lat="44.43753" lon="6.13028">
        <ele>1383.474365</ele>
        <time>2011-07-05T10:59:38Z</time>
      </trkpt>
      <trkpt lat="44.43753" lon="6.13026">
        <ele>1384.435791</ele>
        <time>2011-07-05T10:59:57Z</time>
      </trkpt>
      <trkpt lat="44.43754" lon="6.13023">
        <ele>1384.435791</ele>
        <time>2011-07-05T11:00:01Z</time>
      </trkpt>
      <trkpt lat="44.4375" lon="6.13016">
        <ele>1384.435791</ele>
        <time>2011-07-05T11:00:05Z</time>
      </trkpt>
      <trkpt lat="44.43747" lon="6.13013">
        <ele>1385.396973</ele>
        <time>2011-07-05T11:00:07Z</time>
      </trkpt>
      <trkpt lat="44.43737" lon="6.12999">
        <ele>1387.31958</ele>
        <time>2011-07-05T11:00:19Z</time>
      </trkpt>
      <trkpt lat="44.43727" lon="6.12993">
        <ele>1389.242432</ele>
        <time>2011-07-05T11:00:30Z</time>
      </trkpt>
      <trkpt lat="44.43715" lon="6.12991">
        <ele>1389.723145</ele>
        <time>2011-07-05T11:00:40Z</time>
      </trkpt>
      <trkpt lat="44.43712" lon="6.1299">
        <ele>1390.684326</ele>
        <time>2011-07-05T11:00:43Z</time>
      </trkpt>
      <trkpt lat="44.43696" lon="6.12971">
        <ele>1391.645752</ele>
        <time>2011-07-05T11:01:03Z</time>
      </trkpt>
      <trkpt lat="44.43697" lon="6.1294">
        <ele>1393.568359</ele>
        <time>2011-07-05T11:01:24Z</time>
      </trkpt>
      <trkpt lat="44.43684" lon="6.12913">
        <ele>1396.452393</ele>
        <time>2011-07-05T11:01:45Z</time>
      </trkpt>
      <trkpt lat="44.43677" lon="6.12904">
        <ele>1397.413574</ele>
        <time>2011-07-05T11:01:54Z</time>
      </trkpt>
      <trkpt lat="44.43672" lon="6.12894">
        <ele>1397.894287</ele>
        <time>2011-07-05T11:02:02Z</time>
      </trkpt>
      <trkpt lat="44.43661" lon="6.12868">
        <ele>1399.816895</ele>
        <time>2011-07-05T11:02:23Z</time>
      </trkpt>
      <trkpt lat="44.43647" lon="6.12852">
        <ele>1401.739502</ele>
        <time>2011-07-05T11:02:41Z</time>
      </trkpt>
      <trkpt lat="44.43641" lon="6.12848">
        <ele>1402.219971</ele>
        <time>2011-07-05T11:02:47Z</time>
      </trkpt>
      <trkpt lat="44.43623" lon="6.12835">
        <ele>1405.104248</ele>
        <time>2011-07-05T11:03:07Z</time>
      </trkpt>
      <trkpt lat="44.4362" lon="6.12833">
        <ele>1405.104248</ele>
        <time>2011-07-05T11:03:10Z</time>
      </trkpt>
      <trkpt lat="44.43604" lon="6.12825">
        <ele>1407.507568</ele>
        <time>2011-07-05T11:03:27Z</time>
      </trkpt>
      <trkpt lat="44.43598" lon="6.12822">
        <ele>1407.988281</ele>
        <time>2011-07-05T11:03:34Z</time>
      </trkpt>
      <trkpt lat="44.43586" lon="6.12794">
        <ele>1409.910645</ele>
        <time>2011-07-05T11:03:55Z</time>
      </trkpt>
      <trkpt lat="44.43586" lon="6.12791">
        <ele>1409.910645</ele>
        <time>2011-07-05T11:03:57Z</time>
      </trkpt>
      <trkpt lat="44.43576" lon="6.12769">
        <ele>1411.833496</ele>
        <time>2011-07-05T11:04:14Z</time>
      </trkpt>
      <trkpt lat="44.43572" lon="6.1276">
        <ele>1411.833496</ele>
        <time>2011-07-05T11:04:21Z</time>
      </trkpt>
      <trkpt lat="44.43558" lon="6.12729">
        <ele>1413.755859</ele>
        <time>2011-07-05T11:04:43Z</time>
      </trkpt>
      <trkpt lat="44.43547" lon="6.12707">
        <ele>1414.717285</ele>
        <time>2011-07-05T11:04:58Z</time>
      </trkpt>
      <trkpt lat="44.43538" lon="6.12684">
        <ele>1415.678711</ele>
        <time>2011-07-05T11:05:12Z</time>
      </trkpt>
      <trkpt lat="44.43531" lon="6.12667">
        <ele>1417.120605</ele>
        <time>2011-07-05T11:05:22Z</time>
      </trkpt>
      <trkpt lat="44.43516" lon="6.12635">
        <ele>1418.081787</ele>
        <time>2011-07-05T11:05:41Z</time>
      </trkpt>
      <trkpt lat="44.43506" lon="6.12608">
        <ele>1419.043213</ele>
        <time>2011-07-05T11:05:55Z</time>
      </trkpt>
      <trkpt lat="44.43493" lon="6.12579">
        <ele>1420.485352</ele>
        <time>2011-07-05T11:06:11Z</time>
      </trkpt>
      <trkpt lat="44.43477" lon="6.12537">
        <ele>1420.966064</ele>
        <time>2011-07-05T11:06:29Z</time>
      </trkpt>
      <trkpt lat="44.43463" lon="6.12476">
        <ele>1419.523926</ele>
        <time>2011-07-05T11:06:41Z</time>
      </trkpt>
      <trkpt lat="44.4343" lon="6.12412">
        <ele>1418.5625</ele>
        <time>2011-07-05T11:06:53Z</time>
      </trkpt>
      <trkpt lat="44.43411" lon="6.124">
        <ele>1418.5625</ele>
        <time>2011-07-05T11:07:02Z</time>
      </trkpt>
      <trkpt lat="44.43397" lon="6.12399">
        <ele>1420.004639</ele>
        <time>2011-07-05T11:07:11Z</time>
      </trkpt>
      <trkpt lat="44.43374" lon="6.12394">
        <ele>1420.966064</ele>
        <time>2011-07-05T11:07:26Z</time>
      </trkpt>
      <trkpt lat="44.43362" lon="6.12387">
        <ele>1421.446533</ele>
        <time>2011-07-05T11:07:34Z</time>
      </trkpt>
      <trkpt lat="44.43342" lon="6.12386">
        <ele>1421.446533</ele>
        <time>2011-07-05T11:07:49Z</time>
      </trkpt>
      <trkpt lat="44.43321" lon="6.12413">
        <ele>1421.446533</ele>
        <time>2011-07-05T11:08:07Z</time>
      </trkpt>
      <trkpt lat="44.43319" lon="6.12413">
        <ele>1421.446533</ele>
        <time>2011-07-05T11:08:08Z</time>
      </trkpt>
      <trkpt lat="44.43294" lon="6.12417">
        <ele>1422.888672</ele>
        <time>2011-07-05T11:08:22Z</time>
      </trkpt>
      <trkpt lat="44.43292" lon="6.12421">
        <ele>1420.966064</ele>
        <time>2011-07-05T11:08:24Z</time>
      </trkpt>
      <trkpt lat="44.43269" lon="6.12447">
        <ele>1421.927246</ele>
        <time>2011-07-05T11:08:40Z</time>
      </trkpt>
      <trkpt lat="44.43266" lon="6.1245">
        <ele>1420.966064</ele>
        <time>2011-07-05T11:08:53Z</time>
      </trkpt>
      <trkpt lat="44.43266" lon="6.1245">
        <ele>1422.407959</ele>
        <time>2011-07-05T11:08:56Z</time>
      </trkpt>
      <trkpt lat="44.43266" lon="6.1245">
        <ele>1419.523926</ele>
        <time>2011-07-05T11:09:00Z</time>
      </trkpt>
      <trkpt lat="44.43266" lon="6.1245">
        <ele>1421.927246</ele>
        <time>2011-07-05T11:09:02Z</time>
      </trkpt>
      <trkpt lat="44.43266" lon="6.1245">
        <ele>1420.966064</ele>
        <time>2011-07-05T11:09:12Z</time>
      </trkpt>
      <trkpt lat="44.43266" lon="6.1245">
        <ele>1419.043213</ele>
        <time>2011-07-05T11:09:50Z</time>
      </trkpt>
      <trkpt lat="44.43266" lon="6.1245">
        <ele>1423.369385</ele>
        <time>2011-07-05T11:09:51Z</time>
      </trkpt>
      <trkpt lat="44.43266" lon="6.1245">
        <ele>1421.446533</ele>
        <time>2011-07-05T11:09:52Z</time>
      </trkpt>
      <trkpt lat="44.43266" lon="6.1245">
        <ele>1420.004639</ele>
        <time>2011-07-05T11:09:59Z</time>
      </trkpt>
      <trkpt lat="44.43266" lon="6.1245">
        <ele>1421.927246</ele>
        <time>2011-07-05T11:10:05Z</time>
      </trkpt>
      <trkpt lat="44.43266" lon="6.1245">
        <ele>1420.004639</ele>
        <time>2011-07-05T11:10:07Z</time>
      </trkpt>
      <trkpt lat="44.43266" lon="6.1245">
        <ele>1417.601074</ele>
        <time>2011-07-05T11:10:14Z</time>
      </trkpt>
      <trkpt lat="44.43266" lon="6.1245">
        <ele>1422.407959</ele>
        <time>2011-07-05T11:10:15Z</time>
      </trkpt>
      <trkpt lat="44.43266" lon="6.1245">
        <ele>1422.407959</ele>
        <time>2011-07-05T11:10:16Z</time>
      </trkpt>
      <trkpt lat="44.43266" lon="6.1245">
        <ele>1420.485352</ele>
        <time>2011-07-05T11:10:22Z</time>
      </trkpt>
      <trkpt lat="44.43269" lon="6.1244">
        <ele>1421.927246</ele>
        <time>2011-07-05T11:10:27Z</time>
      </trkpt>
      <trkpt lat="44.43285" lon="6.12407">
        <ele>1424.330566</ele>
        <time>2011-07-05T11:10:51Z</time>
      </trkpt>
      <trkpt lat="44.43288" lon="6.12399">
        <ele>1425.772461</ele>
        <time>2011-07-05T11:11:04Z</time>
      </trkpt>
      <trkpt lat="44.43294" lon="6.12378">
        <ele>1426.253174</ele>
        <time>2011-07-05T11:11:10Z</time>
      </trkpt>
      <trkpt lat="44.43307" lon="6.12385">
        <ele>1428.175781</ele>
        <time>2011-07-05T11:11:23Z</time>
      </trkpt>
      <trkpt lat="44.43317" lon="6.12391">
        <ele>1427.695068</ele>
        <time>2011-07-05T11:11:30Z</time>
      </trkpt>
      <trkpt lat="44.43319" lon="6.1239">
        <ele>1429.136963</ele>
        <time>2011-07-05T11:11:33Z</time>
      </trkpt>
      <trkpt lat="44.4333" lon="6.12376">
        <ele>1431.059814</ele>
        <time>2011-07-05T11:11:46Z</time>
      </trkpt>
      <trkpt lat="44.43333" lon="6.12335">
        <ele>1432.982178</ele>
        <time>2011-07-05T11:12:10Z</time>
      </trkpt>
      <trkpt lat="44.43339" lon="6.12326">
        <ele>1433.462891</ele>
        <time>2011-07-05T11:12:17Z</time>
      </trkpt>
      <trkpt lat="44.43345" lon="6.12324">
        <ele>1433.943604</ele>
        <time>2011-07-05T11:12:22Z</time>
      </trkpt>
      <trkpt lat="44.43346" lon="6.12324">
        <ele>1434.905029</ele>
        <time>2011-07-05T11:12:24Z</time>
      </trkpt>
      <trkpt lat="44.43365" lon="6.12336">
        <ele>1435.385498</ele>
        <time>2011-07-05T11:12:41Z</time>
      </trkpt>
      <trkpt lat="44.43383" lon="6.12344">
        <ele>1436.347168</ele>
        <time>2011-07-05T11:12:57Z</time>
      </trkpt>
      <trkpt lat="44.43409" lon="6.12324">
        <ele>1440.192383</ele>
        <time>2011-07-05T11:13:20Z</time>
      </trkpt>
      <trkpt lat="44.43409" lon="6.12324">
        <ele>1440.192383</ele>
        <time>2011-07-05T11:13:21Z</time>
      </trkpt>
      <trkpt lat="44.43416" lon="6.12321">
        <ele>1439.71167</ele>
        <time>2011-07-05T11:13:27Z</time>
      </trkpt>
      <trkpt lat="44.43432" lon="6.1232">
        <ele>1442.11499</ele>
        <time>2011-07-05T11:13:45Z</time>
      </trkpt>
      <trkpt lat="44.43432" lon="6.1232">
        <ele>1441.153564</ele>
        <time>2011-07-05T11:13:48Z</time>
      </trkpt>
      <trkpt lat="44.43432" lon="6.1232">
        <ele>1442.595703</ele>
        <time>2011-07-05T11:13:50Z</time>
      </trkpt>
      <trkpt lat="44.43432" lon="6.1232">
        <ele>1441.634277</ele>
        <time>2011-07-05T11:13:51Z</time>
      </trkpt>
      <trkpt lat="44.43447" lon="6.12323">
        <ele>1443.556885</ele>
        <time>2011-07-05T11:14:02Z</time>
      </trkpt>
      <trkpt lat="44.43447" lon="6.12323">
        <ele>1443.556885</ele>
        <time>2011-07-05T11:14:06Z</time>
      </trkpt>
      <trkpt lat="44.43452" lon="6.12315">
        <ele>1443.556885</ele>
        <time>2011-07-05T11:14:11Z</time>
      </trkpt>
      <trkpt lat="44.43437" lon="6.12309">
        <ele>1446.440918</ele>
        <time>2011-07-05T11:14:33Z</time>
      </trkpt>
      <trkpt lat="44.43415" lon="6.123">
        <ele>1446.921387</ele>
        <time>2011-07-05T11:14:53Z</time>
      </trkpt>
      <trkpt lat="44.43397" lon="6.12299">
        <ele>1448.843994</ele>
        <time>2011-07-05T11:15:02Z</time>
      </trkpt>
      <trkpt lat="44.43389" lon="6.12297">
        <ele>1449.80542</ele>
        <time>2011-07-05T11:15:10Z</time>
      </trkpt>
      <trkpt lat="44.43389" lon="6.12297">
        <ele>1450.286133</ele>
        <time>2011-07-05T11:15:16Z</time>
      </trkpt>
      <trkpt lat="44.43381" lon="6.12289">
        <ele>1451.728027</ele>
        <time>2011-07-05T11:15:23Z</time>
      </trkpt>
      <trkpt lat="44.43374" lon="6.12284">
        <ele>1453.170166</ele>
        <time>2011-07-05T11:15:30Z</time>
      </trkpt>
      <trkpt lat="44.43366" lon="6.1228">
        <ele>1454.131592</ele>
        <time>2011-07-05T11:15:38Z</time>
      </trkpt>
      <trkpt lat="44.43345" lon="6.12254">
        <ele>1455.573486</ele>
        <time>2011-07-05T11:15:58Z</time>
      </trkpt>
      <trkpt lat="44.43326" lon="6.12251">
        <ele>1457.015381</ele>
        <time>2011-07-05T11:16:16Z</time>
      </trkpt>
      <trkpt lat="44.43308" lon="6.12279">
        <ele>1458.937988</ele>
        <time>2011-07-05T11:16:39Z</time>
      </trkpt>
      <trkpt lat="44.43305" lon="6.12282">
        <ele>1458.937988</ele>
        <time>2011-07-05T11:16:41Z</time>
      </trkpt>
      <trkpt lat="44.43288" lon="6.12277">
        <ele>1460.860596</ele>
        <time>2011-07-05T11:16:59Z</time>
      </trkpt>
      <trkpt lat="44.43288" lon="6.12277">
        <ele>1463.263916</ele>
        <time>2011-07-05T11:17:18Z</time>
      </trkpt>
      <trkpt lat="44.4326" lon="6.12264">
        <ele>1462.783203</ele>
        <time>2011-07-05T11:17:23Z</time>
      </trkpt>
      <trkpt lat="44.43253" lon="6.12271">
        <ele>1463.744385</ele>
        <time>2011-07-05T11:17:26Z</time>
      </trkpt>
      <trkpt lat="44.43248" lon="6.12291">
        <ele>1463.744385</ele>
        <time>2011-07-05T11:17:37Z</time>
      </trkpt>
      <trkpt lat="44.43232" lon="6.12311">
        <ele>1466.147705</ele>
        <time>2011-07-05T11:17:55Z</time>
      </trkpt>
      <trkpt lat="44.43216" lon="6.12324">
        <ele>1467.5896</ele>
        <time>2011-07-05T11:18:13Z</time>
      </trkpt>
      <trkpt lat="44.43216" lon="6.12324">
        <ele>1468.070557</ele>
        <time>2011-07-05T11:18:14Z</time>
      </trkpt>
      <trkpt lat="44.43197" lon="6.12342">
        <ele>1469.512695</ele>
        <time>2011-07-05T11:18:30Z</time>
      </trkpt>
      <trkpt lat="44.43187" lon="6.12351">
        <ele>1470.95459</ele>
        <time>2011-07-05T11:18:41Z</time>
      </trkpt>
      <trkpt lat="44.43187" lon="6.12351">
        <ele>1471.915771</ele>
        <time>2011-07-05T11:18:54Z</time>
      </trkpt>
      <trkpt lat="44.43167" lon="6.1237">
        <ele>1473.838379</ele>
        <time>2011-07-05T11:19:07Z</time>
      </trkpt>
      <trkpt lat="44.43159" lon="6.12376">
        <ele>1473.838379</ele>
        <time>2011-07-05T11:19:11Z</time>
      </trkpt>
      <trkpt lat="44.43156" lon="6.12371">
        <ele>1475.280273</ele>
        <time>2011-07-05T11:19:17Z</time>
      </trkpt>
      <trkpt lat="44.43173" lon="6.12346">
        <ele>1476.241699</ele>
        <time>2011-07-05T11:19:38Z</time>
      </trkpt>
      <trkpt lat="44.4319" lon="6.12316">
        <ele>1478.64502</ele>
        <time>2011-07-05T11:20:01Z</time>
      </trkpt>
      <trkpt lat="44.4319" lon="6.12316">
        <ele>1481.04834</ele>
        <time>2011-07-05T11:20:27Z</time>
      </trkpt>
      <trkpt lat="44.43218" lon="6.12263">
        <ele>1482.970703</ele>
        <time>2011-07-05T11:20:47Z</time>
      </trkpt>
      <trkpt lat="44.43218" lon="6.12263">
        <ele>1483.451416</ele>
        <time>2011-07-05T11:20:55Z</time>
      </trkpt>
      <trkpt lat="44.43218" lon="6.12263">
        <ele>1484.893799</ele>
        <time>2011-07-05T11:21:02Z</time>
      </trkpt>
      <trkpt lat="44.43233" lon="6.12207">
        <ele>1487.296875</ele>
        <time>2011-07-05T11:21:24Z</time>
      </trkpt>
      <trkpt lat="44.43254" lon="6.12201">
        <ele>1488.739014</ele>
        <time>2011-07-05T11:21:45Z</time>
      </trkpt>
      <trkpt lat="44.43265" lon="6.12188">
        <ele>1490.180908</ele>
        <time>2011-07-05T11:21:57Z</time>
      </trkpt>
      <trkpt lat="44.43271" lon="6.12182">
        <ele>1493.064697</ele>
        <time>2011-07-05T11:22:21Z</time>
      </trkpt>
      <trkpt lat="44.43295" lon="6.12163">
        <ele>1495.468018</ele>
        <time>2011-07-05T11:22:43Z</time>
      </trkpt>
      <trkpt lat="44.43295" lon="6.12163">
        <ele>1495.94873</ele>
        <time>2011-07-05T11:22:54Z</time>
      </trkpt>
      <trkpt lat="44.43295" lon="6.12163">
        <ele>1496.909912</ele>
        <time>2011-07-05T11:23:02Z</time>
      </trkpt>
      <trkpt lat="44.43331" lon="6.12131">
        <ele>1497.390625</ele>
        <time>2011-07-05T11:23:08Z</time>
      </trkpt>
      <trkpt lat="44.43345" lon="6.12109">
        <ele>1499.793945</ele>
        <time>2011-07-05T11:23:25Z</time>
      </trkpt>
      <trkpt lat="44.43362" lon="6.12101">
        <ele>1500.274902</ele>
        <time>2011-07-05T11:23:44Z</time>
      </trkpt>
      <trkpt lat="44.43391" lon="6.12125">
        <ele>1502.197266</ele>
        <time>2011-07-05T11:24:07Z</time>
      </trkpt>
      <trkpt lat="44.43397" lon="6.12132">
        <ele>1502.677979</ele>
        <time>2011-07-05T11:24:18Z</time>
      </trkpt>
      <trkpt lat="44.43406" lon="6.12128">
        <ele>1503.158691</ele>
        <time>2011-07-05T11:24:22Z</time>
      </trkpt>
      <trkpt lat="44.43403" lon="6.12125">
        <ele>1503.639404</ele>
        <time>2011-07-05T11:24:25Z</time>
      </trkpt>
      <trkpt lat="44.43381" lon="6.12103">
        <ele>1505.081299</ele>
        <time>2011-07-05T11:24:45Z</time>
      </trkpt>
      <trkpt lat="44.43379" lon="6.12101">
        <ele>1505.562012</ele>
        <time>2011-07-05T11:24:47Z</time>
      </trkpt>
      <trkpt lat="44.43375" lon="6.12097">
        <ele>1506.04248</ele>
        <time>2011-07-05T11:24:53Z</time>
      </trkpt>
      <trkpt lat="44.43356" lon="6.12077">
        <ele>1508.445801</ele>
        <time>2011-07-05T11:25:12Z</time>
      </trkpt>
      <trkpt lat="44.43351" lon="6.12076">
        <ele>1508.926514</ele>
        <time>2011-07-05T11:25:16Z</time>
      </trkpt>
      <trkpt lat="44.43328" lon="6.12096">
        <ele>1510.368408</ele>
        <time>2011-07-05T11:25:36Z</time>
      </trkpt>
      <trkpt lat="44.43305" lon="6.121">
        <ele>1512.771729</ele>
        <time>2011-07-05T11:25:57Z</time>
      </trkpt>
      <trkpt lat="44.43294" lon="6.12103">
        <ele>1514.694336</ele>
        <time>2011-07-05T11:26:18Z</time>
      </trkpt>
      <trkpt lat="44.43294" lon="6.12103">
        <ele>1515.175049</ele>
        <time>2011-07-05T11:26:21Z</time>
      </trkpt>
      <trkpt lat="44.43294" lon="6.12103">
        <ele>1515.655762</ele>
        <time>2011-07-05T11:26:27Z</time>
      </trkpt>
      <trkpt lat="44.43265" lon="6.12114">
        <ele>1516.136475</ele>
        <time>2011-07-05T11:26:31Z</time>
      </trkpt>
      <trkpt lat="44.43265" lon="6.12114">
        <ele>1516.617188</ele>
        <time>2011-07-05T11:26:47Z</time>
      </trkpt>
      <trkpt lat="44.43265" lon="6.12114">
        <ele>1516.136475</ele>
        <time>2011-07-05T11:27:30Z</time>
      </trkpt>
      <trkpt lat="44.43265" lon="6.12114">
        <ele>1517.0979</ele>
        <time>2011-07-05T11:27:47Z</time>
      </trkpt>
      <trkpt lat="44.4325" lon="6.1212">
        <ele>1517.0979</ele>
        <time>2011-07-05T11:27:52Z</time>
      </trkpt>
      <trkpt lat="44.43247" lon="6.12121">
        <ele>1517.578369</ele>
        <time>2011-07-05T11:27:54Z</time>
      </trkpt>
      <trkpt lat="44.43222" lon="6.12131">
        <ele>1520.943115</ele>
        <time>2011-07-05T11:28:16Z</time>
      </trkpt>
      <trkpt lat="44.43207" lon="6.12137">
        <ele>1521.423584</ele>
        <time>2011-07-05T11:28:28Z</time>
      </trkpt>
      <trkpt lat="44.43189" lon="6.12144">
        <ele>1522.865723</ele>
        <time>2011-07-05T11:28:43Z</time>
      </trkpt>
      <trkpt lat="44.43182" lon="6.12152">
        <ele>1523.346436</ele>
        <time>2011-07-05T11:28:51Z</time>
      </trkpt>
      <trkpt lat="44.43182" lon="6.12152">
        <ele>1524.307617</ele>
        <time>2011-07-05T11:28:55Z</time>
      </trkpt>
      <trkpt lat="44.43168" lon="6.12184">
        <ele>1526.230225</ele>
        <time>2011-07-05T11:29:16Z</time>
      </trkpt>
      <trkpt lat="44.43156" lon="6.12207">
        <ele>1528.152832</ele>
        <time>2011-07-05T11:29:32Z</time>
      </trkpt>
      <trkpt lat="44.43153" lon="6.12212">
        <ele>1528.152832</ele>
        <time>2011-07-05T11:29:35Z</time>
      </trkpt>
      <trkpt lat="44.43135" lon="6.12242">
        <ele>1531.998047</ele>
        <time>2011-07-05T11:29:58Z</time>
      </trkpt>
      <trkpt lat="44.43118" lon="6.12267">
        <ele>1532.959473</ele>
        <time>2011-07-05T11:30:19Z</time>
      </trkpt>
      <trkpt lat="44.431" lon="6.1229">
        <ele>1534.882324</ele>
        <time>2011-07-05T11:30:39Z</time>
      </trkpt>
      <trkpt lat="44.43094" lon="6.12289">
        <ele>1534.882324</ele>
        <time>2011-07-05T11:30:42Z</time>
      </trkpt>
      <trkpt lat="44.43091" lon="6.12288">
        <ele>1535.362793</ele>
        <time>2011-07-05T11:30:46Z</time>
      </trkpt>
      <trkpt lat="44.43093" lon="6.12278">
        <ele>1537.2854</ele>
        <time>2011-07-05T11:30:54Z</time>
      </trkpt>
      <trkpt lat="44.43096" lon="6.12271">
        <ele>1537.766113</ele>
        <time>2011-07-05T11:30:59Z</time>
      </trkpt>
      <trkpt lat="44.43099" lon="6.12268">
        <ele>1538.246826</ele>
        <time>2011-07-05T11:31:02Z</time>
      </trkpt>
      <trkpt lat="44.4311" lon="6.12248">
        <ele>1539.688721</ele>
        <time>2011-07-05T11:31:18Z</time>
      </trkpt>
      <trkpt lat="44.43112" lon="6.12245">
        <ele>1540.169434</ele>
        <time>2011-07-05T11:31:21Z</time>
      </trkpt>
      <trkpt lat="44.43125" lon="6.12215">
        <ele>1542.092041</ele>
        <time>2011-07-05T11:31:42Z</time>
      </trkpt>
      <trkpt lat="44.43129" lon="6.12197">
        <ele>1543.533936</ele>
        <time>2011-07-05T11:31:54Z</time>
      </trkpt>
      <trkpt lat="44.4313" lon="6.12193">
        <ele>1544.014648</ele>
        <time>2011-07-05T11:31:57Z</time>
      </trkpt>
      <trkpt lat="44.43132" lon="6.12181">
        <ele>1544.495117</ele>
        <time>2011-07-05T11:32:04Z</time>
      </trkpt>
      <trkpt lat="44.43134" lon="6.12174">
        <ele>1545.456543</ele>
        <time>2011-07-05T11:32:10Z</time>
      </trkpt>
      <trkpt lat="44.43142" lon="6.12132">
        <ele>1547.859863</ele>
        <time>2011-07-05T11:32:36Z</time>
      </trkpt>
      <trkpt lat="44.43152" lon="6.12102">
        <ele>1550.263428</ele>
        <time>2011-07-05T11:32:56Z</time>
      </trkpt>
      <trkpt lat="44.43163" lon="6.12088">
        <ele>1551.224609</ele>
        <time>2011-07-05T11:33:09Z</time>
      </trkpt>
      <trkpt lat="44.43177" lon="6.12068">
        <ele>1553.62793</ele>
        <time>2011-07-05T11:33:27Z</time>
      </trkpt>
      <trkpt lat="44.43185" lon="6.12062">
        <ele>1554.108643</ele>
        <time>2011-07-05T11:33:35Z</time>
      </trkpt>
      <trkpt lat="44.43188" lon="6.1206">
        <ele>1554.589111</ele>
        <time>2011-07-05T11:33:39Z</time>
      </trkpt>
      <trkpt lat="44.43203" lon="6.12052">
        <ele>1556.511719</ele>
        <time>2011-07-05T11:33:53Z</time>
      </trkpt>
      <trkpt lat="44.43216" lon="6.12045">
        <ele>1557.473145</ele>
        <time>2011-07-05T11:34:06Z</time>
      </trkpt>
      <trkpt lat="44.43242" lon="6.12024">
        <ele>1560.356934</ele>
        <time>2011-07-05T11:34:32Z</time>
      </trkpt>
      <trkpt lat="44.43258" lon="6.12004">
        <ele>1562.279541</ele>
        <time>2011-07-05T11:34:50Z</time>
      </trkpt>
      <trkpt lat="44.43251" lon="6.11967">
        <ele>1564.202393</ele>
        <time>2011-07-05T11:35:12Z</time>
      </trkpt>
      <trkpt lat="44.43247" lon="6.11934">
        <ele>1565.644531</ele>
        <time>2011-07-05T11:35:31Z</time>
      </trkpt>
      <trkpt lat="44.43231" lon="6.1191">
        <ele>1567.566895</ele>
        <time>2011-07-05T11:35:49Z</time>
      </trkpt>
      <trkpt lat="44.4321" lon="6.11916">
        <ele>1568.52832</ele>
        <time>2011-07-05T11:36:05Z</time>
      </trkpt>
      <trkpt lat="44.43185" lon="6.11927">
        <ele>1570.931641</ele>
        <time>2011-07-05T11:36:25Z</time>
      </trkpt>
      <trkpt lat="44.43161" lon="6.1193">
        <ele>1572.854248</ele>
        <time>2011-07-05T11:36:44Z</time>
      </trkpt>
      <trkpt lat="44.43145" lon="6.11933">
        <ele>1573.81543</ele>
        <time>2011-07-05T11:36:59Z</time>
      </trkpt>
      <trkpt lat="44.43124" lon="6.11937">
        <ele>1575.738037</ele>
        <time>2011-07-05T11:37:16Z</time>
      </trkpt>
      <trkpt lat="44.43108" lon="6.11936">
        <ele>1576.699463</ele>
        <time>2011-07-05T11:37:30Z</time>
      </trkpt>
      <trkpt lat="44.43097" lon="6.11935">
        <ele>1577.660645</ele>
        <time>2011-07-05T11:37:38Z</time>
      </trkpt>
      <trkpt lat="44.43072" lon="6.11937">
        <ele>1579.583252</ele>
        <time>2011-07-05T11:37:58Z</time>
      </trkpt>
      <trkpt lat="44.43067" lon="6.1194">
        <ele>1580.064209</ele>
        <time>2011-07-05T11:38:02Z</time>
      </trkpt>
      <trkpt lat="44.43063" lon="6.11944">
        <ele>1580.064209</ele>
        <time>2011-07-05T11:38:06Z</time>
      </trkpt>
      <trkpt lat="44.4305" lon="6.11956">
        <ele>1581.506104</ele>
        <time>2011-07-05T11:38:18Z</time>
      </trkpt>
      <trkpt lat="44.43031" lon="6.11972">
        <ele>1582.947998</ele>
        <time>2011-07-05T11:38:35Z</time>
      </trkpt>
      <trkpt lat="44.43018" lon="6.11982">
        <ele>1583.428711</ele>
        <time>2011-07-05T11:38:47Z</time>
      </trkpt>
      <trkpt lat="44.43014" lon="6.11984">
        <ele>1583.428711</ele>
        <time>2011-07-05T11:38:50Z</time>
      </trkpt>
      <trkpt lat="44.4299" lon="6.12002">
        <ele>1584.390137</ele>
        <time>2011-07-05T11:39:12Z</time>
      </trkpt>
      <trkpt lat="44.42977" lon="6.12012">
        <ele>1584.390137</ele>
        <time>2011-07-05T11:39:22Z</time>
      </trkpt>
      <trkpt lat="44.42964" lon="6.12013">
        <ele>1583.428711</ele>
        <time>2011-07-05T11:39:31Z</time>
      </trkpt>
      <trkpt lat="44.42961" lon="6.12011">
        <ele>1583.428711</ele>
        <time>2011-07-05T11:39:48Z</time>
      </trkpt>
      <trkpt lat="44.42961" lon="6.12011">
        <ele>1583.428711</ele>
        <time>2011-07-05T11:39:54Z</time>
      </trkpt>
      <trkpt lat="44.42959" lon="6.12011">
        <ele>1582.947998</ele>
        <time>2011-07-05T11:40:26Z</time>
      </trkpt>
      <trkpt lat="44.42956" lon="6.12008">
        <ele>1582.947998</ele>
        <time>2011-07-05T11:40:44Z</time>
      </trkpt>
      <trkpt lat="44.42956" lon="6.12008">
        <ele>1584.390137</ele>
        <time>2011-07-05T11:41:27Z</time>
      </trkpt>
      <trkpt lat="44.42956" lon="6.12008">
        <ele>1581.986816</ele>
        <time>2011-07-05T11:41:52Z</time>
      </trkpt>
      <trkpt lat="44.42959" lon="6.12012">
        <ele>1583.428711</ele>
        <time>2011-07-05T11:46:28Z</time>
      </trkpt>
      <trkpt lat="44.42969" lon="6.12015">
        <ele>1584.390137</ele>
        <time>2011-07-05T11:46:39Z</time>
      </trkpt>
      <trkpt lat="44.42981" lon="6.1201">
        <ele>1584.87085</ele>
        <time>2011-07-05T11:46:52Z</time>
      </trkpt>
      <trkpt lat="44.42985" lon="6.12005">
        <ele>1584.87085</ele>
        <time>2011-07-05T11:46:59Z</time>
      </trkpt>
      <trkpt lat="44.42992" lon="6.12004">
        <ele>1585.351318</ele>
        <time>2011-07-05T11:47:06Z</time>
      </trkpt>
      <trkpt lat="44.43007" lon="6.11998">
        <ele>1584.87085</ele>
        <time>2011-07-05T11:47:31Z</time>
      </trkpt>
      <trkpt lat="44.43008" lon="6.11998">
        <ele>1585.832031</ele>
        <time>2011-07-05T11:48:06Z</time>
      </trkpt>
      <trkpt lat="44.43017" lon="6.1199">
        <ele>1585.351318</ele>
        <time>2011-07-05T11:48:45Z</time>
      </trkpt>
      <trkpt lat="44.43044" lon="6.11966">
        <ele>1583.909424</ele>
        <time>2011-07-05T11:49:00Z</time>
      </trkpt>
      <trkpt lat="44.43075" lon="6.11939">
        <ele>1581.506104</ele>
        <time>2011-07-05T11:49:13Z</time>
      </trkpt>
      <trkpt lat="44.4312" lon="6.11936">
        <ele>1578.141357</ele>
        <time>2011-07-05T11:49:26Z</time>
      </trkpt>
      <trkpt lat="44.43149" lon="6.11935">
        <ele>1577.180176</ele>
        <time>2011-07-05T11:49:33Z</time>
      </trkpt>
      <trkpt lat="44.43167" lon="6.11933">
        <ele>1575.738037</ele>
        <time>2011-07-05T11:49:37Z</time>
      </trkpt>
      <trkpt lat="44.43188" lon="6.11929">
        <ele>1574.296143</ele>
        <time>2011-07-05T11:49:42Z</time>
      </trkpt>
      <trkpt lat="44.43196" lon="6.11925">
        <ele>1572.373535</ele>
        <time>2011-07-05T11:49:44Z</time>
      </trkpt>
      <trkpt lat="44.43215" lon="6.11917">
        <ele>1570.450928</ele>
        <time>2011-07-05T11:49:49Z</time>
      </trkpt>
      <trkpt lat="44.43233" lon="6.11913">
        <ele>1569.009033</ele>
        <time>2011-07-05T11:49:56Z</time>
      </trkpt>
      <trkpt lat="44.43251" lon="6.11948">
        <ele>1568.047607</ele>
        <time>2011-07-05T11:50:11Z</time>
      </trkpt>
      <trkpt lat="44.43255" lon="6.11981">
        <ele>1565.163818</ele>
        <time>2011-07-05T11:50:19Z</time>
      </trkpt>
      <trkpt lat="44.43255" lon="6.12012">
        <ele>1564.202393</ele>
        <time>2011-07-05T11:50:30Z</time>
      </trkpt>
      <trkpt lat="44.43253" lon="6.12015">
        <ele>1563.721436</ele>
        <time>2011-07-05T11:50:32Z</time>
      </trkpt>
      <trkpt lat="44.43245" lon="6.12024">
        <ele>1563.240967</ele>
        <time>2011-07-05T11:50:36Z</time>
      </trkpt>
      <trkpt lat="44.43205" lon="6.12051">
        <ele>1560.356934</ele>
        <time>2011-07-05T11:50:51Z</time>
      </trkpt>
      <trkpt lat="44.43178" lon="6.12072">
        <ele>1556.992432</ele>
        <time>2011-07-05T11:51:01Z</time>
      </trkpt>
      <trkpt lat="44.43153" lon="6.12105">
        <ele>1553.62793</ele>
        <time>2011-07-05T11:51:13Z</time>
      </trkpt>
      <trkpt lat="44.43141" lon="6.12149">
        <ele>1551.224609</ele>
        <time>2011-07-05T11:51:26Z</time>
      </trkpt>
      <trkpt lat="44.43136" lon="6.12179">
        <ele>1547.859863</ele>
        <time>2011-07-05T11:51:34Z</time>
      </trkpt>
      <trkpt lat="44.43126" lon="6.1222">
        <ele>1545.456543</ele>
        <time>2011-07-05T11:51:46Z</time>
      </trkpt>
      <trkpt lat="44.43106" lon="6.12266">
        <ele>1542.572754</ele>
        <time>2011-07-05T11:52:00Z</time>
      </trkpt>
      <trkpt lat="44.43095" lon="6.12286">
        <ele>1541.130615</ele>
        <time>2011-07-05T11:52:08Z</time>
      </trkpt>
      <trkpt lat="44.431" lon="6.12291">
        <ele>1538.727539</ele>
        <time>2011-07-05T11:52:15Z</time>
      </trkpt>
      <trkpt lat="44.43103" lon="6.12287">
        <ele>1538.246826</ele>
        <time>2011-07-05T11:52:18Z</time>
      </trkpt>
      <trkpt lat="44.43126" lon="6.12255">
        <ele>1536.324219</ele>
        <time>2011-07-05T11:52:31Z</time>
      </trkpt>
      <trkpt lat="44.43149" lon="6.12219">
        <ele>1533.440186</ele>
        <time>2011-07-05T11:52:42Z</time>
      </trkpt>
      <trkpt lat="44.4317" lon="6.12182">
        <ele>1530.075439</ele>
        <time>2011-07-05T11:52:55Z</time>
      </trkpt>
      <trkpt lat="44.43184" lon="6.12148">
        <ele>1526.710938</ele>
        <time>2011-07-05T11:53:05Z</time>
      </trkpt>
      <trkpt lat="44.43214" lon="6.12134">
        <ele>1524.78833</ele>
        <time>2011-07-05T11:53:15Z</time>
      </trkpt>
      <trkpt lat="44.43243" lon="6.12123">
        <ele>1522.38501</ele>
        <time>2011-07-05T11:53:24Z</time>
      </trkpt>
      <trkpt lat="44.43261" lon="6.12116">
        <ele>1520.462402</ele>
        <time>2011-07-05T11:53:30Z</time>
      </trkpt>
      <trkpt lat="44.4329" lon="6.12104">
        <ele>1517.578369</ele>
        <time>2011-07-05T11:53:41Z</time>
      </trkpt>
      <trkpt lat="44.43309" lon="6.12099">
        <ele>1516.136475</ele>
        <time>2011-07-05T11:53:47Z</time>
      </trkpt>
      <trkpt lat="44.43345" lon="6.12079">
        <ele>1512.771729</ele>
        <time>2011-07-05T11:54:00Z</time>
      </trkpt>
      <trkpt lat="44.4336" lon="6.1208">
        <ele>1512.291016</ele>
        <time>2011-07-05T11:54:05Z</time>
      </trkpt>
      <trkpt lat="44.43369" lon="6.12089">
        <ele>1510.849121</ele>
        <time>2011-07-05T11:54:08Z</time>
      </trkpt>
      <trkpt lat="44.43372" lon="6.12093">
        <ele>1509.887695</ele>
        <time>2011-07-05T11:54:09Z</time>
      </trkpt>
      <trkpt lat="44.43399" lon="6.12121">
        <ele>1507.484619</ele>
        <time>2011-07-05T11:54:18Z</time>
      </trkpt>
      <trkpt lat="44.43404" lon="6.12129">
        <ele>1506.523193</ele>
        <time>2011-07-05T11:54:25Z</time>
      </trkpt>
      <trkpt lat="44.43399" lon="6.12133">
        <ele>1505.562012</ele>
        <time>2011-07-05T11:54:39Z</time>
      </trkpt>
      <trkpt lat="44.4337" lon="6.12107">
        <ele>1505.562012</ele>
        <time>2011-07-05T11:54:53Z</time>
      </trkpt>
      <trkpt lat="44.43339" lon="6.12112">
        <ele>1502.677979</ele>
        <time>2011-07-05T11:55:03Z</time>
      </trkpt>
      <trkpt lat="44.43313" lon="6.12146">
        <ele>1499.793945</ele>
        <time>2011-07-05T11:55:15Z</time>
      </trkpt>
      <trkpt lat="44.43308" lon="6.12151">
        <ele>1498.83252</ele>
        <time>2011-07-05T11:55:17Z</time>
      </trkpt>
      <trkpt lat="44.43279" lon="6.12175">
        <ele>1495.468018</ele>
        <time>2011-07-05T11:55:26Z</time>
      </trkpt>
      <trkpt lat="44.43258" lon="6.12194">
        <ele>1493.064697</ele>
        <time>2011-07-05T11:55:35Z</time>
      </trkpt>
      <trkpt lat="44.43222" lon="6.12216">
        <ele>1490.661377</ele>
        <time>2011-07-05T11:55:47Z</time>
      </trkpt>
      <trkpt lat="44.43221" lon="6.1225">
        <ele>1487.777588</ele>
        <time>2011-07-05T11:55:54Z</time>
      </trkpt>
      <trkpt lat="44.43203" lon="6.12292">
        <ele>1484.413086</ele>
        <time>2011-07-05T11:56:06Z</time>
      </trkpt>
      <trkpt lat="44.43191" lon="6.12314">
        <ele>1482.490234</ele>
        <time>2011-07-05T11:56:12Z</time>
      </trkpt>
      <trkpt lat="44.43185" lon="6.12324">
        <ele>1482.009521</ele>
        <time>2011-07-05T11:56:15Z</time>
      </trkpt>
      <trkpt lat="44.43173" lon="6.12346">
        <ele>1480.086914</ele>
        <time>2011-07-05T11:56:20Z</time>
      </trkpt>
      <trkpt lat="44.43156" lon="6.1237">
        <ele>1478.164307</ele>
        <time>2011-07-05T11:56:27Z</time>
      </trkpt>
      <trkpt lat="44.43161" lon="6.12374">
        <ele>1476.722412</ele>
        <time>2011-07-05T11:56:32Z</time>
      </trkpt>
      <trkpt lat="44.43191" lon="6.12347">
        <ele>1473.35791</ele>
        <time>2011-07-05T11:56:45Z</time>
      </trkpt>
      <trkpt lat="44.43219" lon="6.12321">
        <ele>1470.473877</ele>
        <time>2011-07-05T11:56:56Z</time>
      </trkpt>
      <trkpt lat="44.43249" lon="6.12289">
        <ele>1467.109131</ele>
        <time>2011-07-05T11:57:08Z</time>
      </trkpt>
      <trkpt lat="44.43253" lon="6.12273">
        <ele>1466.147705</ele>
        <time>2011-07-05T11:57:12Z</time>
      </trkpt>
      <trkpt lat="44.43272" lon="6.12272">
        <ele>1465.186523</ele>
        <time>2011-07-05T11:57:18Z</time>
      </trkpt>
      <trkpt lat="44.43289" lon="6.12277">
        <ele>1463.263916</ele>
        <time>2011-07-05T11:57:24Z</time>
      </trkpt>
      <trkpt lat="44.43315" lon="6.12267">
        <ele>1460.379883</ele>
        <time>2011-07-05T11:57:35Z</time>
      </trkpt>
      <trkpt lat="44.43332" lon="6.12247">
        <ele>1458.457275</ele>
        <time>2011-07-05T11:57:43Z</time>
      </trkpt>
      <trkpt lat="44.43343" lon="6.1225">
        <ele>1457.496094</ele>
        <time>2011-07-05T11:57:48Z</time>
      </trkpt>
      <trkpt lat="44.43359" lon="6.12279">
        <ele>1456.053955</ele>
        <time>2011-07-05T11:57:56Z</time>
      </trkpt>
      <trkpt lat="44.43384" lon="6.12293">
        <ele>1452.689453</ele>
        <time>2011-07-05T11:58:06Z</time>
      </trkpt>
      <trkpt lat="44.43387" lon="6.12295">
        <ele>1452.689453</ele>
        <time>2011-07-05T11:58:07Z</time>
      </trkpt>
      <trkpt lat="44.43421" lon="6.12301">
        <ele>1449.80542</ele>
        <time>2011-07-05T11:58:18Z</time>
      </trkpt>
      <trkpt lat="44.43427" lon="6.12304">
        <ele>1447.882813</ele>
        <time>2011-07-05T11:58:20Z</time>
      </trkpt>
      <trkpt lat="44.43441" lon="6.1231">
        <ele>1447.4021</ele>
        <time>2011-07-05T11:58:24Z</time>
      </trkpt>
      <trkpt lat="44.43447" lon="6.12313">
        <ele>1445.479492</ele>
        <time>2011-07-05T11:58:26Z</time>
      </trkpt>
      <trkpt lat="44.43452" lon="6.12316">
        <ele>1444.998779</ele>
        <time>2011-07-05T11:58:28Z</time>
      </trkpt>
      <trkpt lat="44.43446" lon="6.12323">
        <ele>1443.556885</ele>
        <time>2011-07-05T11:58:36Z</time>
      </trkpt>
      <trkpt lat="44.43433" lon="6.1232">
        <ele>1443.076172</ele>
        <time>2011-07-05T11:58:40Z</time>
      </trkpt>
      <trkpt lat="44.43412" lon="6.12323">
        <ele>1442.11499</ele>
        <time>2011-07-05T11:58:45Z</time>
      </trkpt>
      <trkpt lat="44.43395" lon="6.12335">
        <ele>1439.230957</ele>
        <time>2011-07-05T11:58:50Z</time>
      </trkpt>
      <trkpt lat="44.43388" lon="6.1234">
        <ele>1437.30835</ele>
        <time>2011-07-05T11:58:52Z</time>
      </trkpt>
      <trkpt lat="44.4337" lon="6.12343">
        <ele>1437.789063</ele>
        <time>2011-07-05T11:58:57Z</time>
      </trkpt>
      <trkpt lat="44.43361" lon="6.12326">
        <ele>1437.789063</ele>
        <time>2011-07-05T11:59:02Z</time>
      </trkpt>
      <trkpt lat="44.43336" lon="6.12328">
        <ele>1434.905029</ele>
        <time>2011-07-05T11:59:12Z</time>
      </trkpt>
      <trkpt lat="44.43335" lon="6.12331">
        <ele>1434.905029</ele>
        <time>2011-07-05T11:59:13Z</time>
      </trkpt>
      <trkpt lat="44.4333" lon="6.12369">
        <ele>1431.540283</ele>
        <time>2011-07-05T11:59:24Z</time>
      </trkpt>
      <trkpt lat="44.43324" lon="6.12386">
        <ele>1429.617676</ele>
        <time>2011-07-05T11:59:29Z</time>
      </trkpt>
      <trkpt lat="44.43312" lon="6.12389">
        <ele>1429.617676</ele>
        <time>2011-07-05T11:59:35Z</time>
      </trkpt>
      <trkpt lat="44.43298" lon="6.12376">
        <ele>1429.136963</ele>
        <time>2011-07-05T11:59:41Z</time>
      </trkpt>
      <trkpt lat="44.4329" lon="6.12392">
        <ele>1427.695068</ele>
        <time>2011-07-05T11:59:46Z</time>
      </trkpt>
      <trkpt lat="44.4327" lon="6.12439">
        <ele>1424.330566</ele>
        <time>2011-07-05T11:59:58Z</time>
      </trkpt>
      <trkpt lat="44.43268" lon="6.12442">
        <ele>1423.849854</ele>
        <time>2011-07-05T11:59:59Z</time>
      </trkpt>
      <trkpt lat="44.43274" lon="6.12442">
        <ele>1422.407959</ele>
        <time>2011-07-05T12:00:06Z</time>
      </trkpt>
      <trkpt lat="44.43317" lon="6.1241">
        <ele>1421.927246</ele>
        <time>2011-07-05T12:00:22Z</time>
      </trkpt>
      <trkpt lat="44.43341" lon="6.12388">
        <ele>1421.927246</ele>
        <time>2011-07-05T12:00:32Z</time>
      </trkpt>
      <trkpt lat="44.43343" lon="6.12384">
        <ele>1421.927246</ele>
        <time>2011-07-05T12:00:33Z</time>
      </trkpt>
      <trkpt lat="44.43358" lon="6.1238">
        <ele>1420.966064</ele>
        <time>2011-07-05T12:00:38Z</time>
      </trkpt>
      <trkpt lat="44.43382" lon="6.12395">
        <ele>1420.485352</ele>
        <time>2011-07-05T12:00:47Z</time>
      </trkpt>
      <trkpt lat="44.43398" lon="6.12399">
        <ele>1420.485352</ele>
        <time>2011-07-05T12:00:51Z</time>
      </trkpt>
      <trkpt lat="44.43413" lon="6.124">
        <ele>1419.523926</ele>
        <time>2011-07-05T12:00:54Z</time>
      </trkpt>
      <trkpt lat="44.43431" lon="6.12413">
        <ele>1418.081787</ele>
        <time>2011-07-05T12:00:58Z</time>
      </trkpt>
      <trkpt lat="44.43447" lon="6.12439">
        <ele>1418.081787</ele>
        <time>2011-07-05T12:01:03Z</time>
      </trkpt>
      <trkpt lat="44.4347" lon="6.125">
        <ele>1418.5625</ele>
        <time>2011-07-05T12:01:17Z</time>
      </trkpt>
      <trkpt lat="44.4348" lon="6.12553">
        <ele>1420.004639</ele>
        <time>2011-07-05T12:01:35Z</time>
      </trkpt>
      <trkpt lat="44.43507" lon="6.12616">
        <ele>1418.5625</ele>
        <time>2011-07-05T12:01:52Z</time>
      </trkpt>
      <trkpt lat="44.43537" lon="6.12677">
        <ele>1416.15918</ele>
        <time>2011-07-05T12:02:04Z</time>
      </trkpt>
      <trkpt lat="44.43543" lon="6.12691">
        <ele>1415.197998</ele>
        <time>2011-07-05T12:02:07Z</time>
      </trkpt>
      <trkpt lat="44.43568" lon="6.12752">
        <ele>1411.352783</ele>
        <time>2011-07-05T12:02:20Z</time>
      </trkpt>
      <trkpt lat="44.43586" lon="6.12795">
        <ele>1408.949463</ele>
        <time>2011-07-05T12:02:30Z</time>
      </trkpt>
      <trkpt lat="44.4359" lon="6.12805">
        <ele>1408.46875</ele>
        <time>2011-07-05T12:02:32Z</time>
      </trkpt>
      <trkpt lat="44.436" lon="6.12822">
        <ele>1407.026855</ele>
        <time>2011-07-05T12:02:36Z</time>
      </trkpt>
      <trkpt lat="44.43621" lon="6.12835">
        <ele>1403.181396</ele>
        <time>2011-07-05T12:02:43Z</time>
      </trkpt>
      <trkpt lat="44.43623" lon="6.12836">
        <ele>1403.181396</ele>
        <time>2011-07-05T12:02:44Z</time>
      </trkpt>
      <trkpt lat="44.43646" lon="6.12852">
        <ele>1400.297607</ele>
        <time>2011-07-05T12:02:52Z</time>
      </trkpt>
      <trkpt lat="44.43664" lon="6.12876">
        <ele>1397.413574</ele>
        <time>2011-07-05T12:02:58Z</time>
      </trkpt>
      <trkpt lat="44.43681" lon="6.12912">
        <ele>1394.529541</ele>
        <time>2011-07-05T12:03:07Z</time>
      </trkpt>
      <trkpt lat="44.43695" lon="6.12937">
        <ele>1392.607178</ele>
        <time>2011-07-05T12:03:13Z</time>
      </trkpt>
      <trkpt lat="44.43695" lon="6.12949">
        <ele>1391.165039</ele>
        <time>2011-07-05T12:03:15Z</time>
      </trkpt>
      <trkpt lat="44.43706" lon="6.12988">
        <ele>1388.761963</ele>
        <time>2011-07-05T12:03:24Z</time>
      </trkpt>
      <trkpt lat="44.43729" lon="6.12997">
        <ele>1386.838867</ele>
        <time>2011-07-05T12:03:30Z</time>
      </trkpt>
      <trkpt lat="44.43742" lon="6.13009">
        <ele>1384.435791</ele>
        <time>2011-07-05T12:03:34Z</time>
      </trkpt>
      <trkpt lat="44.43752" lon="6.13023">
        <ele>1382.993652</ele>
        <time>2011-07-05T12:03:37Z</time>
      </trkpt>
      <trkpt lat="44.43777" lon="6.1309">
        <ele>1381.551758</ele>
        <time>2011-07-05T12:03:48Z</time>
      </trkpt>
      <trkpt lat="44.43789" lon="6.13219">
        <ele>1380.109863</ele>
        <time>2011-07-05T12:04:08Z</time>
      </trkpt>
      <trkpt lat="44.43784" lon="6.13285">
        <ele>1381.071289</ele>
        <time>2011-07-05T12:04:25Z</time>
      </trkpt>
      <trkpt lat="44.43754" lon="6.13334">
        <ele>1380.109863</ele>
        <time>2011-07-05T12:04:41Z</time>
      </trkpt>
      <trkpt lat="44.43724" lon="6.13394">
        <ele>1379.148438</ele>
        <time>2011-07-05T12:04:56Z</time>
      </trkpt>
      <trkpt lat="44.43733" lon="6.13446">
        <ele>1376.264648</ele>
        <time>2011-07-05T12:05:07Z</time>
      </trkpt>
      <trkpt lat="44.43774" lon="6.1348">
        <ele>1375.783936</ele>
        <time>2011-07-05T12:05:21Z</time>
      </trkpt>
      <trkpt lat="44.43775" lon="6.13505">
        <ele>1374.822754</ele>
        <time>2011-07-05T12:05:26Z</time>
      </trkpt>
      <trkpt lat="44.4378" lon="6.13516">
        <ele>1373.861328</ele>
        <time>2011-07-05T12:05:28Z</time>
      </trkpt>
      <trkpt lat="44.43795" lon="6.13526">
        <ele>1373.380859</ele>
        <time>2011-07-05T12:05:32Z</time>
      </trkpt>
      <trkpt lat="44.43816" lon="6.1355">
        <ele>1373.380859</ele>
        <time>2011-07-05T12:05:42Z</time>
      </trkpt>
      <trkpt lat="44.43818" lon="6.13573">
        <ele>1372.900146</ele>
        <time>2011-07-05T12:05:46Z</time>
      </trkpt>
      <trkpt lat="44.43818" lon="6.13599">
        <ele>1371.938477</ele>
        <time>2011-07-05T12:05:51Z</time>
      </trkpt>
      <trkpt lat="44.43807" lon="6.13642">
        <ele>1372.419434</ele>
        <time>2011-07-05T12:06:03Z</time>
      </trkpt>
      <trkpt lat="44.43791" lon="6.13659">
        <ele>1373.380859</ele>
        <time>2011-07-05T12:06:13Z</time>
      </trkpt>
      <trkpt lat="44.43784" lon="6.13665">
        <ele>1372.900146</ele>
        <time>2011-07-05T12:06:16Z</time>
      </trkpt>
      <trkpt lat="44.43752" lon="6.1366">
        <ele>1370.015869</ele>
        <time>2011-07-05T12:06:26Z</time>
      </trkpt>
      <trkpt lat="44.43718" lon="6.13665">
        <ele>1367.612549</ele>
        <time>2011-07-05T12:06:37Z</time>
      </trkpt>
      <trkpt lat="44.43693" lon="6.13676">
        <ele>1366.170654</ele>
        <time>2011-07-05T12:06:43Z</time>
      </trkpt>
      <trkpt lat="44.43686" lon="6.13679">
        <ele>1366.170654</ele>
        <time>2011-07-05T12:06:45Z</time>
      </trkpt>
      <trkpt lat="44.43683" lon="6.13682">
        <ele>1364.72876</ele>
        <time>2011-07-05T12:06:58Z</time>
      </trkpt>
      <trkpt lat="44.43683" lon="6.13682">
        <ele>1364.72876</ele>
        <time>2011-07-05T12:07:04Z</time>
      </trkpt>
      <trkpt lat="44.43683" lon="6.13707">
        <ele>1361.844971</ele>
        <time>2011-07-05T12:07:13Z</time>
      </trkpt>
      <trkpt lat="44.43668" lon="6.13727">
        <ele>1361.364258</ele>
        <time>2011-07-05T12:07:17Z</time>
      </trkpt>
      <trkpt lat="44.43684" lon="6.13743">
        <ele>1358.960938</ele>
        <time>2011-07-05T12:07:20Z</time>
      </trkpt>
      <trkpt lat="44.43636" lon="6.13742">
        <ele>1355.115479</ele>
        <time>2011-07-05T12:07:27Z</time>
      </trkpt>
      <trkpt lat="44.43628" lon="6.13746">
        <ele>1353.192871</ele>
        <time>2011-07-05T12:07:29Z</time>
      </trkpt>
      <trkpt lat="44.43602" lon="6.13781">
        <ele>1350.789551</ele>
        <time>2011-07-05T12:07:40Z</time>
      </trkpt>
      <trkpt lat="44.436" lon="6.13785">
        <ele>1349.347656</ele>
        <time>2011-07-05T12:07:42Z</time>
      </trkpt>
      <trkpt lat="44.43596" lon="6.13788">
        <ele>1349.347656</ele>
        <time>2011-07-05T12:07:44Z</time>
      </trkpt>
      <trkpt lat="44.4359" lon="6.13786">
        <ele>1348.866943</ele>
        <time>2011-07-05T12:07:48Z</time>
      </trkpt>
      <trkpt lat="44.43587" lon="6.13782">
        <ele>1347.425049</ele>
        <time>2011-07-05T12:07:50Z</time>
      </trkpt>
      <trkpt lat="44.43583" lon="6.13778">
        <ele>1345.983154</ele>
        <time>2011-07-05T12:07:52Z</time>
      </trkpt>
      <trkpt lat="44.43566" lon="6.13758">
        <ele>1343.579834</ele>
        <time>2011-07-05T12:07:58Z</time>
      </trkpt>
      <trkpt lat="44.43546" lon="6.13761">
        <ele>1340.695801</ele>
        <time>2011-07-05T12:08:05Z</time>
      </trkpt>
      <trkpt lat="44.43545" lon="6.13763">
        <ele>1340.695801</ele>
        <time>2011-07-05T12:08:06Z</time>
      </trkpt>
      <trkpt lat="44.43541" lon="6.13775">
        <ele>1339.734375</ele>
        <time>2011-07-05T12:08:10Z</time>
      </trkpt>
      <trkpt lat="44.43538" lon="6.13799">
        <ele>1336.850342</ele>
        <time>2011-07-05T12:08:19Z</time>
      </trkpt>
      <trkpt lat="44.43536" lon="6.13801">
        <ele>1336.850342</ele>
        <time>2011-07-05T12:08:20Z</time>
      </trkpt>
      <trkpt lat="44.43517" lon="6.13807">
        <ele>1333.005127</ele>
        <time>2011-07-05T12:08:28Z</time>
      </trkpt>
      <trkpt lat="44.4351" lon="6.13811">
        <ele>1332.043945</ele>
        <time>2011-07-05T12:08:31Z</time>
      </trkpt>
      <trkpt lat="44.43499" lon="6.13817">
        <ele>1328.679443</ele>
        <time>2011-07-05T12:08:35Z</time>
      </trkpt>
      <trkpt lat="44.43496" lon="6.1382">
        <ele>1328.679443</ele>
        <time>2011-07-05T12:08:36Z</time>
      </trkpt>
      <trkpt lat="44.43481" lon="6.13832">
        <ele>1326.276123</ele>
        <time>2011-07-05T12:08:41Z</time>
      </trkpt>
      <trkpt lat="44.4346" lon="6.13857">
        <ele>1322.911377</ele>
        <time>2011-07-05T12:08:47Z</time>
      </trkpt>
      <trkpt lat="44.43452" lon="6.1386">
        <ele>1321.949951</ele>
        <time>2011-07-05T12:08:49Z</time>
      </trkpt>
      <trkpt lat="44.43427" lon="6.13865">
        <ele>1320.508057</ele>
        <time>2011-07-05T12:08:57Z</time>
      </trkpt>
      <trkpt lat="44.43407" lon="6.13857">
        <ele>1318.104736</ele>
        <time>2011-07-05T12:09:03Z</time>
      </trkpt>
      <trkpt lat="44.43368" lon="6.13822">
        <ele>1314.259521</ele>
        <time>2011-07-05T12:09:16Z</time>
      </trkpt>
      <trkpt lat="44.43365" lon="6.13822">
        <ele>1313.29834</ele>
        <time>2011-07-05T12:09:18Z</time>
      </trkpt>
      <trkpt lat="44.43362" lon="6.13825">
        <ele>1311.375732</ele>
        <time>2011-07-05T12:09:20Z</time>
      </trkpt>
      <trkpt lat="44.43364" lon="6.13834">
        <ele>1309.453125</ele>
        <time>2011-07-05T12:09:23Z</time>
      </trkpt>
      <trkpt lat="44.43369" lon="6.13859">
        <ele>1309.453125</ele>
        <time>2011-07-05T12:09:30Z</time>
      </trkpt>
      <trkpt lat="44.43365" lon="6.13865">
        <ele>1307.049561</ele>
        <time>2011-07-05T12:09:34Z</time>
      </trkpt>
      <trkpt lat="44.43357" lon="6.13858">
        <ele>1306.088135</ele>
        <time>2011-07-05T12:09:39Z</time>
      </trkpt>
      <trkpt lat="44.43348" lon="6.13839">
        <ele>1304.64624</ele>
        <time>2011-07-05T12:09:45Z</time>
      </trkpt>
      <trkpt lat="44.4334" lon="6.13827">
        <ele>1304.64624</ele>
        <time>2011-07-05T12:09:49Z</time>
      </trkpt>
      <trkpt lat="44.43337" lon="6.13828">
        <ele>1302.723633</ele>
        <time>2011-07-05T12:09:51Z</time>
      </trkpt>
      <trkpt lat="44.43335" lon="6.13841">
        <ele>1300.801025</ele>
        <time>2011-07-05T12:09:56Z</time>
      </trkpt>
      <trkpt lat="44.43336" lon="6.1386">
        <ele>1298.878418</ele>
        <time>2011-07-05T12:10:01Z</time>
      </trkpt>
      <trkpt lat="44.43338" lon="6.13878">
        <ele>1297.436523</ele>
        <time>2011-07-05T12:10:06Z</time>
      </trkpt>
      <trkpt lat="44.43339" lon="6.13885">
        <ele>1296.475342</ele>
        <time>2011-07-05T12:10:08Z</time>
      </trkpt>
      <trkpt lat="44.43335" lon="6.13891">
        <ele>1294.072021</ele>
        <time>2011-07-05T12:10:11Z</time>
      </trkpt>
      <trkpt lat="44.43333" lon="6.13893">
        <ele>1293.591309</ele>
        <time>2011-07-05T12:10:12Z</time>
      </trkpt>
      <trkpt lat="44.43321" lon="6.13886">
        <ele>1292.149414</ele>
        <time>2011-07-05T12:10:17Z</time>
      </trkpt>
      <trkpt lat="44.43306" lon="6.13869">
        <ele>1292.149414</ele>
        <time>2011-07-05T12:10:24Z</time>
      </trkpt>
      <trkpt lat="44.433" lon="6.1387">
        <ele>1290.707031</ele>
        <time>2011-07-05T12:10:27Z</time>
      </trkpt>
      <trkpt lat="44.43297" lon="6.13874">
        <ele>1289.265137</ele>
        <time>2011-07-05T12:10:29Z</time>
      </trkpt>
      <trkpt lat="44.43291" lon="6.13884">
        <ele>1287.342529</ele>
        <time>2011-07-05T12:10:33Z</time>
      </trkpt>
      <trkpt lat="44.43287" lon="6.13894">
        <ele>1285.419922</ele>
        <time>2011-07-05T12:10:37Z</time>
      </trkpt>
      <trkpt lat="44.43269" lon="6.13919">
        <ele>1282.05542</ele>
        <time>2011-07-05T12:10:45Z</time>
      </trkpt>
      <trkpt lat="44.43249" lon="6.13941">
        <ele>1280.132813</ele>
        <time>2011-07-05T12:10:52Z</time>
      </trkpt>
      <trkpt lat="44.43236" lon="6.13966">
        <ele>1276.287598</ele>
        <time>2011-07-05T12:10:58Z</time>
      </trkpt>
      <trkpt lat="44.43235" lon="6.1397">
        <ele>1276.287598</ele>
        <time>2011-07-05T12:10:59Z</time>
      </trkpt>
      <trkpt lat="44.43228" lon="6.13984">
        <ele>1274.845459</ele>
        <time>2011-07-05T12:11:03Z</time>
      </trkpt>
      <trkpt lat="44.43222" lon="6.13995">
        <ele>1273.403564</ele>
        <time>2011-07-05T12:11:06Z</time>
      </trkpt>
      <trkpt lat="44.4321" lon="6.14013">
        <ele>1270.038818</ele>
        <time>2011-07-05T12:11:12Z</time>
      </trkpt>
      <trkpt lat="44.43208" lon="6.14016">
        <ele>1270.038818</ele>
        <time>2011-07-05T12:11:13Z</time>
      </trkpt>
      <trkpt lat="44.43185" lon="6.14024">
        <ele>1266.674316</ele>
        <time>2011-07-05T12:11:23Z</time>
      </trkpt>
      <trkpt lat="44.43183" lon="6.14022">
        <ele>1266.674316</ele>
        <time>2011-07-05T12:11:24Z</time>
      </trkpt>
      <trkpt lat="44.43164" lon="6.14001">
        <ele>1263.309814</ele>
        <time>2011-07-05T12:11:32Z</time>
      </trkpt>
      <trkpt lat="44.43157" lon="6.14006">
        <ele>1261.387207</ele>
        <time>2011-07-05T12:11:36Z</time>
      </trkpt>
      <trkpt lat="44.43156" lon="6.14009">
        <ele>1260.425781</ele>
        <time>2011-07-05T12:11:37Z</time>
      </trkpt>
      <trkpt lat="44.4315" lon="6.1402">
        <ele>1258.983643</ele>
        <time>2011-07-05T12:11:42Z</time>
      </trkpt>
      <trkpt lat="44.43142" lon="6.14027">
        <ele>1258.022461</ele>
        <time>2011-07-05T12:11:46Z</time>
      </trkpt>
      <trkpt lat="44.4311" lon="6.14024">
        <ele>1254.657715</ele>
        <time>2011-07-05T12:11:58Z</time>
      </trkpt>
      <trkpt lat="44.43102" lon="6.14021">
        <ele>1252.735107</ele>
        <time>2011-07-05T12:12:01Z</time>
      </trkpt>
      <trkpt lat="44.43093" lon="6.14017">
        <ele>1251.773926</ele>
        <time>2011-07-05T12:12:04Z</time>
      </trkpt>
      <trkpt lat="44.4306" lon="6.14009">
        <ele>1246.967285</ele>
        <time>2011-07-05T12:12:19Z</time>
      </trkpt>
      <trkpt lat="44.43058" lon="6.1401">
        <ele>1246.967285</ele>
        <time>2011-07-05T12:12:20Z</time>
      </trkpt>
      <trkpt lat="44.43044" lon="6.14022">
        <ele>1243.602539</ele>
        <time>2011-07-05T12:12:26Z</time>
      </trkpt>
      <trkpt lat="44.43033" lon="6.14032">
        <ele>1241.679932</ele>
        <time>2011-07-05T12:12:31Z</time>
      </trkpt>
      <trkpt lat="44.43003" lon="6.14036">
        <ele>1237.834717</ele>
        <time>2011-07-05T12:12:42Z</time>
      </trkpt>
      <trkpt lat="44.42999" lon="6.14036">
        <ele>1237.834717</ele>
        <time>2011-07-05T12:12:43Z</time>
      </trkpt>
      <trkpt lat="44.42984" lon="6.14035">
        <ele>1235.431396</ele>
        <time>2011-07-05T12:12:48Z</time>
      </trkpt>
      <trkpt lat="44.42969" lon="6.14043">
        <ele>1233.508789</ele>
        <time>2011-07-05T12:12:54Z</time>
      </trkpt>
      <trkpt lat="44.42947" lon="6.14058">
        <ele>1230.144287</ele>
        <time>2011-07-05T12:13:01Z</time>
      </trkpt>
      <trkpt lat="44.42944" lon="6.14058">
        <ele>1230.144287</ele>
        <time>2011-07-05T12:13:02Z</time>
      </trkpt>
      <trkpt lat="44.42923" lon="6.14059">
        <ele>1227.740723</ele>
        <time>2011-07-05T12:13:09Z</time>
      </trkpt>
      <trkpt lat="44.42917" lon="6.14058">
        <ele>1225.818115</ele>
        <time>2011-07-05T12:13:11Z</time>
      </trkpt>
      <trkpt lat="44.42905" lon="6.14057">
        <ele>1224.376221</ele>
        <time>2011-07-05T12:13:15Z</time>
      </trkpt>
      <trkpt lat="44.42891" lon="6.14038">
        <ele>1221.492188</ele>
        <time>2011-07-05T12:13:23Z</time>
      </trkpt>
      <trkpt lat="44.42879" lon="6.13999">
        <ele>1218.127686</ele>
        <time>2011-07-05T12:13:33Z</time>
      </trkpt>
      <trkpt lat="44.42877" lon="6.13994">
        <ele>1218.127686</ele>
        <time>2011-07-05T12:13:34Z</time>
      </trkpt>
      <trkpt lat="44.42871" lon="6.13974">
        <ele>1215.724609</ele>
        <time>2011-07-05T12:13:38Z</time>
      </trkpt>
      <trkpt lat="44.42862" lon="6.13924">
        <ele>1211.87915</ele>
        <time>2011-07-05T12:13:49Z</time>
      </trkpt>
      <trkpt lat="44.42861" lon="6.13919">
        <ele>1211.87915</ele>
        <time>2011-07-05T12:13:50Z</time>
      </trkpt>
      <trkpt lat="44.42854" lon="6.13895">
        <ele>1208.995117</ele>
        <time>2011-07-05T12:13:55Z</time>
      </trkpt>
      <trkpt lat="44.42853" lon="6.1389">
        <ele>1208.995117</ele>
        <time>2011-07-05T12:13:56Z</time>
      </trkpt>
      <trkpt lat="44.42852" lon="6.13877">
        <ele>1207.553223</ele>
        <time>2011-07-05T12:13:59Z</time>
      </trkpt>
      <trkpt lat="44.42852" lon="6.13872">
        <ele>1206.591797</ele>
        <time>2011-07-05T12:14:00Z</time>
      </trkpt>
      <trkpt lat="44.4286" lon="6.13853">
        <ele>1205.630615</ele>
        <time>2011-07-05T12:14:06Z</time>
      </trkpt>
      <trkpt lat="44.42856" lon="6.13842">
        <ele>1202.746582</ele>
        <time>2011-07-05T12:14:09Z</time>
      </trkpt>
      <trkpt lat="44.4286" lon="6.13853">
        <ele>1201.304688</ele>
        <time>2011-07-05T12:14:12Z</time>
      </trkpt>
      <trkpt lat="44.42829" lon="6.13821">
        <ele>1197.459473</ele>
        <time>2011-07-05T12:14:20Z</time>
      </trkpt>
      <trkpt lat="44.42817" lon="6.13818">
        <ele>1196.017578</ele>
        <time>2011-07-05T12:14:24Z</time>
      </trkpt>
      <trkpt lat="44.4281" lon="6.13844">
        <ele>1193.133301</ele>
        <time>2011-07-05T12:14:32Z</time>
      </trkpt>
      <trkpt lat="44.42811" lon="6.13854">
        <ele>1190.72998</ele>
        <time>2011-07-05T12:14:34Z</time>
      </trkpt>
      <trkpt lat="44.42811" lon="6.13859">
        <ele>1190.72998</ele>
        <time>2011-07-05T12:14:35Z</time>
      </trkpt>
      <trkpt lat="44.42795" lon="6.13875">
        <ele>1187.365479</ele>
        <time>2011-07-05T12:14:43Z</time>
      </trkpt>
      <trkpt lat="44.42791" lon="6.13875">
        <ele>1186.884766</ele>
        <time>2011-07-05T12:14:44Z</time>
      </trkpt>
      <trkpt lat="44.42759" lon="6.13874">
        <ele>1183.520264</ele>
        <time>2011-07-05T12:14:52Z</time>
      </trkpt>
      <trkpt lat="44.42755" lon="6.13874">
        <ele>1183.520264</ele>
        <time>2011-07-05T12:14:53Z</time>
      </trkpt>
      <trkpt lat="44.42742" lon="6.13874">
        <ele>1182.078369</ele>
        <time>2011-07-05T12:14:56Z</time>
      </trkpt>
      <trkpt lat="44.42736" lon="6.13874">
        <ele>1180.636475</ele>
        <time>2011-07-05T12:14:58Z</time>
      </trkpt>
      <trkpt lat="44.42717" lon="6.13898">
        <ele>1178.23291</ele>
        <time>2011-07-05T12:15:08Z</time>
      </trkpt>
      <trkpt lat="44.42717" lon="6.13907">
        <ele>1177.271729</ele>
        <time>2011-07-05T12:15:10Z</time>
      </trkpt>
      <trkpt lat="44.42722" lon="6.13952">
        <ele>1173.906982</ele>
        <time>2011-07-05T12:15:20Z</time>
      </trkpt>
      <trkpt lat="44.42723" lon="6.13962">
        <ele>1173.426514</ele>
        <time>2011-07-05T12:15:22Z</time>
      </trkpt>
      <trkpt lat="44.42726" lon="6.13985">
        <ele>1171.023193</ele>
        <time>2011-07-05T12:15:26Z</time>
      </trkpt>
      <trkpt lat="44.42734" lon="6.14026">
        <ele>1167.658447</ele>
        <time>2011-07-05T12:15:34Z</time>
      </trkpt>
      <trkpt lat="44.42734" lon="6.1403">
        <ele>1167.658447</ele>
        <time>2011-07-05T12:15:35Z</time>
      </trkpt>
      <trkpt lat="44.42733" lon="6.14038">
        <ele>1165.255371</ele>
        <time>2011-07-05T12:15:45Z</time>
      </trkpt>
      <trkpt lat="44.42715" lon="6.14064">
        <ele>1162.851807</ele>
        <time>2011-07-05T12:15:54Z</time>
      </trkpt>
      <trkpt lat="44.4271" lon="6.14105">
        <ele>1160.448486</ele>
        <time>2011-07-05T12:16:05Z</time>
      </trkpt>
      <trkpt lat="44.42714" lon="6.1413">
        <ele>1158.525879</ele>
        <time>2011-07-05T12:16:10Z</time>
      </trkpt>
      <trkpt lat="44.42715" lon="6.14134">
        <ele>1158.04541</ele>
        <time>2011-07-05T12:16:11Z</time>
      </trkpt>
      <trkpt lat="44.4271" lon="6.14151">
        <ele>1154.680664</ele>
        <time>2011-07-05T12:16:18Z</time>
      </trkpt>
      <trkpt lat="44.42697" lon="6.1414">
        <ele>1153.23877</ele>
        <time>2011-07-05T12:16:27Z</time>
      </trkpt>
      <trkpt lat="44.42675" lon="6.14119">
        <ele>1151.316162</ele>
        <time>2011-07-05T12:16:37Z</time>
      </trkpt>
      <trkpt lat="44.42676" lon="6.1409">
        <ele>1148.912842</ele>
        <time>2011-07-05T12:16:45Z</time>
      </trkpt>
      <trkpt lat="44.42677" lon="6.14077">
        <ele>1147.951416</ele>
        <time>2011-07-05T12:16:48Z</time>
      </trkpt>
      <trkpt lat="44.42667" lon="6.14074">
        <ele>1146.98999</ele>
        <time>2011-07-05T12:16:54Z</time>
      </trkpt>
      <trkpt lat="44.42663" lon="6.14081">
        <ele>1144.58667</ele>
        <time>2011-07-05T12:16:57Z</time>
      </trkpt>
      <trkpt lat="44.4266" lon="6.14087">
        <ele>1143.144775</ele>
        <time>2011-07-05T12:17:00Z</time>
      </trkpt>
      <trkpt lat="44.42659" lon="6.14089">
        <ele>1143.625488</ele>
        <time>2011-07-05T12:17:07Z</time>
      </trkpt>
      <trkpt lat="44.42648" lon="6.14104">
        <ele>1140.741455</ele>
        <time>2011-07-05T12:17:13Z</time>
      </trkpt>
      <trkpt lat="44.42637" lon="6.14113">
        <ele>1139.299561</ele>
        <time>2011-07-05T12:17:17Z</time>
      </trkpt>
      <trkpt lat="44.4262" lon="6.14133">
        <ele>1136.89624</ele>
        <time>2011-07-05T12:17:25Z</time>
      </trkpt>
      <trkpt lat="44.42615" lon="6.14138">
        <ele>1135.454346</ele>
        <time>2011-07-05T12:17:27Z</time>
      </trkpt>
      <trkpt lat="44.4261" lon="6.14145">
        <ele>1134.493164</ele>
        <time>2011-07-05T12:17:29Z</time>
      </trkpt>
      <trkpt lat="44.42622" lon="6.14177">
        <ele>1130.647705</ele>
        <time>2011-07-05T12:17:39Z</time>
      </trkpt>
      <trkpt lat="44.42627" lon="6.14182">
        <ele>1130.647705</ele>
        <time>2011-07-05T12:17:41Z</time>
      </trkpt>
      <trkpt lat="44.42625" lon="6.14193">
        <ele>1128.244385</ele>
        <time>2011-07-05T12:17:46Z</time>
      </trkpt>
      <trkpt lat="44.42616" lon="6.14191">
        <ele>1127.763672</ele>
        <time>2011-07-05T12:17:50Z</time>
      </trkpt>
      <trkpt lat="44.42602" lon="6.14185">
        <ele>1125.841064</ele>
        <time>2011-07-05T12:17:55Z</time>
      </trkpt>
      <trkpt lat="44.42597" lon="6.14185">
        <ele>1126.80249</ele>
        <time>2011-07-05T12:17:56Z</time>
      </trkpt>
      <trkpt lat="44.42575" lon="6.14187">
        <ele>1122.957275</ele>
        <time>2011-07-05T12:18:01Z</time>
      </trkpt>
      <trkpt lat="44.42571" lon="6.14187">
        <ele>1122.957275</ele>
        <time>2011-07-05T12:18:02Z</time>
      </trkpt>
      <trkpt lat="44.42547" lon="6.14183">
        <ele>1119.112061</ele>
        <time>2011-07-05T12:18:08Z</time>
      </trkpt>
      <trkpt lat="44.42543" lon="6.14183">
        <ele>1119.112061</ele>
        <time>2011-07-05T12:18:09Z</time>
      </trkpt>
      <trkpt lat="44.42521" lon="6.14178">
        <ele>1116.70874</ele>
        <time>2011-07-05T12:18:18Z</time>
      </trkpt>
      <trkpt lat="44.42513" lon="6.14162">
        <ele>1115.266602</ele>
        <time>2011-07-05T12:18:23Z</time>
      </trkpt>
      <trkpt lat="44.42511" lon="6.14154">
        <ele>1114.305176</ele>
        <time>2011-07-05T12:18:25Z</time>
      </trkpt>
      <trkpt lat="44.4251" lon="6.14151">
        <ele>1113.824463</ele>
        <time>2011-07-05T12:18:26Z</time>
      </trkpt>
      <trkpt lat="44.42501" lon="6.1416">
        <ele>1113.824463</ele>
        <time>2011-07-05T12:18:34Z</time>
      </trkpt>
      <trkpt lat="44.42497" lon="6.14191">
        <ele>1109.498779</ele>
        <time>2011-07-05T12:18:39Z</time>
      </trkpt>
      <trkpt lat="44.4249" lon="6.14215">
        <ele>1107.095459</ele>
        <time>2011-07-05T12:18:45Z</time>
      </trkpt>
      <trkpt lat="44.42483" lon="6.14246">
        <ele>1104.692139</ele>
        <time>2011-07-05T12:18:53Z</time>
      </trkpt>
      <trkpt lat="44.425" lon="6.14275">
        <ele>1101.80835</ele>
        <time>2011-07-05T12:19:02Z</time>
      </trkpt>
      <trkpt lat="44.42515" lon="6.14284">
        <ele>1099.885498</ele>
        <time>2011-07-05T12:19:08Z</time>
      </trkpt>
      <trkpt lat="44.42516" lon="6.14293">
        <ele>1097.962891</ele>
        <time>2011-07-05T12:19:11Z</time>
      </trkpt>
      <trkpt lat="44.42509" lon="6.14301">
        <ele>1096.040283</ele>
        <time>2011-07-05T12:19:15Z</time>
      </trkpt>
      <trkpt lat="44.42496" lon="6.14306">
        <ele>1095.078857</ele>
        <time>2011-07-05T12:19:20Z</time>
      </trkpt>
      <trkpt lat="44.42488" lon="6.14309">
        <ele>1093.15625</ele>
        <time>2011-07-05T12:19:23Z</time>
      </trkpt>
      <trkpt lat="44.42477" lon="6.14314">
        <ele>1091.233643</ele>
        <time>2011-07-05T12:19:27Z</time>
      </trkpt>
      <trkpt lat="44.42462" lon="6.14323">
        <ele>1087.869141</ele>
        <time>2011-07-05T12:19:33Z</time>
      </trkpt>
      <trkpt lat="44.4246" lon="6.14325">
        <ele>1087.869141</ele>
        <time>2011-07-05T12:19:34Z</time>
      </trkpt>
      <trkpt lat="44.42437" lon="6.14342">
        <ele>1084.023926</ele>
        <time>2011-07-05T12:19:42Z</time>
      </trkpt>
      <trkpt lat="44.42434" lon="6.14344">
        <ele>1084.023926</ele>
        <time>2011-07-05T12:19:43Z</time>
      </trkpt>
      <trkpt lat="44.42429" lon="6.14349">
        <ele>1082.101074</ele>
        <time>2011-07-05T12:19:45Z</time>
      </trkpt>
      <trkpt lat="44.42421" lon="6.14355">
        <ele>1080.65918</ele>
        <time>2011-07-05T12:19:48Z</time>
      </trkpt>
      <trkpt lat="44.42399" lon="6.14374">
        <ele>1076.813965</ele>
        <time>2011-07-05T12:19:57Z</time>
      </trkpt>
      <trkpt lat="44.42392" lon="6.14377">
        <ele>1075.371826</ele>
        <time>2011-07-05T12:20:00Z</time>
      </trkpt>
      <trkpt lat="44.42369" lon="6.14391">
        <ele>1073.449463</ele>
        <time>2011-07-05T12:20:10Z</time>
      </trkpt>
      <trkpt lat="44.42374" lon="6.14402">
        <ele>1071.526611</ele>
        <time>2011-07-05T12:20:16Z</time>
      </trkpt>
      <trkpt lat="44.42395" lon="6.14405">
        <ele>1068.162109</ele>
        <time>2011-07-05T12:20:24Z</time>
      </trkpt>
      <trkpt lat="44.42398" lon="6.14406">
        <ele>1068.162109</ele>
        <time>2011-07-05T12:20:25Z</time>
      </trkpt>
      <trkpt lat="44.42413" lon="6.14413">
        <ele>1065.758789</ele>
        <time>2011-07-05T12:20:30Z</time>
      </trkpt>
      <trkpt lat="44.4242" lon="6.14416">
        <ele>1064.31665</ele>
        <time>2011-07-05T12:20:32Z</time>
      </trkpt>
      <trkpt lat="44.42433" lon="6.14423">
        <ele>1061.913574</ele>
        <time>2011-07-05T12:20:36Z</time>
      </trkpt>
      <trkpt lat="44.42446" lon="6.14425">
        <ele>1059.510254</ele>
        <time>2011-07-05T12:20:41Z</time>
      </trkpt>
      <trkpt lat="44.42451" lon="6.14433">
        <ele>1058.548828</ele>
        <time>2011-07-05T12:20:45Z</time>
      </trkpt>
      <trkpt lat="44.42442" lon="6.14445">
        <ele>1056.626221</ele>
        <time>2011-07-05T12:20:52Z</time>
      </trkpt>
      <trkpt lat="44.42428" lon="6.14447">
        <ele>1055.184326</ele>
        <time>2011-07-05T12:20:57Z</time>
      </trkpt>
      <trkpt lat="44.42432" lon="6.14464">
        <ele>1052.300293</ele>
        <time>2011-07-05T12:21:06Z</time>
      </trkpt>
      <trkpt lat="44.42465" lon="6.14466">
        <ele>1048.454834</ele>
        <time>2011-07-05T12:21:19Z</time>
      </trkpt>
      <trkpt lat="44.42481" lon="6.14464">
        <ele>1047.012939</ele>
        <time>2011-07-05T12:21:24Z</time>
      </trkpt>
      <trkpt lat="44.42491" lon="6.14462">
        <ele>1045.571045</ele>
        <time>2011-07-05T12:21:28Z</time>
      </trkpt>
      <trkpt lat="44.42499" lon="6.14475">
        <ele>1042.687256</ele>
        <time>2011-07-05T12:21:36Z</time>
      </trkpt>
      <trkpt lat="44.42491" lon="6.14484">
        <ele>1041.245117</ele>
        <time>2011-07-05T12:21:41Z</time>
      </trkpt>
      <trkpt lat="44.42461" lon="6.14511">
        <ele>1037.399902</ele>
        <time>2011-07-05T12:21:54Z</time>
      </trkpt>
      <trkpt lat="44.42454" lon="6.14518">
        <ele>1035.477051</ele>
        <time>2011-07-05T12:21:57Z</time>
      </trkpt>
      <trkpt lat="44.42433" lon="6.14529">
        <ele>1032.112549</ele>
        <time>2011-07-05T12:22:05Z</time>
      </trkpt>
      <trkpt lat="44.4243" lon="6.14529">
        <ele>1032.112549</ele>
        <time>2011-07-05T12:22:06Z</time>
      </trkpt>
      <trkpt lat="44.42424" lon="6.1453">
        <ele>1030.670654</ele>
        <time>2011-07-05T12:22:08Z</time>
      </trkpt>
      <trkpt lat="44.42418" lon="6.14531">
        <ele>1029.228516</ele>
        <time>2011-07-05T12:22:10Z</time>
      </trkpt>
      <trkpt lat="44.42403" lon="6.14535">
        <ele>1027.306152</ele>
        <time>2011-07-05T12:22:15Z</time>
      </trkpt>
      <trkpt lat="44.42401" lon="6.1454">
        <ele>1026.344727</ele>
        <time>2011-07-05T12:22:17Z</time>
      </trkpt>
      <trkpt lat="44.42405" lon="6.14547">
        <ele>1025.383301</ele>
        <time>2011-07-05T12:22:20Z</time>
      </trkpt>
      <trkpt lat="44.42415" lon="6.14551">
        <ele>1023.460938</ele>
        <time>2011-07-05T12:22:25Z</time>
      </trkpt>
      <trkpt lat="44.42433" lon="6.14561">
        <ele>1019.615479</ele>
        <time>2011-07-05T12:22:34Z</time>
      </trkpt>
      <trkpt lat="44.42433" lon="6.14564">
        <ele>1019.615479</ele>
        <time>2011-07-05T12:22:46Z</time>
      </trkpt>
      <trkpt lat="44.42433" lon="6.14564">
        <ele>1020.576904</ele>
        <time>2011-07-05T12:22:51Z</time>
      </trkpt>
      <trkpt lat="44.42431" lon="6.14571">
        <ele>1019.134766</ele>
        <time>2011-07-05T12:22:56Z</time>
      </trkpt>
      <trkpt lat="44.42426" lon="6.14571">
        <ele>1018.654053</ele>
        <time>2011-07-05T12:22:58Z</time>
      </trkpt>
      <trkpt lat="44.42405" lon="6.14571">
        <ele>1016.731445</ele>
        <time>2011-07-05T12:23:05Z</time>
      </trkpt>
      <trkpt lat="44.42391" lon="6.14569">
        <ele>1013.366943</ele>
        <time>2011-07-05T12:23:09Z</time>
      </trkpt>
      <trkpt lat="44.42383" lon="6.14569">
        <ele>1014.328125</ele>
        <time>2011-07-05T12:23:12Z</time>
      </trkpt>
      <trkpt lat="44.42382" lon="6.14579">
        <ele>1011.925049</ele>
        <time>2011-07-05T12:23:17Z</time>
      </trkpt>
      <trkpt lat="44.42387" lon="6.14582">
        <ele>1010.963623</ele>
        <time>2011-07-05T12:23:19Z</time>
      </trkpt>
      <trkpt lat="44.42394" lon="6.14588">
        <ele>1009.041016</ele>
        <time>2011-07-05T12:23:22Z</time>
      </trkpt>
      <trkpt lat="44.42402" lon="6.14594">
        <ele>1008.079834</ele>
        <time>2011-07-05T12:23:26Z</time>
      </trkpt>
      <trkpt lat="44.42399" lon="6.14603">
        <ele>1005.676514</ele>
        <time>2011-07-05T12:23:34Z</time>
      </trkpt>
      <trkpt lat="44.42386" lon="6.146">
        <ele>1004.715088</ele>
        <time>2011-07-05T12:23:38Z</time>
      </trkpt>
      <trkpt lat="44.42375" lon="6.14598">
        <ele>1003.272949</ele>
        <time>2011-07-05T12:23:42Z</time>
      </trkpt>
      <trkpt lat="44.42369" lon="6.14595">
        <ele>1002.311523</ele>
        <time>2011-07-05T12:23:44Z</time>
      </trkpt>
      <trkpt lat="44.42362" lon="6.1459">
        <ele>1000.38916</ele>
        <time>2011-07-05T12:23:47Z</time>
      </trkpt>
      <trkpt lat="44.42352" lon="6.14582">
        <ele>998.466309</ele>
        <time>2011-07-05T12:23:52Z</time>
      </trkpt>
      <trkpt lat="44.4235" lon="6.14593">
        <ele>998.466309</ele>
        <time>2011-07-05T12:23:57Z</time>
      </trkpt>
      <trkpt lat="44.42354" lon="6.14599">
        <ele>997.024414</ele>
        <time>2011-07-05T12:23:59Z</time>
      </trkpt>
      <trkpt lat="44.42366" lon="6.14617">
        <ele>995.101807</ele>
        <time>2011-07-05T12:24:05Z</time>
      </trkpt>
      <trkpt lat="44.4237" lon="6.1462">
        <ele>993.659912</ele>
        <time>2011-07-05T12:24:07Z</time>
      </trkpt>
      <trkpt lat="44.42372" lon="6.14622">
        <ele>993.659912</ele>
        <time>2011-07-05T12:24:08Z</time>
      </trkpt>
      <trkpt lat="44.42361" lon="6.14631">
        <ele>991.256592</ele>
        <time>2011-07-05T12:24:17Z</time>
      </trkpt>
      <trkpt lat="44.42331" lon="6.14609">
        <ele>987.411133</ele>
        <time>2011-07-05T12:24:27Z</time>
      </trkpt>
      <trkpt lat="44.42326" lon="6.14604">
        <ele>987.411133</ele>
        <time>2011-07-05T12:24:37Z</time>
      </trkpt>
      <trkpt lat="44.42323" lon="6.14604">
        <ele>986.93042</ele>
        <time>2011-07-05T12:24:49Z</time>
      </trkpt>
      <trkpt lat="44.4231" lon="6.14595">
        <ele>985.969238</ele>
        <time>2011-07-05T12:24:56Z</time>
      </trkpt>
      <trkpt lat="44.42299" lon="6.14586">
        <ele>983.565918</ele>
        <time>2011-07-05T12:25:01Z</time>
      </trkpt>
      <trkpt lat="44.42296" lon="6.14598">
        <ele>982.124023</ele>
        <time>2011-07-05T12:25:07Z</time>
      </trkpt>
      <trkpt lat="44.42301" lon="6.14611">
        <ele>979.720703</ele>
        <time>2011-07-05T12:25:21Z</time>
      </trkpt>
      <trkpt lat="44.42306" lon="6.1461">
        <ele>979.23999</ele>
        <time>2011-07-05T12:25:35Z</time>
      </trkpt>
      <trkpt lat="44.42306" lon="6.14612">
        <ele>979.23999</ele>
        <time>2011-07-05T12:25:41Z</time>
      </trkpt>
      <trkpt lat="44.42307" lon="6.14616">
        <ele>978.759521</ele>
        <time>2011-07-05T12:25:43Z</time>
      </trkpt>
      <trkpt lat="44.42297" lon="6.1462">
        <ele>978.278809</ele>
        <time>2011-07-05T12:25:49Z</time>
      </trkpt>
      <trkpt lat="44.42275" lon="6.14602">
        <ele>974.433594</ele>
        <time>2011-07-05T12:25:57Z</time>
      </trkpt>
      <trkpt lat="44.42272" lon="6.146">
        <ele>974.433594</ele>
        <time>2011-07-05T12:25:58Z</time>
      </trkpt>
      <trkpt lat="44.42261" lon="6.14587">
        <ele>972.030273</ele>
        <time>2011-07-05T12:26:04Z</time>
      </trkpt>
      <trkpt lat="44.42251" lon="6.14579">
        <ele>969.626953</ele>
        <time>2011-07-05T12:26:09Z</time>
      </trkpt>
      <trkpt lat="44.42229" lon="6.14564">
        <ele>964.820313</ele>
        <time>2011-07-05T12:26:18Z</time>
      </trkpt>
      <trkpt lat="44.42227" lon="6.14562">
        <ele>964.3396</ele>
        <time>2011-07-05T12:26:19Z</time>
      </trkpt>
      <trkpt lat="44.4221" lon="6.1453">
        <ele>960.494385</ele>
        <time>2011-07-05T12:26:28Z</time>
      </trkpt>
      <trkpt lat="44.42209" lon="6.14526">
        <ele>960.494385</ele>
        <time>2011-07-05T12:26:29Z</time>
      </trkpt>
      <trkpt lat="44.42204" lon="6.14516">
        <ele>959.05249</ele>
        <time>2011-07-05T12:26:32Z</time>
      </trkpt>
      <trkpt lat="44.42199" lon="6.14503">
        <ele>957.610596</ele>
        <time>2011-07-05T12:26:36Z</time>
      </trkpt>
      <trkpt lat="44.42197" lon="6.14499">
        <ele>957.129883</ele>
        <time>2011-07-05T12:26:37Z</time>
      </trkpt>
      <trkpt lat="44.42191" lon="6.14493">
        <ele>955.687744</ele>
        <time>2011-07-05T12:26:40Z</time>
      </trkpt>
      <trkpt lat="44.42187" lon="6.1449">
        <ele>954.24585</ele>
        <time>2011-07-05T12:26:42Z</time>
      </trkpt>
      <trkpt lat="44.42177" lon="6.14491">
        <ele>951.361816</ele>
        <time>2011-07-05T12:26:46Z</time>
      </trkpt>
      <trkpt lat="44.42163" lon="6.14501">
        <ele>949.439209</ele>
        <time>2011-07-05T12:26:52Z</time>
      </trkpt>
      <trkpt lat="44.42158" lon="6.14506">
        <ele>947.997314</ele>
        <time>2011-07-05T12:26:54Z</time>
      </trkpt>
      <trkpt lat="44.42153" lon="6.14517">
        <ele>946.074707</ele>
        <time>2011-07-05T12:26:57Z</time>
      </trkpt>
      <trkpt lat="44.42143" lon="6.14546">
        <ele>942.710205</ele>
        <time>2011-07-05T12:27:04Z</time>
      </trkpt>
      <trkpt lat="44.42142" lon="6.1455">
        <ele>942.710205</ele>
        <time>2011-07-05T12:27:05Z</time>
      </trkpt>
      <trkpt lat="44.42137" lon="6.14559">
        <ele>941.748779</ele>
        <time>2011-07-05T12:27:08Z</time>
      </trkpt>
      <trkpt lat="44.42132" lon="6.14562">
        <ele>940.306885</ele>
        <time>2011-07-05T12:27:11Z</time>
      </trkpt>
      <trkpt lat="44.42131" lon="6.14564">
        <ele>940.787354</ele>
        <time>2011-07-05T12:27:30Z</time>
      </trkpt>
      <trkpt lat="44.42129" lon="6.1457">
        <ele>939.345215</ele>
        <time>2011-07-05T12:27:32Z</time>
      </trkpt>
      <trkpt lat="44.42128" lon="6.14575">
        <ele>939.345215</ele>
        <time>2011-07-05T12:27:33Z</time>
      </trkpt>
      <trkpt lat="44.42125" lon="6.14595">
        <ele>939.345215</ele>
        <time>2011-07-05T12:27:43Z</time>
      </trkpt>
      <trkpt lat="44.42118" lon="6.14623">
        <ele>936.941895</ele>
        <time>2011-07-05T12:28:03Z</time>
      </trkpt>
      <trkpt lat="44.4209" lon="6.14726">
        <ele>935.019531</ele>
        <time>2011-07-05T12:28:16Z</time>
      </trkpt>
      <trkpt lat="44.42086" lon="6.14746">
        <ele>935.019531</ele>
        <time>2011-07-05T12:28:18Z</time>
      </trkpt>
      <trkpt lat="44.42117" lon="6.14787">
        <ele>932.616211</ele>
        <time>2011-07-05T12:28:26Z</time>
      </trkpt>
      <trkpt lat="44.42155" lon="6.14816">
        <ele>931.174316</ele>
        <time>2011-07-05T12:28:32Z</time>
      </trkpt>
      <trkpt lat="44.42158" lon="6.14838">
        <ele>931.174316</ele>
        <time>2011-07-05T12:28:34Z</time>
      </trkpt>
      <trkpt lat="44.4216" lon="6.14881">
        <ele>929.251465</ele>
        <time>2011-07-05T12:28:38Z</time>
      </trkpt>
      <trkpt lat="44.42138" lon="6.14928">
        <ele>930.212891</ele>
        <time>2011-07-05T12:28:45Z</time>
      </trkpt>
      <trkpt lat="44.42135" lon="6.14928">
        <ele>929.251465</ele>
        <time>2011-07-05T12:28:49Z</time>
      </trkpt>
      <trkpt lat="44.42086" lon="6.14947">
        <ele>928.770996</ele>
        <time>2011-07-05T12:28:57Z</time>
      </trkpt>
      <trkpt lat="44.42052" lon="6.14962">
        <ele>932.135498</ele>
        <time>2011-07-05T12:29:07Z</time>
      </trkpt>
      <trkpt lat="44.42043" lon="6.14976">
        <ele>930.212891</ele>
        <time>2011-07-05T12:29:11Z</time>
      </trkpt>
      <trkpt lat="44.42034" lon="6.15002">
        <ele>929.251465</ele>
        <time>2011-07-05T12:29:16Z</time>
      </trkpt>
      <trkpt lat="44.41993" lon="6.15116">
        <ele>928.290283</ele>
        <time>2011-07-05T12:29:32Z</time>
      </trkpt>
      <trkpt lat="44.41971" lon="6.15177">
        <ele>925.886963</ele>
        <time>2011-07-05T12:29:39Z</time>
      </trkpt>
      <trkpt lat="44.41962" lon="6.15207">
        <ele>927.329102</ele>
        <time>2011-07-05T12:29:42Z</time>
      </trkpt>
      <trkpt lat="44.41957" lon="6.15228">
        <ele>925.886963</ele>
        <time>2011-07-05T12:29:44Z</time>
      </trkpt>
      <trkpt lat="44.41952" lon="6.15251">
        <ele>923.964111</ele>
        <time>2011-07-05T12:29:46Z</time>
      </trkpt>
      <trkpt lat="44.41941" lon="6.15312">
        <ele>923.00293</ele>
        <time>2011-07-05T12:29:51Z</time>
      </trkpt>
      <trkpt lat="44.41932" lon="6.15364">
        <ele>921.080322</ele>
        <time>2011-07-05T12:29:55Z</time>
      </trkpt>
      <trkpt lat="44.41921" lon="6.15433">
        <ele>918.677002</ele>
        <time>2011-07-05T12:30:00Z</time>
      </trkpt>
      <trkpt lat="44.41913" lon="6.15493">
        <ele>917.235107</ele>
        <time>2011-07-05T12:30:04Z</time>
      </trkpt>
      <trkpt lat="44.41907" lon="6.15539">
        <ele>914.831787</ele>
        <time>2011-07-05T12:30:07Z</time>
      </trkpt>
      <trkpt lat="44.41899" lon="6.15611">
        <ele>912.428467</ele>
        <time>2011-07-05T12:30:12Z</time>
      </trkpt>
      <trkpt lat="44.41899" lon="6.15634">
        <ele>909.063965</ele>
        <time>2011-07-05T12:30:14Z</time>
      </trkpt>
      <trkpt lat="44.41903" lon="6.15721">
        <ele>906.179688</ele>
        <time>2011-07-05T12:30:21Z</time>
      </trkpt>
      <trkpt lat="44.41903" lon="6.15734">
        <ele>906.179688</ele>
        <time>2011-07-05T12:30:22Z</time>
      </trkpt>
      <trkpt lat="44.41902" lon="6.15789">
        <ele>904.257324</ele>
        <time>2011-07-05T12:30:26Z</time>
      </trkpt>
      <trkpt lat="44.41898" lon="6.15852">
        <ele>900.892578</ele>
        <time>2011-07-05T12:30:31Z</time>
      </trkpt>
      <trkpt lat="44.41897" lon="6.15865">
        <ele>900.892578</ele>
        <time>2011-07-05T12:30:32Z</time>
      </trkpt>
      <trkpt lat="44.41883" lon="6.15977">
        <ele>896.566895</ele>
        <time>2011-07-05T12:30:41Z</time>
      </trkpt>
      <trkpt lat="44.41863" lon="6.16098">
        <ele>896.566895</ele>
        <time>2011-07-05T12:31:08Z</time>
      </trkpt>
      <trkpt lat="44.41863" lon="6.16098">
        <ele>897.047363</ele>
        <time>2011-07-05T12:31:21Z</time>
      </trkpt>
      <trkpt lat="44.41863" lon="6.16098">
        <ele>895.605469</ele>
        <time>2011-07-05T12:32:11Z</time>
      </trkpt>
      <trkpt lat="44.41863" lon="6.16098">
        <ele>894.163574</ele>
        <time>2011-07-05T12:33:31Z</time>
      </trkpt>
      <trkpt lat="44.41863" lon="6.16098">
        <ele>893.202148</ele>
        <time>2011-07-05T12:33:58Z</time>
      </trkpt>
      <trkpt lat="44.41863" lon="6.16098">
        <ele>894.644043</ele>
        <time>2011-07-05T12:34:00Z</time>
      </trkpt>
      <trkpt lat="44.41863" lon="6.16098">
        <ele>894.163574</ele>
        <time>2011-07-05T12:34:21Z</time>
      </trkpt>
      <trkpt lat="44.41864" lon="6.16115">
        <ele>893.202148</ele>
        <time>2011-07-05T12:34:28Z</time>
      </trkpt>
      <trkpt lat="44.4187" lon="6.16117">
        <ele>893.202148</ele>
        <time>2011-07-05T12:34:33Z</time>
      </trkpt>
      <trkpt lat="44.41836" lon="6.1616">
        <ele>890.798584</ele>
        <time>2011-07-05T12:34:44Z</time>
      </trkpt>
      <trkpt lat="44.4183" lon="6.16183">
        <ele>889.356689</ele>
        <time>2011-07-05T12:34:47Z</time>
      </trkpt>
      <trkpt lat="44.41826" lon="6.162">
        <ele>891.76001</ele>
        <time>2011-07-05T12:34:49Z</time>
      </trkpt>
      <trkpt lat="44.41822" lon="6.16213">
        <ele>891.279297</ele>
        <time>2011-07-05T12:34:51Z</time>
      </trkpt>
      <trkpt lat="44.41861" lon="6.16298">
        <ele>887.434082</ele>
        <time>2011-07-05T12:34:56Z</time>
      </trkpt>
      <trkpt lat="44.41857" lon="6.16322">
        <ele>886.4729</ele>
        <time>2011-07-05T12:34:58Z</time>
      </trkpt>
      <trkpt lat="44.41856" lon="6.16335">
        <ele>885.031006</ele>
        <time>2011-07-05T12:34:59Z</time>
      </trkpt>
      <trkpt lat="44.41902" lon="6.16522">
        <ele>879.743652</ele>
        <time>2011-07-05T12:35:13Z</time>
      </trkpt>
      <trkpt lat="44.41905" lon="6.16537">
        <ele>879.743652</ele>
        <time>2011-07-05T12:35:14Z</time>
      </trkpt>
      <trkpt lat="44.41924" lon="6.16614">
        <ele>876.859863</ele>
        <time>2011-07-05T12:35:19Z</time>
      </trkpt>
      <trkpt lat="44.41935" lon="6.16643">
        <ele>875.41748</ele>
        <time>2011-07-05T12:35:21Z</time>
      </trkpt>
      <trkpt lat="44.41946" lon="6.16673">
        <ele>872.052979</ele>
        <time>2011-07-05T12:35:23Z</time>
      </trkpt>
      <trkpt lat="44.41951" lon="6.16688">
        <ele>872.052979</ele>
        <time>2011-07-05T12:35:24Z</time>
      </trkpt>
      <trkpt lat="44.4197" lon="6.1676">
        <ele>868.688477</ele>
        <time>2011-07-05T12:35:29Z</time>
      </trkpt>
      <trkpt lat="44.41982" lon="6.16815">
        <ele>867.246582</ele>
        <time>2011-07-05T12:35:33Z</time>
      </trkpt>
      <trkpt lat="44.41989" lon="6.16874">
        <ele>863.881836</ele>
        <time>2011-07-05T12:35:37Z</time>
      </trkpt>
      <trkpt lat="44.41993" lon="6.16887">
        <ele>863.881836</ele>
        <time>2011-07-05T12:35:38Z</time>
      </trkpt>
      <trkpt lat="44.4201" lon="6.16949">
        <ele>861.47876</ele>
        <time>2011-07-05T12:35:43Z</time>
      </trkpt>
      <trkpt lat="44.42021" lon="6.16975">
        <ele>858.594482</ele>
        <time>2011-07-05T12:35:46Z</time>
      </trkpt>
      <trkpt lat="44.42035" lon="6.16998">
        <ele>857.152588</ele>
        <time>2011-07-05T12:35:50Z</time>
      </trkpt>
      <trkpt lat="44.42019" lon="6.17004">
        <ele>856.191162</ele>
        <time>2011-07-05T12:35:56Z</time>
      </trkpt>
      <trkpt lat="44.42015" lon="6.16999">
        <ele>856.191162</ele>
        <time>2011-07-05T12:35:57Z</time>
      </trkpt>
      <trkpt lat="44.41992" lon="6.16964">
        <ele>855.710693</ele>
        <time>2011-07-05T12:36:02Z</time>
      </trkpt>
      <trkpt lat="44.41984" lon="6.16947">
        <ele>854.268799</ele>
        <time>2011-07-05T12:36:04Z</time>
      </trkpt>
      <trkpt lat="44.41976" lon="6.16928">
        <ele>853.788086</ele>
        <time>2011-07-05T12:36:06Z</time>
      </trkpt>
      <trkpt lat="44.41938" lon="6.16899">
        <ele>851.384766</ele>
        <time>2011-07-05T12:36:11Z</time>
      </trkpt>
      <trkpt lat="44.41929" lon="6.16901">
        <ele>851.384766</ele>
        <time>2011-07-05T12:36:12Z</time>
      </trkpt>
      <trkpt lat="44.41903" lon="6.16904">
        <ele>849.942871</ele>
        <time>2011-07-05T12:36:15Z</time>
      </trkpt>
      <trkpt lat="44.4184" lon="6.16906">
        <ele>847.058838</ele>
        <time>2011-07-05T12:36:23Z</time>
      </trkpt>
      <trkpt lat="44.41833" lon="6.16906">
        <ele>847.058838</ele>
        <time>2011-07-05T12:36:24Z</time>
      </trkpt>
      <trkpt lat="44.41806" lon="6.16906">
        <ele>847.058838</ele>
        <time>2011-07-05T12:36:28Z</time>
      </trkpt>
      <trkpt lat="44.41788" lon="6.16902">
        <ele>846.578369</ele>
        <time>2011-07-05T12:36:31Z</time>
      </trkpt>
      <trkpt lat="44.41771" lon="6.16887">
        <ele>847.058838</ele>
        <time>2011-07-05T12:36:35Z</time>
      </trkpt>
      <trkpt lat="44.41762" lon="6.16876">
        <ele>850.423584</ele>
        <time>2011-07-05T12:36:38Z</time>
      </trkpt>
      <trkpt lat="44.41741" lon="6.16844">
        <ele>850.423584</ele>
        <time>2011-07-05T12:36:50Z</time>
      </trkpt>
      <trkpt lat="44.41708" lon="6.16829">
        <ele>851.865479</ele>
        <time>2011-07-05T12:37:08Z</time>
      </trkpt>
      <trkpt lat="44.41705" lon="6.16828">
        <ele>851.384766</ele>
        <time>2011-07-05T12:37:10Z</time>
      </trkpt>
      <trkpt lat="44.41696" lon="6.16828">
        <ele>852.82666</ele>
        <time>2011-07-05T12:37:15Z</time>
      </trkpt>
      <trkpt lat="44.41691" lon="6.16831">
        <ele>851.384766</ele>
        <time>2011-07-05T12:37:18Z</time>
      </trkpt>
      <trkpt lat="44.41689" lon="6.16836">
        <ele>853.307373</ele>
        <time>2011-07-05T12:37:20Z</time>
      </trkpt>
      <trkpt lat="44.4169" lon="6.16876">
        <ele>852.82666</ele>
        <time>2011-07-05T12:37:35Z</time>
      </trkpt>
      <trkpt lat="44.41709" lon="6.16909">
        <ele>854.268799</ele>
        <time>2011-07-05T12:37:50Z</time>
      </trkpt>
      <trkpt lat="44.41726" lon="6.16932">
        <ele>855.710693</ele>
        <time>2011-07-05T12:38:02Z</time>
      </trkpt>
      <trkpt lat="44.41755" lon="6.16982">
        <ele>857.633301</ele>
        <time>2011-07-05T12:38:26Z</time>
      </trkpt>
      <trkpt lat="44.41767" lon="6.17045">
        <ele>859.555908</ele>
        <time>2011-07-05T12:38:52Z</time>
      </trkpt>
      <trkpt lat="44.41777" lon="6.171">
        <ele>862.439941</ele>
        <time>2011-07-05T12:39:13Z</time>
      </trkpt>
      <trkpt lat="44.4178" lon="6.17147">
        <ele>864.843262</ele>
        <time>2011-07-05T12:39:32Z</time>
      </trkpt>
      <trkpt lat="44.41799" lon="6.17207">
        <ele>867.246582</ele>
        <time>2011-07-05T12:39:58Z</time>
      </trkpt>
      <trkpt lat="44.41828" lon="6.17259">
        <ele>870.611084</ele>
        <time>2011-07-05T12:40:24Z</time>
      </trkpt>
      <trkpt lat="44.41839" lon="6.17322">
        <ele>873.014404</ele>
        <time>2011-07-05T12:40:50Z</time>
      </trkpt>
      <trkpt lat="44.41856" lon="6.17376">
        <ele>876.859863</ele>
        <time>2011-07-05T12:41:14Z</time>
      </trkpt>
      <trkpt lat="44.41873" lon="6.17431">
        <ele>877.340576</ele>
        <time>2011-07-05T12:41:38Z</time>
      </trkpt>
      <trkpt lat="44.4187" lon="6.17478">
        <ele>880.705078</ele>
        <time>2011-07-05T12:41:58Z</time>
      </trkpt>
      <trkpt lat="44.41831" lon="6.17474">
        <ele>881.66626</ele>
        <time>2011-07-05T12:42:18Z</time>
      </trkpt>
      <trkpt lat="44.41807" lon="6.17468">
        <ele>883.588867</ele>
        <time>2011-07-05T12:42:31Z</time>
      </trkpt>
      <trkpt lat="44.41781" lon="6.17463">
        <ele>885.511475</ele>
        <time>2011-07-05T12:42:46Z</time>
      </trkpt>
      <trkpt lat="44.41778" lon="6.17462">
        <ele>884.06958</ele>
        <time>2011-07-05T12:42:48Z</time>
      </trkpt>
      <trkpt lat="44.41756" lon="6.17458">
        <ele>885.992188</ele>
        <time>2011-07-05T12:43:00Z</time>
      </trkpt>
      <trkpt lat="44.4175" lon="6.17456">
        <ele>887.434082</ele>
        <time>2011-07-05T12:43:04Z</time>
      </trkpt>
      <trkpt lat="44.41739" lon="6.17453">
        <ele>887.914795</ele>
        <time>2011-07-05T12:43:11Z</time>
      </trkpt>
      <trkpt lat="44.41724" lon="6.17449">
        <ele>887.434082</ele>
        <time>2011-07-05T12:43:19Z</time>
      </trkpt>
      <trkpt lat="44.41721" lon="6.17449">
        <ele>889.356689</ele>
        <time>2011-07-05T12:43:21Z</time>
      </trkpt>
      <trkpt lat="44.4171" lon="6.17446">
        <ele>890.798584</ele>
        <time>2011-07-05T12:43:28Z</time>
      </trkpt>
      <trkpt lat="44.41705" lon="6.17443">
        <ele>891.279297</ele>
        <time>2011-07-05T12:43:43Z</time>
      </trkpt>
      <trkpt lat="44.41705" lon="6.17443">
        <ele>890.318115</ele>
        <time>2011-07-05T12:45:50Z</time>
      </trkpt>
      <trkpt lat="44.41695" lon="6.17438">
        <ele>890.798584</ele>
        <time>2011-07-05T12:45:54Z</time>
      </trkpt>
      <trkpt lat="44.41655" lon="6.17421">
        <ele>893.202148</ele>
        <time>2011-07-05T12:46:16Z</time>
      </trkpt>
      <trkpt lat="44.41619" lon="6.17406">
        <ele>895.605469</ele>
        <time>2011-07-05T12:46:38Z</time>
      </trkpt>
      <trkpt lat="44.41581" lon="6.17401">
        <ele>897.528076</ele>
        <time>2011-07-05T12:47:02Z</time>
      </trkpt>
      <trkpt lat="44.41537" lon="6.1738">
        <ele>899.450684</ele>
        <time>2011-07-05T12:47:26Z</time>
      </trkpt>
      <trkpt lat="44.41502" lon="6.17335">
        <ele>901.854004</ele>
        <time>2011-07-05T12:47:51Z</time>
      </trkpt>
      <trkpt lat="44.4148" lon="6.17285">
        <ele>903.776611</ele>
        <time>2011-07-05T12:48:13Z</time>
      </trkpt>
      <trkpt lat="44.41446" lon="6.17245">
        <ele>905.699219</ele>
        <time>2011-07-05T12:48:36Z</time>
      </trkpt>
      <trkpt lat="44.41421" lon="6.17182">
        <ele>907.621826</ele>
        <time>2011-07-05T12:49:02Z</time>
      </trkpt>
      <trkpt lat="44.41398" lon="6.1712">
        <ele>909.544678</ele>
        <time>2011-07-05T12:49:26Z</time>
      </trkpt>
      <trkpt lat="44.41368" lon="6.17057">
        <ele>912.428467</ele>
        <time>2011-07-05T12:49:55Z</time>
      </trkpt>
      <trkpt lat="44.41346" lon="6.17006">
        <ele>914.831787</ele>
        <time>2011-07-05T12:50:18Z</time>
      </trkpt>
      <trkpt lat="44.41321" lon="6.16967">
        <ele>915.793213</ele>
        <time>2011-07-05T12:50:38Z</time>
      </trkpt>
      <trkpt lat="44.41285" lon="6.16936">
        <ele>918.196289</ele>
        <time>2011-07-05T12:51:00Z</time>
      </trkpt>
      <trkpt lat="44.41244" lon="6.16923">
        <ele>919.638428</ele>
        <time>2011-07-05T12:51:23Z</time>
      </trkpt>
      <trkpt lat="44.41205" lon="6.16924">
        <ele>921.560791</ele>
        <time>2011-07-05T12:51:45Z</time>
      </trkpt>
      <trkpt lat="44.41169" lon="6.16929">
        <ele>923.483643</ele>
        <time>2011-07-05T12:52:05Z</time>
      </trkpt>
      <trkpt lat="44.41138" lon="6.16932">
        <ele>925.886963</ele>
        <time>2011-07-05T12:52:22Z</time>
      </trkpt>
      <trkpt lat="44.41095" lon="6.16925">
        <ele>927.80957</ele>
        <time>2011-07-05T12:52:46Z</time>
      </trkpt>
      <trkpt lat="44.41062" lon="6.16886">
        <ele>929.732178</ele>
        <time>2011-07-05T12:53:10Z</time>
      </trkpt>
      <trkpt lat="44.41019" lon="6.16858">
        <ele>932.135498</ele>
        <time>2011-07-05T12:53:37Z</time>
      </trkpt>
      <trkpt lat="44.40984" lon="6.16838">
        <ele>932.616211</ele>
        <time>2011-07-05T12:53:55Z</time>
      </trkpt>
      <trkpt lat="44.40935" lon="6.16801">
        <ele>931.654785</ele>
        <time>2011-07-05T12:54:10Z</time>
      </trkpt>
      <trkpt lat="44.40906" lon="6.16794">
        <ele>931.174316</ele>
        <time>2011-07-05T12:54:16Z</time>
      </trkpt>
      <trkpt lat="44.40844" lon="6.16798">
        <ele>931.174316</ele>
        <time>2011-07-05T12:54:32Z</time>
      </trkpt>
      <trkpt lat="44.40809" lon="6.16803">
        <ele>934.058105</ele>
        <time>2011-07-05T12:54:53Z</time>
      </trkpt>
      <trkpt lat="44.40763" lon="6.16791">
        <ele>936.461426</ele>
        <time>2011-07-05T12:55:20Z</time>
      </trkpt>
      <trkpt lat="44.40737" lon="6.16761">
        <ele>939.345215</ele>
        <time>2011-07-05T12:55:41Z</time>
      </trkpt>
      <trkpt lat="44.40704" lon="6.16728">
        <ele>941.748779</ele>
        <time>2011-07-05T12:56:06Z</time>
      </trkpt>
      <trkpt lat="44.40688" lon="6.16692">
        <ele>943.671387</ele>
        <time>2011-07-05T12:56:25Z</time>
      </trkpt>
      <trkpt lat="44.40667" lon="6.16637">
        <ele>945.593994</ele>
        <time>2011-07-05T12:56:51Z</time>
      </trkpt>
      <trkpt lat="44.40645" lon="6.16597">
        <ele>947.997314</ele>
        <time>2011-07-05T12:57:13Z</time>
      </trkpt>
      <trkpt lat="44.40611" lon="6.16576">
        <ele>949.439209</ele>
        <time>2011-07-05T12:57:34Z</time>
      </trkpt>
      <trkpt lat="44.4057" lon="6.1656">
        <ele>952.803711</ele>
        <time>2011-07-05T12:57:58Z</time>
      </trkpt>
      <trkpt lat="44.40533" lon="6.16544">
        <ele>954.24585</ele>
        <time>2011-07-05T12:58:21Z</time>
      </trkpt>
      <trkpt lat="44.40492" lon="6.16534">
        <ele>957.129883</ele>
        <time>2011-07-05T12:58:46Z</time>
      </trkpt>
      <trkpt lat="44.40452" lon="6.16506">
        <ele>960.013672</ele>
        <time>2011-07-05T12:59:12Z</time>
      </trkpt>
      <trkpt lat="44.40417" lon="6.16476">
        <ele>963.378418</ele>
        <time>2011-07-05T12:59:37Z</time>
      </trkpt>
      <trkpt lat="44.40379" lon="6.16471">
        <ele>965.301025</ele>
        <time>2011-07-05T13:00:01Z</time>
      </trkpt>
      <trkpt lat="44.40344" lon="6.16454">
        <ele>967.704102</ele>
        <time>2011-07-05T13:00:23Z</time>
      </trkpt>
      <trkpt lat="44.40304" lon="6.16428">
        <ele>968.184814</ele>
        <time>2011-07-05T13:00:45Z</time>
      </trkpt>
      <trkpt lat="44.40269" lon="6.16413">
        <ele>970.107422</ele>
        <time>2011-07-05T13:01:04Z</time>
      </trkpt>
      <trkpt lat="44.4022" lon="6.16399">
        <ele>972.030273</ele>
        <time>2011-07-05T13:01:31Z</time>
      </trkpt>
      <trkpt lat="44.40174" lon="6.16385">
        <ele>974.914307</ele>
        <time>2011-07-05T13:01:58Z</time>
      </trkpt>
      <trkpt lat="44.40128" lon="6.1637">
        <ele>976.836914</ele>
        <time>2011-07-05T13:02:24Z</time>
      </trkpt>
      <trkpt lat="44.40084" lon="6.16363">
        <ele>978.759521</ele>
        <time>2011-07-05T13:02:47Z</time>
      </trkpt>
      <trkpt lat="44.40049" lon="6.16364">
        <ele>978.278809</ele>
        <time>2011-07-05T13:03:02Z</time>
      </trkpt>
      <trkpt lat="44.39988" lon="6.16369">
        <ele>979.720703</ele>
        <time>2011-07-05T13:03:22Z</time>
      </trkpt>
      <trkpt lat="44.39914" lon="6.16367">
        <ele>980.682129</ele>
        <time>2011-07-05T13:03:47Z</time>
      </trkpt>
      <trkpt lat="44.39842" lon="6.16356">
        <ele>982.124023</ele>
        <time>2011-07-05T13:04:13Z</time>
      </trkpt>
      <trkpt lat="44.39796" lon="6.164">
        <ele>982.604736</ele>
        <time>2011-07-05T13:04:31Z</time>
      </trkpt>
      <trkpt lat="44.39797" lon="6.1645">
        <ele>982.124023</ele>
        <time>2011-07-05T13:04:43Z</time>
      </trkpt>
      <trkpt lat="44.39799" lon="6.16509">
        <ele>983.085205</ele>
        <time>2011-07-05T13:04:55Z</time>
      </trkpt>
      <trkpt lat="44.3977" lon="6.16557">
        <ele>985.488525</ele>
        <time>2011-07-05T13:05:13Z</time>
      </trkpt>
      <trkpt lat="44.39737" lon="6.16612">
        <ele>987.891846</ele>
        <time>2011-07-05T13:05:38Z</time>
      </trkpt>
      <trkpt lat="44.39704" lon="6.16666">
        <ele>990.775879</ele>
        <time>2011-07-05T13:06:04Z</time>
      </trkpt>
      <trkpt lat="44.3968" lon="6.16707">
        <ele>993.179199</ele>
        <time>2011-07-05T13:06:24Z</time>
      </trkpt>
      <trkpt lat="44.39656" lon="6.16747">
        <ele>995.58252</ele>
        <time>2011-07-05T13:06:44Z</time>
      </trkpt>
      <trkpt lat="44.39634" lon="6.16802">
        <ele>997.505127</ele>
        <time>2011-07-05T13:07:08Z</time>
      </trkpt>
      <trkpt lat="44.39621" lon="6.16856">
        <ele>998.947021</ele>
        <time>2011-07-05T13:07:29Z</time>
      </trkpt>
      <trkpt lat="44.39606" lon="6.16927">
        <ele>1001.350342</ele>
        <time>2011-07-05T13:07:55Z</time>
      </trkpt>
      <trkpt lat="44.39601" lon="6.16989">
        <ele>1002.792236</ele>
        <time>2011-07-05T13:08:18Z</time>
      </trkpt>
      <trkpt lat="44.3964" lon="6.16993">
        <ele>1004.234619</ele>
        <time>2011-07-05T13:08:35Z</time>
      </trkpt>
      <trkpt lat="44.39645" lon="6.16994">
        <ele>1007.599121</ele>
        <time>2011-07-05T13:08:37Z</time>
      </trkpt>
      <trkpt lat="44.39649" lon="6.16994">
        <ele>1005.195801</ele>
        <time>2011-07-05T13:08:39Z</time>
      </trkpt>
      <trkpt lat="44.39683" lon="6.16985">
        <ele>1006.637695</ele>
        <time>2011-07-05T13:08:57Z</time>
      </trkpt>
      <trkpt lat="44.39718" lon="6.17001">
        <ele>1009.521729</ele>
        <time>2011-07-05T13:09:18Z</time>
      </trkpt>
      <trkpt lat="44.39749" lon="6.17021">
        <ele>1012.88623</ele>
        <time>2011-07-05T13:09:39Z</time>
      </trkpt>
      <trkpt lat="44.39756" lon="6.17024">
        <ele>1013.366943</ele>
        <time>2011-07-05T13:09:43Z</time>
      </trkpt>
      <trkpt lat="44.39789" lon="6.17032">
        <ele>1014.808838</ele>
        <time>2011-07-05T13:10:02Z</time>
      </trkpt>
      <trkpt lat="44.39795" lon="6.17033">
        <ele>1016.250732</ele>
        <time>2011-07-05T13:10:06Z</time>
      </trkpt>
      <trkpt lat="44.39817" lon="6.17037">
        <ele>1016.731445</ele>
        <time>2011-07-05T13:10:19Z</time>
      </trkpt>
      <trkpt lat="44.39819" lon="6.17037">
        <ele>1015.770264</ele>
        <time>2011-07-05T13:10:23Z</time>
      </trkpt>
      <trkpt lat="44.39803" lon="6.17087">
        <ele>1013.366943</ele>
        <time>2011-07-05T13:10:32Z</time>
      </trkpt>
      <trkpt lat="44.39791" lon="6.17115">
        <ele>1014.808838</ele>
        <time>2011-07-05T13:10:38Z</time>
      </trkpt>
      <trkpt lat="44.39789" lon="6.1712">
        <ele>1014.808838</ele>
        <time>2011-07-05T13:10:49Z</time>
      </trkpt>
      <trkpt lat="44.39789" lon="6.1712">
        <ele>1014.328125</ele>
        <time>2011-07-05T13:11:16Z</time>
      </trkpt>
    </trkseg>
  </trk>
</gpx>